Wetterdaten: Mittwoch, 07.09.2016
Datum Zeit Temp. A. Feuchte A. Luftdruck Regen Wind Richtung Richtung Sonnenschein ET UV Solar Taupunkt Windchill Windben Empfang
07.09.2016 00:00 13,2 C 96 % 1025,8 hPa 0,0 l/m 4,3 km/h (1 Bft) S-SW 213 0 min 0,000 mm 0,0 UV-I 0 W/m 12,6 C 13,2 C 8,0 km/h (2 Bft) 100,00 %
07.09.2016 00:02 13,2 C 96 % 1025,8 hPa 0,0 l/m 5,8 km/h (2 Bft) S-SW 200 0 min 0,000 mm 0,0 UV-I 0 W/m 12,6 C 13,2 C 9,7 km/h (2 Bft) 100,00 %
07.09.2016 00:04 13,2 C 96 % 1025,8 hPa 0,0 l/m 5,5 km/h (1 Bft) S-SW 194 0 min 0,000 mm 0,0 UV-I 0 W/m 12,6 C 13,2 C 8,0 km/h (2 Bft) 97,92 %
07.09.2016 00:06 13,2 C 96 % 1025,7 hPa 0,0 l/m 5,7 km/h (1 Bft) S-SW 203 0 min 0,000 mm 0,0 UV-I 0 W/m 12,6 C 13,2 C 11,3 km/h (2 Bft) 97,87 %
07.09.2016 00:08 13,3 C 96 % 1025,7 hPa 0,0 l/m 5,9 km/h (2 Bft) S-SW 203 0 min 0,000 mm 0,0 UV-I 0 W/m 12,7 C 13,3 C 9,7 km/h (2 Bft) 98,00 %
07.09.2016 00:10 13,3 C 96 % 1025,8 hPa 0,0 l/m 5,9 km/h (2 Bft) S 185 0 min 0,000 mm 0,0 UV-I 0 W/m 12,7 C 13,3 C 9,7 km/h (2 Bft) 95,74 %
07.09.2016 00:12 13,3 C 96 % 1025,8 hPa 0,0 l/m 6,8 km/h (2 Bft) S 178 0 min 0,000 mm 0,0 UV-I 0 W/m 12,7 C 13,1 C 9,7 km/h (2 Bft) 95,74 %
07.09.2016 00:14 13,3 C 96 % 1025,8 hPa 0,2 l/m 4,9 km/h (1 Bft) S-SW 196 0 min 0,000 mm 0,0 UV-I 0 W/m 12,7 C 13,3 C 8,0 km/h (2 Bft) 96,00 %
07.09.2016 00:16 13,3 C 96 % 1025,7 hPa 0,0 l/m 6,8 km/h (2 Bft) S-SO 167 0 min 0,000 mm 0,0 UV-I 0 W/m 12,7 C 13,1 C 11,3 km/h (2 Bft) 97,37 %
07.09.2016 00:18 13,3 C 96 % 1025,8 hPa 0,0 l/m 5,6 km/h (1 Bft) SO 146 0 min 0,000 mm 0,0 UV-I 0 W/m 12,7 C 13,3 C 9,7 km/h (2 Bft) 97,87 %
07.09.2016 00:20 13,3 C 96 % 1025,8 hPa 0,0 l/m 3,4 km/h (1 Bft) S-SO 162 0 min 0,000 mm 0,0 UV-I 0 W/m 12,7 C 13,3 C 8,0 km/h (2 Bft) 97,87 %
07.09.2016 00:22 13,3 C 96 % 1025,8 hPa 0,0 l/m 3,7 km/h (1 Bft) S-SW 196 0 min 0,000 mm 0,0 UV-I 0 W/m 12,7 C 13,3 C 6,4 km/h (2 Bft) 95,74 %
07.09.2016 00:24 13,3 C 96 % 1025,7 hPa 0,0 l/m 6,6 km/h (2 Bft) S-SW 194 0 min 0,000 mm 0,0 UV-I 0 W/m 12,7 C 13,2 C 9,7 km/h (2 Bft) 95,74 %
07.09.2016 00:26 13,3 C 96 % 1025,8 hPa 0,0 l/m 3,8 km/h (1 Bft) S-SW 202 0 min 0,000 mm 0,0 UV-I 0 W/m 12,7 C 13,3 C 8,0 km/h (2 Bft) 97,87 %
07.09.2016 00:28 13,3 C 96 % 1025,7 hPa 0,0 l/m 5,3 km/h (1 Bft) S 182 0 min 0,000 mm 0,0 UV-I 0 W/m 12,7 C 13,3 C 8,0 km/h (2 Bft) 95,74 %
07.09.2016 00:30 13,3 C 96 % 1025,7 hPa 0,0 l/m 5,3 km/h (1 Bft) S-SW 212 0 min 0,000 mm 0,0 UV-I 0 W/m 12,7 C 13,3 C 8,0 km/h (2 Bft) 95,74 %
07.09.2016 00:32 13,3 C 96 % 1025,7 hPa 0,0 l/m 5,4 km/h (1 Bft) S 176 0 min 0,000 mm 0,0 UV-I 0 W/m 12,7 C 13,3 C 8,0 km/h (2 Bft) 96,00 %
07.09.2016 00:34 13,3 C 96 % 1025,7 hPa 0,0 l/m 6,3 km/h (2 Bft) S-SW 195 0 min 0,000 mm 0,0 UV-I 0 W/m 12,7 C 13,3 C 9,7 km/h (2 Bft) 97,87 %
07.09.2016 00:36 13,3 C 96 % 1025,7 hPa 0,0 l/m 6,2 km/h (2 Bft) S-SW 200 0 min 0,000 mm 0,0 UV-I 0 W/m 12,7 C 13,3 C 9,7 km/h (2 Bft) 100,00 %
07.09.2016 00:38 13,3 C 96 % 1025,7 hPa 0,0 l/m 4,5 km/h (1 Bft) SW 219 0 min 0,000 mm 0,0 UV-I 0 W/m 12,7 C 13,3 C 8,0 km/h (2 Bft) 100,00 %
07.09.2016 00:40 13,3 C 96 % 1025,7 hPa 0,0 l/m 0,7 km/h (0 Bft) SW 219 0 min 0,000 mm 0,0 UV-I 0 W/m 12,7 C 13,3 C 3,2 km/h (1 Bft) 100,00 %
07.09.2016 00:42 13,3 C 96 % 1025,7 hPa 0,0 l/m 1,4 km/h (1 Bft) S-SO 164 0 min 0,000 mm 0,0 UV-I 0 W/m 12,7 C 13,3 C 6,4 km/h (2 Bft) 100,00 %
07.09.2016 00:44 13,3 C 96 % 1025,7 hPa 0,0 l/m 1,5 km/h (1 Bft) S-SO 159 0 min 0,000 mm 0,0 UV-I 0 W/m 12,7 C 13,3 C 6,4 km/h (2 Bft) 100,00 %
07.09.2016 00:46 13,3 C 96 % 1025,7 hPa 0,0 l/m 2,2 km/h (1 Bft) S 178 0 min 0,000 mm 0,0 UV-I 0 W/m 12,7 C 13,3 C 6,4 km/h (2 Bft) 95,74 %
07.09.2016 00:48 13,3 C 96 % 1025,7 hPa 0,0 l/m 2,2 km/h (1 Bft) S-SW 213 0 min 0,000 mm 0,0 UV-I 0 W/m 12,7 C 13,3 C 6,4 km/h (2 Bft) 100,00 %
07.09.2016 00:50 13,3 C 96 % 1025,7 hPa 0,0 l/m 6,2 km/h (2 Bft) S-SW 205 0 min 0,000 mm 0,0 UV-I 0 W/m 12,7 C 13,3 C 8,0 km/h (2 Bft) 100,00 %
07.09.2016 00:52 13,3 C 96 % 1025,7 hPa 0,0 l/m 3,9 km/h (1 Bft) SW 216 0 min 0,000 mm 0,0 UV-I 0 W/m 12,7 C 13,3 C 6,4 km/h (2 Bft) 100,00 %
07.09.2016 00:54 13,3 C 96 % 1025,7 hPa 0,0 l/m 5,3 km/h (1 Bft) SW 226 0 min 0,000 mm 0,0 UV-I 0 W/m 12,7 C 13,3 C 8,0 km/h (2 Bft) 97,87 %
07.09.2016 00:56 13,3 C 97 % 1025,6 hPa 0,0 l/m 6,1 km/h (2 Bft) SW 224 0 min 0,000 mm 0,0 UV-I 0 W/m 12,8 C 13,3 C 8,0 km/h (2 Bft) 100,00 %
07.09.2016 00:58 13,3 C 96 % 1025,6 hPa 0,0 l/m 4,6 km/h (1 Bft) SW 232 0 min 0,000 mm 0,0 UV-I 0 W/m 12,7 C 13,3 C 6,4 km/h (2 Bft) 97,87 %
07.09.2016 01:00 13,3 C 97 % 1025,5 hPa 0,0 l/m 4,7 km/h (1 Bft) SW 219 0 min 0,000 mm 0,0 UV-I 0 W/m 12,8 C 13,3 C 6,4 km/h (2 Bft) 97,87 %
07.09.2016 01:02 13,3 C 97 % 1025,5 hPa 0,0 l/m 4,0 km/h (1 Bft) S-SW 212 0 min 0,000 mm 0,0 UV-I 0 W/m 12,8 C 13,3 C 6,4 km/h (2 Bft) 100,00 %
07.09.2016 01:04 13,3 C 97 % 1025,5 hPa 0,0 l/m 3,8 km/h (1 Bft) SW 235 0 min 0,000 mm 0,0 UV-I 0 W/m 12,8 C 13,3 C 6,4 km/h (2 Bft) 97,87 %
07.09.2016 01:06 13,3 C 97 % 1025,5 hPa 0,0 l/m 4,2 km/h (1 Bft) SW 234 0 min 0,000 mm 0,0 UV-I 0 W/m 12,8 C 13,3 C 6,4 km/h (2 Bft) 97,87 %
07.09.2016 01:08 13,3 C 97 % 1025,6 hPa 0,0 l/m 3,7 km/h (1 Bft) S-SW 195 0 min 0,000 mm 0,0 UV-I 0 W/m 12,8 C 13,3 C 6,4 km/h (2 Bft) 100,00 %
07.09.2016 01:10 13,3 C 97 % 1025,5 hPa 0,0 l/m 5,1 km/h (1 Bft) SW 229 0 min 0,000 mm 0,0 UV-I 0 W/m 12,8 C 13,3 C 8,0 km/h (2 Bft) 95,74 %
07.09.2016 01:12 13,3 C 97 % 1025,6 hPa 0,0 l/m 4,9 km/h (1 Bft) SW 236 0 min 0,000 mm 0,0 UV-I 0 W/m 12,8 C 13,3 C 6,4 km/h (2 Bft) 100,00 %
07.09.2016 01:14 13,3 C 97 % 1025,6 hPa 0,0 l/m 3,4 km/h (1 Bft) SW 236 0 min 0,000 mm 0,0 UV-I 0 W/m 12,8 C 13,3 C 6,4 km/h (2 Bft) 100,00 %
07.09.2016 01:16 13,3 C 97 % 1025,6 hPa 0,0 l/m 1,6 km/h (1 Bft) SW 236 0 min 0,000 mm 0,0 UV-I 0 W/m 12,8 C 13,3 C 3,2 km/h (1 Bft) 100,00 %
07.09.2016 01:18 13,3 C 97 % 1025,6 hPa 0,0 l/m 2,0 km/h (1 Bft) SW 236 0 min 0,000 mm 0,0 UV-I 0 W/m 12,8 C 13,3 C 4,8 km/h (1 Bft) 100,00 %
07.09.2016 01:20 13,3 C 97 % 1025,6 hPa 0,0 l/m 1,0 km/h (0 Bft) SW 236 0 min 0,000 mm 0,0 UV-I 0 W/m 12,8 C 13,3 C 3,2 km/h (1 Bft) 100,00 %
07.09.2016 01:22 13,3 C 97 % 1025,7 hPa 0,0 l/m 1,8 km/h (1 Bft) SW 236 0 min 0,000 mm 0,0 UV-I 0 W/m 12,8 C 13,3 C 3,2 km/h (1 Bft) 100,00 %
07.09.2016 01:24 13,3 C 97 % 1025,7 hPa 0,0 l/m 2,2 km/h (1 Bft) SW 236 0 min 0,000 mm 0,0 UV-I 0 W/m 12,8 C 13,3 C 3,2 km/h (1 Bft) 95,74 %
07.09.2016 01:26 13,4 C 97 % 1025,7 hPa 0,0 l/m 2,0 km/h (1 Bft) SW 236 0 min 0,000 mm 0,0 UV-I 0 W/m 12,9 C 13,4 C 3,2 km/h (1 Bft) 100,00 %
07.09.2016 01:28 13,4 C 97 % 1025,7 hPa 0,0 l/m 3,3 km/h (1 Bft) W-SW 237 0 min 0,000 mm 0,0 UV-I 0 W/m 12,9 C 13,4 C 6,4 km/h (2 Bft) 97,87 %
07.09.2016 01:30 13,4 C 97 % 1025,7 hPa 0,0 l/m 2,5 km/h (1 Bft) W-SW 237 0 min 0,000 mm 0,0 UV-I 0 W/m 12,9 C 13,4 C 3,2 km/h (1 Bft) 97,92 %
07.09.2016 01:32 13,4 C 97 % 1025,7 hPa 0,0 l/m 1,7 km/h (1 Bft) W-SW 237 0 min 0,000 mm 0,0 UV-I 0 W/m 12,9 C 13,4 C 3,2 km/h (1 Bft) 95,74 %
07.09.2016 01:34 13,4 C 97 % 1025,7 hPa 0,0 l/m 1,5 km/h (1 Bft) W-SW 237 0 min 0,000 mm 0,0 UV-I 0 W/m 12,9 C 13,4 C 3,2 km/h (1 Bft) 100,00 %
07.09.2016 01:36 13,4 C 97 % 1025,7 hPa 0,0 l/m 2,1 km/h (1 Bft) W-SW 237 0 min 0,000 mm 0,0 UV-I 0 W/m 12,9 C 13,4 C 3,2 km/h (1 Bft) 100,00 %
07.09.2016 01:38 13,4 C 97 % 1025,7 hPa 0,0 l/m 3,1 km/h (1 Bft) W-SW 237 0 min 0,000 mm 0,0 UV-I 0 W/m 12,9 C 13,4 C 4,8 km/h (1 Bft) 97,87 %
07.09.2016 01:40 13,4 C 97 % 1025,6 hPa 0,0 l/m 2,7 km/h (1 Bft) W-SW 237 0 min 0,000 mm 0,0 UV-I 0 W/m 12,9 C 13,4 C 4,8 km/h (1 Bft) 100,00 %
07.09.2016 01:42 13,4 C 97 % 1025,6 hPa 0,0 l/m 1,6 km/h (1 Bft) W-SW 237 0 min 0,000 mm 0,0 UV-I 0 W/m 12,9 C 13,4 C 3,2 km/h (1 Bft) 100,00 %
07.09.2016 01:44 13,4 C 97 % 1025,6 hPa 0,0 l/m 1,5 km/h (1 Bft) W-SW 237 0 min 0,000 mm 0,0 UV-I 0 W/m 12,9 C 13,4 C 3,2 km/h (1 Bft) 100,00 %
07.09.2016 01:46 13,4 C 97 % 1025,6 hPa 0,0 l/m 1,2 km/h (1 Bft) W-SW 237 0 min 0,000 mm 0,0 UV-I 0 W/m 12,9 C 13,4 C 3,2 km/h (1 Bft) 100,00 %
07.09.2016 01:48 13,4 C 97 % 1025,6 hPa 0,0 l/m 1,7 km/h (1 Bft) W-SW 237 0 min 0,000 mm 0,0 UV-I 0 W/m 12,9 C 13,4 C 3,2 km/h (1 Bft) 97,87 %
07.09.2016 01:50 13,4 C 97 % 1025,6 hPa 0,0 l/m 1,8 km/h (1 Bft) W-SW 237 0 min 0,000 mm 0,0 UV-I 0 W/m 12,9 C 13,4 C 3,2 km/h (1 Bft) 100,00 %
07.09.2016 01:52 13,4 C 97 % 1025,5 hPa 0,0 l/m 1,0 km/h (0 Bft) W-SW 237 0 min 0,000 mm 0,0 UV-I 0 W/m 12,9 C 13,4 C 1,6 km/h (1 Bft) 100,00 %
07.09.2016 01:54 13,4 C 97 % 1025,5 hPa 0,0 l/m 0,3 km/h (0 Bft) W-SW 237 0 min 0,000 mm 0,0 UV-I 0 W/m 12,9 C 13,4 C 1,6 km/h (1 Bft) 95,74 %
07.09.2016 01:56 13,4 C 97 % 1025,5 hPa 0,0 l/m 1,4 km/h (1 Bft) W-SW 237 0 min 0,000 mm 0,0 UV-I 0 W/m 12,9 C 13,4 C 3,2 km/h (1 Bft) 100,00 %
07.09.2016 01:58 13,4 C 97 % 1025,5 hPa 0,0 l/m 2,8 km/h (1 Bft) W-SW 237 0 min 0,000 mm 0,0 UV-I 0 W/m 12,9 C 13,4 C 4,8 km/h (1 Bft) 97,87 %
07.09.2016 02:00 13,4 C 97 % 1025,4 hPa 0,0 l/m 2,6 km/h (1 Bft) W-SW 237 0 min 0,000 mm 0,0 UV-I 0 W/m 12,9 C 13,4 C 3,2 km/h (1 Bft) 100,00 %
07.09.2016 02:02 13,4 C 97 % 1025,4 hPa 0,0 l/m 3,3 km/h (1 Bft) SW 223 0 min 0,000 mm 0,0 UV-I 0 W/m 12,9 C 13,4 C 4,8 km/h (1 Bft) 97,87 %
07.09.2016 02:04 13,4 C 97 % 1025,4 hPa 0,0 l/m 3,9 km/h (1 Bft) S-SW 206 0 min 0,000 mm 0,0 UV-I 0 W/m 12,9 C 13,4 C 4,8 km/h (1 Bft) 95,74 %
07.09.2016 02:06 13,4 C 97 % 1025,4 hPa 0,0 l/m 2,4 km/h (1 Bft) S-SW 206 0 min 0,000 mm 0,0 UV-I 0 W/m 12,9 C 13,4 C 3,2 km/h (1 Bft) 95,83 %
07.09.2016 02:08 13,4 C 97 % 1025,4 hPa 0,0 l/m 2,8 km/h (1 Bft) S-SW 204 0 min 0,000 mm 0,0 UV-I 0 W/m 12,9 C 13,4 C 6,4 km/h (2 Bft) 97,87 %
07.09.2016 02:10 13,4 C 97 % 1025,4 hPa 0,0 l/m 1,1 km/h (1 Bft) S-SW 204 0 min 0,000 mm 0,0 UV-I 0 W/m 12,9 C 13,4 C 3,2 km/h (1 Bft) 97,87 %
07.09.2016 02:12 13,4 C 97 % 1025,4 hPa 0,0 l/m 1,0 km/h (0 Bft) S-SW 204 0 min 0,000 mm 0,0 UV-I 0 W/m 12,9 C 13,4 C 3,2 km/h (1 Bft) 97,87 %
07.09.2016 02:14 13,4 C 97 % 1025,3 hPa 0,0 l/m 0,3 km/h (0 Bft) S-SW 204 0 min 0,000 mm 0,0 UV-I 0 W/m 12,9 C 13,4 C 1,6 km/h (1 Bft) 89,36 %
07.09.2016 02:16 13,4 C 97 % 1025,3 hPa 0,0 l/m 0,9 km/h (0 Bft) S-SW 204 0 min 0,000 mm 0,0 UV-I 0 W/m 12,9 C 13,4 C 1,6 km/h (1 Bft) 96,08 %
07.09.2016 02:18 13,4 C 97 % 1025,3 hPa 0,0 l/m 1,3 km/h (1 Bft) S-SW 203 0 min 0,000 mm 0,0 UV-I 0 W/m 12,9 C 13,4 C 3,2 km/h (1 Bft) 97,87 %
07.09.2016 02:20 13,4 C 97 % 1025,3 hPa 0,0 l/m 2,6 km/h (1 Bft) S-SW 204 0 min 0,000 mm 0,0 UV-I 0 W/m 12,9 C 13,4 C 4,8 km/h (1 Bft) 95,74 %
07.09.2016 02:22 13,4 C 97 % 1025,3 hPa 0,0 l/m 1,5 km/h (1 Bft) S-SW 204 0 min 0,000 mm 0,0 UV-I 0 W/m 12,9 C 13,4 C 3,2 km/h (1 Bft) 95,74 %
07.09.2016 02:24 13,4 C 97 % 1025,3 hPa 0,0 l/m 2,3 km/h (1 Bft) S-SW 204 0 min 0,000 mm 0,0 UV-I 0 W/m 12,9 C 13,4 C 3,2 km/h (1 Bft) 97,87 %
07.09.2016 02:26 13,4 C 97 % 1025,2 hPa 0,0 l/m 1,8 km/h (1 Bft) S-SW 204 0 min 0,000 mm 0,0 UV-I 0 W/m 12,9 C 13,4 C 3,2 km/h (1 Bft) 95,74 %
07.09.2016 02:28 13,4 C 97 % 1025,2 hPa 0,0 l/m 1,9 km/h (1 Bft) S-SW 204 0 min 0,000 mm 0,0 UV-I 0 W/m 12,9 C 13,4 C 3,2 km/h (1 Bft) 97,37 %
07.09.2016 02:30 13,4 C 97 % 1025,2 hPa 0,0 l/m 2,0 km/h (1 Bft) S-SW 204 0 min 0,000 mm 0,0 UV-I 0 W/m 12,9 C 13,4 C 3,2 km/h (1 Bft) 95,74 %
07.09.2016 02:32 13,4 C 97 % 1025,2 hPa 0,0 l/m 2,8 km/h (1 Bft) S-SW 204 0 min 0,000 mm 0,0 UV-I 0 W/m 12,9 C 13,4 C 3,2 km/h (1 Bft) 96,00 %
07.09.2016 02:34 13,4 C 97 % 1025,2 hPa 0,0 l/m 1,1 km/h (1 Bft) S-SW 204 0 min 0,000 mm 0,0 UV-I 0 W/m 12,9 C 13,4 C 3,2 km/h (1 Bft) 97,87 %
07.09.2016 02:36 13,4 C 97 % 1025,3 hPa 0,0 l/m 0,0 km/h (0 Bft) S-SW 204 0 min 0,000 mm 0,0 UV-I 0 W/m 12,9 C 13,4 C 0,0 km/h (0 Bft) 100,00 %
07.09.2016 02:38 13,4 C 97 % 1025,3 hPa 0,0 l/m 0,0 km/h (0 Bft) S-SW 204 0 min 0,000 mm 0,0 UV-I 0 W/m 12,9 C 13,4 C 1,6 km/h (1 Bft) 97,87 %
07.09.2016 02:40 13,4 C 97 % 1025,3 hPa 0,0 l/m 0,6 km/h (0 Bft) S-SW 204 0 min 0,000 mm 0,0 UV-I 0 W/m 12,9 C 13,4 C 1,6 km/h (1 Bft) 100,00 %
07.09.2016 02:42 13,4 C 97 % 1025,3 hPa 0,0 l/m 0,1 km/h (0 Bft) S-SW 204 0 min 0,000 mm 0,0 UV-I 0 W/m 12,9 C 13,4 C 1,6 km/h (1 Bft) 98,00 %
07.09.2016 02:44 13,4 C 97 % 1025,2 hPa 0,0 l/m 0,0 km/h (0 Bft) S-SW 204 0 min 0,000 mm 0,0 UV-I 0 W/m 12,9 C 13,4 C 0,0 km/h (0 Bft) 100,00 %
07.09.2016 02:46 13,5 C 97 % 1025,2 hPa 0,0 l/m 0,5 km/h (0 Bft) S-SW 204 0 min 0,000 mm 0,0 UV-I 0 W/m 13,0 C 13,5 C 1,6 km/h (1 Bft) 100,00 %
07.09.2016 02:48 13,5 C 97 % 1025,2 hPa 0,0 l/m 2,4 km/h (1 Bft) S-SW 204 0 min 0,000 mm 0,0 UV-I 0 W/m 13,0 C 13,5 C 3,2 km/h (1 Bft) 97,92 %
07.09.2016 02:50 13,5 C 97 % 1025,1 hPa 0,0 l/m 1,3 km/h (1 Bft) S-SW 204 0 min 0,000 mm 0,0 UV-I 0 W/m 13,0 C 13,5 C 3,2 km/h (1 Bft) 100,00 %
07.09.2016 02:52 13,5 C 97 % 1025,1 hPa 0,0 l/m 1,4 km/h (1 Bft) S-SW 204 0 min 0,000 mm 0,0 UV-I 0 W/m 13,0 C 13,5 C 3,2 km/h (1 Bft) 100,00 %
07.09.2016 02:54 13,5 C 97 % 1025,1 hPa 0,0 l/m 2,0 km/h (1 Bft) S-SW 204 0 min 0,000 mm 0,0 UV-I 0 W/m 13,0 C 13,5 C 3,2 km/h (1 Bft) 97,87 %
07.09.2016 02:56 13,5 C 97 % 1025,0 hPa 0,0 l/m 2,1 km/h (1 Bft) S-SW 204 0 min 0,000 mm 0,0 UV-I 0 W/m 13,0 C 13,5 C 3,2 km/h (1 Bft) 97,87 %
07.09.2016 02:58 13,5 C 97 % 1025,1 hPa 0,0 l/m 1,4 km/h (1 Bft) S-SW 204 0 min 0,000 mm 0,0 UV-I 0 W/m 13,0 C 13,5 C 3,2 km/h (1 Bft) 100,00 %
07.09.2016 03:00 13,5 C 97 % 1025,1 hPa 0,0 l/m 0,6 km/h (0 Bft) S-SW 204 0 min 0,000 mm 0,0 UV-I 0 W/m 13,0 C 13,5 C 1,6 km/h (1 Bft) 100,00 %
07.09.2016 03:02 13,5 C 97 % 1025,1 hPa 0,0 l/m 0,0 km/h (0 Bft) S-SW 204 0 min 0,000 mm 0,0 UV-I 0 W/m 13,0 C 13,5 C 1,6 km/h (1 Bft) 97,87 %
07.09.2016 03:04 13,5 C 97 % 1025,0 hPa 0,0 l/m 0,1 km/h (0 Bft) S-SW 204 0 min 0,000 mm 0,0 UV-I 0 W/m 13,0 C 13,5 C 1,6 km/h (1 Bft) 100,00 %
07.09.2016 03:06 13,5 C 97 % 1025,0 hPa 0,0 l/m 0,1 km/h (0 Bft) S-SW 204 0 min 0,000 mm 0,0 UV-I 0 W/m 13,0 C 13,5 C 1,6 km/h (1 Bft) 100,00 %
07.09.2016 03:08 13,5 C 97 % 1024,9 hPa 0,0 l/m 0,1 km/h (0 Bft) S-SW 204 0 min 0,000 mm 0,0 UV-I 0 W/m 13,0 C 13,5 C 1,6 km/h (1 Bft) 100,00 %
07.09.2016 03:10 13,5 C 97 % 1024,9 hPa 0,0 l/m 0,1 km/h (0 Bft) S-SW 204 0 min 0,000 mm 0,0 UV-I 0 W/m 13,0 C 13,5 C 1,6 km/h (1 Bft) 100,00 %
07.09.2016 03:12 13,5 C 97 % 1024,9 hPa 0,0 l/m 0,2 km/h (0 Bft) S-SW 204 0 min 0,000 mm 0,0 UV-I 0 W/m 13,0 C 13,5 C 1,6 km/h (1 Bft) 100,00 %
07.09.2016 03:14 13,6 C 97 % 1024,9 hPa 0,0 l/m 1,3 km/h (1 Bft) S-SW 204 0 min 0,000 mm 0,0 UV-I 0 W/m 13,1 C 13,6 C 1,6 km/h (1 Bft) 100,00 %
07.09.2016 03:16 13,6 C 97 % 1024,9 hPa 0,0 l/m 0,8 km/h (0 Bft) S-SW 204 0 min 0,000 mm 0,0 UV-I 0 W/m 13,1 C 13,6 C 1,6 km/h (1 Bft) 97,87 %
07.09.2016 03:18 13,6 C 97 % 1024,8 hPa 0,0 l/m 1,4 km/h (1 Bft) S-SW 204 0 min 0,000 mm 0,0 UV-I 0 W/m 13,1 C 13,6 C 1,6 km/h (1 Bft) 100,00 %
07.09.2016 03:20 13,6 C 97 % 1024,8 hPa 0,0 l/m 1,0 km/h (0 Bft) S-SW 204 0 min 0,000 mm 0,0 UV-I 0 W/m 13,1 C 13,6 C 3,2 km/h (1 Bft) 100,00 %
07.09.2016 03:22 13,6 C 97 % 1024,8 hPa 0,0 l/m 2,0 km/h (1 Bft) S-SW 204 0 min 0,000 mm 0,0 UV-I 0 W/m 13,1 C 13,6 C 3,2 km/h (1 Bft) 100,00 %
07.09.2016 03:24 13,6 C 97 % 1024,8 hPa 0,0 l/m 1,8 km/h (1 Bft) S-SW 204 0 min 0,000 mm 0,0 UV-I 0 W/m 13,1 C 13,6 C 3,2 km/h (1 Bft) 100,00 %
07.09.2016 03:26 13,6 C 97 % 1024,8 hPa 0,0 l/m 1,7 km/h (1 Bft) S-SW 204 0 min 0,000 mm 0,0 UV-I 0 W/m 13,1 C 13,6 C 3,2 km/h (1 Bft) 100,00 %
07.09.2016 03:28 13,5 C 97 % 1024,8 hPa 0,0 l/m 1,6 km/h (1 Bft) S-SW 204 0 min 0,000 mm 0,0 UV-I 0 W/m 13,0 C 13,5 C 3,2 km/h (1 Bft) 97,87 %
07.09.2016 03:30 13,5 C 97 % 1024,8 hPa 0,0 l/m 1,5 km/h (1 Bft) S-SW 204 0 min 0,000 mm 0,0 UV-I 0 W/m 13,0 C 13,5 C 1,6 km/h (1 Bft) 100,00 %
07.09.2016 03:32 13,5 C 97 % 1024,8 hPa 0,0 l/m 1,1 km/h (1 Bft) S-SW 204 0 min 0,000 mm 0,0 UV-I 0 W/m 13,0 C 13,5 C 1,6 km/h (1 Bft) 97,87 %
07.09.2016 03:34 13,5 C 97 % 1024,8 hPa 0,0 l/m 0,7 km/h (0 Bft) S-SW 204 0 min 0,000 mm 0,0 UV-I 0 W/m 13,0 C 13,5 C 1,6 km/h (1 Bft) 97,87 %
07.09.2016 03:36 13,5 C 97 % 1024,9 hPa 0,0 l/m 0,9 km/h (0 Bft) S-SW 204 0 min 0,000 mm 0,0 UV-I 0 W/m 13,0 C 13,5 C 1,6 km/h (1 Bft) 100,00 %
07.09.2016 03:38 13,5 C 97 % 1024,8 hPa 0,0 l/m 0,4 km/h (0 Bft) S-SW 204 0 min 0,000 mm 0,0 UV-I 0 W/m 13,0 C 13,5 C 1,6 km/h (1 Bft) 98,00 %
07.09.2016 03:40 13,5 C 97 % 1024,8 hPa 0,0 l/m 0,0 km/h (0 Bft) S-SW 204 0 min 0,000 mm 0,0 UV-I 0 W/m 13,0 C 13,5 C 0,0 km/h (0 Bft) 100,00 %
07.09.2016 03:42 13,4 C 97 % 1024,8 hPa 0,0 l/m 1,0 km/h (0 Bft) S-SW 204 0 min 0,000 mm 0,0 UV-I 0 W/m 12,9 C 13,4 C 1,6 km/h (1 Bft) 100,00 %
07.09.2016 03:44 13,4 C 97 % 1024,8 hPa 0,0 l/m 1,8 km/h (1 Bft) S-SW 204 0 min 0,000 mm 0,0 UV-I 0 W/m 12,9 C 13,4 C 3,2 km/h (1 Bft) 93,62 %
07.09.2016 03:46 13,4 C 97 % 1024,7 hPa 0,0 l/m 2,5 km/h (1 Bft) S-SW 204 0 min 0,000 mm 0,0 UV-I 0 W/m 12,9 C 13,4 C 3,2 km/h (1 Bft) 100,00 %
07.09.2016 03:48 13,5 C 97 % 1024,7 hPa 0,0 l/m 2,0 km/h (1 Bft) S-SW 204 0 min 0,000 mm 0,0 UV-I 0 W/m 13,0 C 13,5 C 3,2 km/h (1 Bft) 100,00 %
07.09.2016 03:50 13,5 C 97 % 1024,6 hPa 0,0 l/m 2,8 km/h (1 Bft) S-SW 204 0 min 0,000 mm 0,0 UV-I 0 W/m 13,0 C 13,5 C 3,2 km/h (1 Bft) 97,87 %
07.09.2016 03:52 13,5 C 97 % 1024,6 hPa 0,0 l/m 2,6 km/h (1 Bft) S-SW 204 0 min 0,000 mm 0,0 UV-I 0 W/m 13,0 C 13,5 C 3,2 km/h (1 Bft) 100,00 %
07.09.2016 03:54 13,4 C 97 % 1024,6 hPa 0,0 l/m 3,6 km/h (1 Bft) S 189 0 min 0,000 mm 0,0 UV-I 0 W/m 12,9 C 13,4 C 4,8 km/h (1 Bft) 100,00 %
07.09.2016 03:56 13,4 C 97 % 1024,5 hPa 0,0 l/m 3,9 km/h (1 Bft) S-SO 152 0 min 0,000 mm 0,0 UV-I 0 W/m 12,9 C 13,4 C 4,8 km/h (1 Bft) 95,74 %
07.09.2016 03:58 13,4 C 97 % 1024,5 hPa 0,0 l/m 3,8 km/h (1 Bft) O-SO 123 0 min 0,000 mm 0,0 UV-I 0 W/m 12,9 C 13,4 C 4,8 km/h (1 Bft) 98,00 %
07.09.2016 04:00 13,5 C 97 % 1024,5 hPa 0,0 l/m 4,9 km/h (1 Bft) O-SO 103 0 min 0,000 mm 0,0 UV-I 0 W/m 13,0 C 13,5 C 6,4 km/h (2 Bft) 97,87 %
07.09.2016 04:02 13,5 C 97 % 1024,4 hPa 0,0 l/m 5,0 km/h (1 Bft) O-SO 111 0 min 0,000 mm 0,0 UV-I 0 W/m 13,0 C 13,5 C 6,4 km/h (2 Bft) 96,30 %
07.09.2016 04:04 13,5 C 97 % 1024,4 hPa 0,0 l/m 4,9 km/h (1 Bft) O-SO 111 0 min 0,000 mm 0,0 UV-I 0 W/m 13,0 C 13,5 C 6,4 km/h (2 Bft) 95,74 %
07.09.2016 04:06 13,5 C 97 % 1024,4 hPa 0,0 l/m 4,6 km/h (1 Bft) O-SO 107 0 min 0,000 mm 0,0 UV-I 0 W/m 13,0 C 13,5 C 6,4 km/h (2 Bft) 95,74 %
07.09.2016 04:08 13,5 C 97 % 1024,4 hPa 0,0 l/m 4,7 km/h (1 Bft) O-SO 107 0 min 0,000 mm 0,0 UV-I 0 W/m 13,0 C 13,5 C 6,4 km/h (2 Bft) 95,74 %
07.09.2016 04:10 13,5 C 97 % 1024,4 hPa 0,0 l/m 5,0 km/h (1 Bft) O-SO 119 0 min 0,000 mm 0,0 UV-I 0 W/m 13,0 C 13,5 C 6,4 km/h (2 Bft) 95,74 %
07.09.2016 04:12 13,5 C 97 % 1024,3 hPa 0,0 l/m 4,1 km/h (1 Bft) O-SO 117 0 min 0,000 mm 0,0 UV-I 0 W/m 13,0 C 13,5 C 4,8 km/h (1 Bft) 98,00 %
07.09.2016 04:14 13,5 C 97 % 1024,3 hPa 0,0 l/m 4,0 km/h (1 Bft) O-SO 117 0 min 0,000 mm 0,0 UV-I 0 W/m 13,0 C 13,5 C 6,4 km/h (2 Bft) 93,62 %
07.09.2016 04:16 13,5 C 97 % 1024,3 hPa 0,0 l/m 3,2 km/h (1 Bft) O-SO 117 0 min 0,000 mm 0,0 UV-I 0 W/m 13,0 C 13,5 C 6,4 km/h (2 Bft) 91,49 %
07.09.2016 04:18 13,5 C 97 % 1024,2 hPa 0,0 l/m 4,9 km/h (1 Bft) O-SO 107 0 min 0,000 mm 0,0 UV-I 0 W/m 13,0 C 13,5 C 6,4 km/h (2 Bft) 95,74 %
07.09.2016 04:20 13,5 C 97 % 1024,2 hPa 0,0 l/m 5,4 km/h (1 Bft) O-SO 107 0 min 0,000 mm 0,0 UV-I 0 W/m 13,0 C 13,5 C 9,7 km/h (2 Bft) 96,00 %
07.09.2016 04:22 13,5 C 97 % 1024,2 hPa 0,0 l/m 3,3 km/h (1 Bft) O-SO 103 0 min 0,000 mm 0,0 UV-I 0 W/m 13,0 C 13,5 C 6,4 km/h (2 Bft) 97,14 %
07.09.2016 04:24 13,5 C 97 % 1024,1 hPa 0,0 l/m 5,2 km/h (1 Bft) O 80 0 min 0,000 mm 0,0 UV-I 0 W/m 13,0 C 13,5 C 8,0 km/h (2 Bft) 97,87 %
07.09.2016 04:26 13,5 C 97 % 1024,1 hPa 0,0 l/m 4,8 km/h (1 Bft) O 87 0 min 0,000 mm 0,0 UV-I 0 W/m 13,0 C 13,5 C 6,4 km/h (2 Bft) 97,87 %
07.09.2016 04:28 13,5 C 97 % 1024,0 hPa 0,0 l/m 3,6 km/h (1 Bft) O 82 0 min 0,000 mm 0,0 UV-I 0 W/m 13,0 C 13,5 C 4,8 km/h (1 Bft) 96,00 %
07.09.2016 04:30 13,5 C 97 % 1024,0 hPa 0,0 l/m 4,1 km/h (1 Bft) O 82 0 min 0,000 mm 0,0 UV-I 0 W/m 13,0 C 13,5 C 6,4 km/h (2 Bft) 97,87 %
07.09.2016 04:32 13,5 C 97 % 1024,0 hPa 0,0 l/m 4,4 km/h (1 Bft) O 82 0 min 0,000 mm 0,0 UV-I 0 W/m 13,0 C 13,5 C 6,4 km/h (2 Bft) 97,87 %
07.09.2016 04:34 13,4 C 97 % 1024,0 hPa 0,0 l/m 4,1 km/h (1 Bft) O-NO 76 0 min 0,000 mm 0,0 UV-I 0 W/m 12,9 C 13,4 C 6,4 km/h (2 Bft) 95,74 %
07.09.2016 04:36 13,5 C 97 % 1024,1 hPa 0,0 l/m 3,4 km/h (1 Bft) O-NO 76 0 min 0,000 mm 0,0 UV-I 0 W/m 13,0 C 13,5 C 4,8 km/h (1 Bft) 100,00 %
07.09.2016 04:38 13,5 C 97 % 1024,0 hPa 0,0 l/m 2,3 km/h (1 Bft) O-NO 76 0 min 0,000 mm 0,0 UV-I 0 W/m 13,0 C 13,5 C 3,2 km/h (1 Bft) 98,00 %
07.09.2016 04:40 13,5 C 97 % 1024,0 hPa 0,0 l/m 2,5 km/h (1 Bft) O 101 0 min 0,000 mm 0,0 UV-I 0 W/m 13,0 C 13,5 C 6,4 km/h (2 Bft) 100,00 %
07.09.2016 04:42 13,5 C 97 % 1023,9 hPa 0,0 l/m 3,5 km/h (1 Bft) O-SO 115 0 min 0,000 mm 0,0 UV-I 0 W/m 13,0 C 13,5 C 4,8 km/h (1 Bft) 97,87 %
07.09.2016 04:44 13,5 C 97 % 1023,9 hPa 0,0 l/m 2,7 km/h (1 Bft) O-SO 114 0 min 0,000 mm 0,0 UV-I 0 W/m 13,0 C 13,5 C 4,8 km/h (1 Bft) 100,00 %
07.09.2016 04:46 13,5 C 97 % 1023,9 hPa 0,0 l/m 2,2 km/h (1 Bft) O-SO 114 0 min 0,000 mm 0,0 UV-I 0 W/m 13,0 C 13,5 C 4,8 km/h (1 Bft) 97,87 %
07.09.2016 04:48 13,5 C 97 % 1023,9 hPa 0,0 l/m 2,7 km/h (1 Bft) O 86 0 min 0,000 mm 0,0 UV-I 0 W/m 13,0 C 13,5 C 6,4 km/h (2 Bft) 100,00 %
07.09.2016 04:50 13,5 C 97 % 1023,8 hPa 0,0 l/m 4,8 km/h (1 Bft) O 80 0 min 0,000 mm 0,0 UV-I 0 W/m 13,0 C 13,5 C 8,0 km/h (2 Bft) 100,00 %
07.09.2016 04:52 13,4 C 97 % 1023,8 hPa 0,0 l/m 5,3 km/h (1 Bft) O-NO 71 0 min 0,000 mm 0,0 UV-I 0 W/m 12,9 C 13,4 C 8,0 km/h (2 Bft) 100,00 %
07.09.2016 04:54 13,4 C 97 % 1023,8 hPa 0,0 l/m 5,7 km/h (1 Bft) O 82 0 min 0,000 mm 0,0 UV-I 0 W/m 12,9 C 13,4 C 9,7 km/h (2 Bft) 100,00 %
07.09.2016 04:56 13,4 C 97 % 1023,7 hPa 0,0 l/m 3,6 km/h (1 Bft) O-NO 73 0 min 0,000 mm 0,0 UV-I 0 W/m 12,9 C 13,4 C 4,8 km/h (1 Bft) 100,00 %
07.09.2016 04:58 13,4 C 97 % 1023,7 hPa 0,0 l/m 5,6 km/h (1 Bft) O-NO 69 0 min 0,000 mm 0,0 UV-I 0 W/m 12,9 C 13,4 C 8,0 km/h (2 Bft) 97,87 %
07.09.2016 05:00 13,4 C 97 % 1023,7 hPa 0,0 l/m 5,4 km/h (1 Bft) NO 48 0 min 0,000 mm 0,0 UV-I 0 W/m 12,9 C 13,4 C 8,0 km/h (2 Bft) 100,00 %
07.09.2016 05:02 13,4 C 97 % 1023,6 hPa 0,0 l/m 4,9 km/h (1 Bft) O-NO 65 0 min 0,000 mm 0,0 UV-I 0 W/m 12,9 C 13,4 C 8,0 km/h (2 Bft) 100,00 %
07.09.2016 05:04 13,4 C 97 % 1023,6 hPa 0,0 l/m 5,0 km/h (1 Bft) O-NO 57 0 min 0,000 mm 0,0 UV-I 0 W/m 12,9 C 13,4 C 6,4 km/h (2 Bft) 100,00 %
07.09.2016 05:06 13,4 C 97 % 1023,6 hPa 0,0 l/m 5,4 km/h (1 Bft) NO 51 0 min 0,000 mm 0,0 UV-I 0 W/m 12,9 C 13,4 C 6,4 km/h (2 Bft) 97,87 %
07.09.2016 05:08 13,4 C 97 % 1023,5 hPa 0,0 l/m 5,9 km/h (2 Bft) NO 52 0 min 0,000 mm 0,0 UV-I 0 W/m 12,9 C 13,4 C 9,7 km/h (2 Bft) 98,00 %
07.09.2016 05:10 13,4 C 97 % 1023,5 hPa 0,0 l/m 5,9 km/h (2 Bft) NO 46 0 min 0,000 mm 0,0 UV-I 0 W/m 12,9 C 13,4 C 8,0 km/h (2 Bft) 100,00 %
07.09.2016 05:12 13,4 C 97 % 1023,4 hPa 0,0 l/m 7,0 km/h (2 Bft) N-NO 30 0 min 0,000 mm 0,0 UV-I 0 W/m 12,9 C 13,0 C 9,7 km/h (2 Bft) 100,00 %
07.09.2016 05:14 13,4 C 97 % 1023,4 hPa 0,0 l/m 6,4 km/h (2 Bft) NO 50 0 min 0,000 mm 0,0 UV-I 0 W/m 12,9 C 13,4 C 11,3 km/h (2 Bft) 100,00 %
07.09.2016 05:16 13,4 C 97 % 1023,4 hPa 0,0 l/m 7,4 km/h (2 Bft) O-NO 59 0 min 0,000 mm 0,0 UV-I 0 W/m 12,9 C 12,8 C 9,7 km/h (2 Bft) 100,00 %
07.09.2016 05:18 13,4 C 97 % 1023,4 hPa 0,0 l/m 6,4 km/h (2 Bft) NO 40 0 min 0,000 mm 0,0 UV-I 0 W/m 12,9 C 13,4 C 11,3 km/h (2 Bft) 100,00 %
07.09.2016 05:20 13,4 C 97 % 1023,4 hPa 0,0 l/m 5,8 km/h (2 Bft) NO 43 0 min 0,000 mm 0,0 UV-I 0 W/m 12,9 C 13,4 C 8,0 km/h (2 Bft) 100,00 %
07.09.2016 05:22 13,4 C 97 % 1023,4 hPa 0,0 l/m 6,4 km/h (2 Bft) NO 53 0 min 0,000 mm 0,0 UV-I 0 W/m 12,9 C 13,4 C 12,9 km/h (3 Bft) 100,00 %
07.09.2016 05:24 13,4 C 97 % 1023,4 hPa 0,0 l/m 6,1 km/h (2 Bft) O-NO 64 0 min 0,000 mm 0,0 UV-I 0 W/m 12,9 C 13,4 C 8,0 km/h (2 Bft) 98,04 %
07.09.2016 05:26 13,4 C 97 % 1023,4 hPa 0,0 l/m 9,0 km/h (2 Bft) O-NO 71 0 min 0,000 mm 0,0 UV-I 0 W/m 12,9 C 11,9 C 14,5 km/h (3 Bft) 100,00 %
07.09.2016 05:28 13,4 C 97 % 1023,4 hPa 0,0 l/m 7,9 km/h (2 Bft) NO 47 0 min 0,000 mm 0,0 UV-I 0 W/m 12,9 C 12,5 C 16,1 km/h (3 Bft) 97,87 %
07.09.2016 05:30 13,4 C 97 % 1023,3 hPa 0,0 l/m 11,8 km/h (2 Bft) O-NO 63 0 min 0,000 mm 0,0 UV-I 0 W/m 12,9 C 10,5 C 16,1 km/h (3 Bft) 100,00 %
07.09.2016 05:32 13,4 C 97 % 1023,3 hPa 0,0 l/m 10,3 km/h (2 Bft) O-NO 74 0 min 0,000 mm 0,0 UV-I 0 W/m 12,9 C 11,2 C 14,5 km/h (3 Bft) 97,87 %
07.09.2016 05:34 13,4 C 97 % 1023,3 hPa 0,0 l/m 11,7 km/h (2 Bft) O-NO 72 0 min 0,000 mm 0,0 UV-I 0 W/m 12,9 C 10,6 C 17,7 km/h (3 Bft) 100,00 %
07.09.2016 05:36 13,4 C 97 % 1023,3 hPa 0,0 l/m 11,8 km/h (2 Bft) O-NO 59 0 min 0,000 mm 0,0 UV-I 0 W/m 12,9 C 10,5 C 17,7 km/h (3 Bft) 97,87 %
07.09.2016 05:38 13,4 C 97 % 1023,3 hPa 0,0 l/m 9,0 km/h (2 Bft) NO 46 0 min 0,000 mm 0,0 UV-I 0 W/m 12,9 C 11,9 C 14,5 km/h (3 Bft) 100,00 %
07.09.2016 05:40 13,4 C 97 % 1023,2 hPa 0,0 l/m 10,0 km/h (2 Bft) NO 41 0 min 0,000 mm 0,0 UV-I 0 W/m 12,9 C 11,4 C 16,1 km/h (3 Bft) 100,00 %
07.09.2016 05:42 13,4 C 97 % 1023,2 hPa 0,0 l/m 9,0 km/h (2 Bft) NO 46 0 min 0,000 mm 0,0 UV-I 0 W/m 12,9 C 11,9 C 14,5 km/h (3 Bft) 100,00 %
07.09.2016 05:44 13,4 C 97 % 1023,2 hPa 0,0 l/m 6,9 km/h (2 Bft) O-NO 68 0 min 0,000 mm 0,0 UV-I 0 W/m 12,9 C 13,1 C 11,3 km/h (2 Bft) 97,87 %
07.09.2016 05:46 13,3 C 97 % 1023,1 hPa 0,0 l/m 7,5 km/h (2 Bft) NO 49 0 min 0,000 mm 0,0 UV-I 0 W/m 12,8 C 12,6 C 12,9 km/h (3 Bft) 100,00 %
07.09.2016 05:48 13,3 C 97 % 1023,2 hPa 0,0 l/m 9,6 km/h (2 Bft) O-NO 57 0 min 0,000 mm 0,0 UV-I 0 W/m 12,8 C 11,4 C 14,5 km/h (3 Bft) 100,00 %
07.09.2016 05:50 13,4 C 97 % 1023,1 hPa 0,0 l/m 8,1 km/h (2 Bft) NO 46 0 min 0,000 mm 0,0 UV-I 0 W/m 12,9 C 12,4 C 12,9 km/h (3 Bft) 97,92 %
07.09.2016 05:52 13,4 C 97 % 1023,1 hPa 0,0 l/m 9,0 km/h (2 Bft) O-NO 68 0 min 0,000 mm 0,0 UV-I 0 W/m 12,9 C 11,9 C 14,5 km/h (3 Bft) 97,92 %
07.09.2016 05:54 13,3 C 97 % 1023,1 hPa 0,0 l/m 9,2 km/h (2 Bft) O-NO 65 0 min 0,000 mm 0,0 UV-I 0 W/m 12,8 C 11,7 C 14,5 km/h (3 Bft) 94,74 %
07.09.2016 05:56 13,3 C 97 % 1023,2 hPa 0,0 l/m 9,4 km/h (2 Bft) NO 53 0 min 0,000 mm 0,0 UV-I 0 W/m 12,8 C 11,5 C 16,1 km/h (3 Bft) 100,00 %
07.09.2016 05:58 13,3 C 97 % 1023,2 hPa 0,0 l/m 8,6 km/h (2 Bft) O-NO 70 0 min 0,000 mm 0,0 UV-I 0 W/m 12,8 C 12,0 C 14,5 km/h (3 Bft) 97,92 %
07.09.2016 06:00 13,4 C 97 % 1023,2 hPa 0,0 l/m 8,6 km/h (2 Bft) O-NO 61 0 min 0,000 mm 0,0 UV-I 0 W/m 12,9 C 12,1 C 14,5 km/h (3 Bft) 100,00 %
07.09.2016 06:02 13,4 C 97 % 1023,2 hPa 0,0 l/m 8,7 km/h (2 Bft) O-NO 78 0 min 0,000 mm 0,0 UV-I 0 W/m 12,9 C 12,0 C 14,5 km/h (3 Bft) 96,00 %
07.09.2016 06:04 13,4 C 97 % 1023,2 hPa 0,0 l/m 8,1 km/h (2 Bft) O-NO 76 0 min 0,000 mm 0,0 UV-I 0 W/m 12,9 C 12,4 C 14,5 km/h (3 Bft) 95,74 %
07.09.2016 06:06 13,4 C 97 % 1023,2 hPa 0,0 l/m 3,9 km/h (1 Bft) O-NO 63 0 min 0,000 mm 0,0 UV-I 0 W/m 12,9 C 13,4 C 6,4 km/h (2 Bft) 97,87 %
07.09.2016 06:08 13,4 C 97 % 1023,2 hPa 0,0 l/m 8,8 km/h (2 Bft) O 91 0 min 0,000 mm 0,0 UV-I 0 W/m 12,9 C 12,0 C 12,9 km/h (3 Bft) 97,87 %
07.09.2016 06:10 13,4 C 97 % 1023,2 hPa 0,0 l/m 8,8 km/h (2 Bft) O 96 0 min 0,000 mm 0,0 UV-I 0 W/m 12,9 C 12,0 C 12,9 km/h (3 Bft) 97,87 %
07.09.2016 06:12 13,4 C 97 % 1023,1 hPa 0,0 l/m 5,9 km/h (2 Bft) O-NO 57 0 min 0,000 mm 0,0 UV-I 0 W/m 12,9 C 13,4 C 8,0 km/h (2 Bft) 97,87 %
07.09.2016 06:14 13,4 C 97 % 1023,1 hPa 0,0 l/m 9,6 km/h (2 Bft) NO 53 0 min 0,000 mm 0,0 UV-I 0 W/m 12,9 C 11,6 C 14,5 km/h (3 Bft) 97,87 %
07.09.2016 06:16 13,4 C 97 % 1023,1 hPa 0,0 l/m 10,4 km/h (2 Bft) NO 52 0 min 0,000 mm 0,0 UV-I 0 W/m 12,9 C 11,2 C 16,1 km/h (3 Bft) 97,87 %
07.09.2016 06:18 13,4 C 97 % 1023,0 hPa 0,0 l/m 11,7 km/h (2 Bft) O-NO 61 0 min 0,000 mm 0,0 UV-I 0 W/m 12,9 C 10,6 C 16,1 km/h (3 Bft) 93,62 %
07.09.2016 06:20 13,4 C 97 % 1023,0 hPa 0,0 l/m 9,7 km/h (2 Bft) O-NO 58 0 min 0,000 mm 0,0 UV-I 0 W/m 12,9 C 11,5 C 14,5 km/h (3 Bft) 97,87 %
07.09.2016 06:22 13,4 C 97 % 1023,0 hPa 0,0 l/m 10,3 km/h (2 Bft) NO 54 0 min 0,000 mm 0,0 UV-I 0 W/m 12,9 C 11,2 C 14,5 km/h (3 Bft) 97,87 %
07.09.2016 06:24 13,4 C 97 % 1023,0 hPa 0,0 l/m 13,6 km/h (3 Bft) O-NO 71 0 min 0,000 mm 0,0 UV-I 0 W/m 12,9 C 9,8 C 20,9 km/h (4 Bft) 97,87 %
07.09.2016 06:26 13,4 C 97 % 1023,0 hPa 0,0 l/m 12,4 km/h (3 Bft) O-NO 59 0 min 0,000 mm 0,0 UV-I 0 W/m 12,9 C 10,3 C 17,7 km/h (3 Bft) 93,62 %
07.09.2016 06:28 13,4 C 97 % 1023,0 hPa 0,0 l/m 13,2 km/h (3 Bft) O-NO 70 0 min 0,000 mm 0,0 UV-I 0 W/m 12,9 C 9,9 C 19,3 km/h (3 Bft) 97,87 %
07.09.2016 06:30 13,4 C 97 % 1022,9 hPa 0,0 l/m 9,9 km/h (2 Bft) O-NO 59 0 min 0,000 mm 0,0 UV-I 0 W/m 12,9 C 11,4 C 16,1 km/h (3 Bft) 93,62 %
07.09.2016 06:32 13,4 C 97 % 1022,9 hPa 0,0 l/m 11,8 km/h (2 Bft) NO 40 0 min 0,000 mm 0,0 UV-I 0 W/m 12,9 C 10,5 C 19,3 km/h (3 Bft) 95,74 %
07.09.2016 06:34 13,4 C 97 % 1022,9 hPa 0,0 l/m 15,9 km/h (3 Bft) O-NO 64 0 min 0,000 mm 0,0 UV-I 0 W/m 12,9 C 8,9 C 20,9 km/h (4 Bft) 93,62 %
07.09.2016 06:36 13,4 C 97 % 1022,9 hPa 0,0 l/m 11,2 km/h (2 Bft) O-NO 67 0 min 0,000 mm 0,0 UV-I 0 W/m 12,9 C 10,8 C 17,7 km/h (3 Bft) 100,00 %
07.09.2016 06:38 13,4 C 97 % 1022,9 hPa 0,0 l/m 11,4 km/h (2 Bft) O-NO 57 0 min 0,000 mm 0,0 UV-I 0 W/m 12,9 C 10,7 C 20,9 km/h (4 Bft) 98,15 %
07.09.2016 06:40 13,4 C 97 % 1022,9 hPa 0,0 l/m 10,4 km/h (2 Bft) NO 46 0 min 0,000 mm 0,0 UV-I 0 W/m 12,9 C 11,2 C 16,1 km/h (3 Bft) 97,92 %
07.09.2016 06:42 13,4 C 97 % 1022,9 hPa 0,0 l/m 12,4 km/h (3 Bft) NO 51 0 min 0,000 mm 0,0 UV-I 0 W/m 12,9 C 10,3 C 19,3 km/h (3 Bft) 100,00 %
07.09.2016 06:44 13,4 C 97 % 1022,9 hPa 0,0 l/m 11,2 km/h (2 Bft) NO 51 0 min 0,000 mm 0,0 UV-I 0 W/m 12,9 C 10,8 C 16,1 km/h (3 Bft) 100,00 %
07.09.2016 06:46 13,4 C 97 % 1022,8 hPa 0,0 l/m 13,4 km/h (3 Bft) O-NO 71 0 min 0,000 mm 0,0 UV-I 0 W/m 12,9 C 9,9 C 19,3 km/h (3 Bft) 97,87 %
07.09.2016 06:48 13,4 C 97 % 1022,8 hPa 0,0 l/m 12,0 km/h (2 Bft) NO 52 0 min 0,000 mm 0,0 UV-I 4 W/m 12,9 C 10,4 C 20,9 km/h (4 Bft) 98,00 %
07.09.2016 06:50 13,4 C 97 % 1022,8 hPa 0,0 l/m 10,9 km/h (2 Bft) NO 34 0 min 0,000 mm 0,0 UV-I 5 W/m 12,9 C 10,9 C 17,7 km/h (3 Bft) 95,74 %
07.09.2016 06:52 13,4 C 97 % 1022,8 hPa 0,0 l/m 11,7 km/h (2 Bft) O-NO 62 0 min 0,000 mm 0,0 UV-I 5 W/m 12,9 C 10,6 C 16,1 km/h (3 Bft) 97,14 %
07.09.2016 06:54 13,4 C 97 % 1022,7 hPa 0,0 l/m 11,0 km/h (2 Bft) NO 40 0 min 0,000 mm 0,0 UV-I 7 W/m 12,9 C 10,9 C 19,3 km/h (3 Bft) 100,00 %
07.09.2016 06:56 13,4 C 97 % 1022,6 hPa 0,0 l/m 10,8 km/h (2 Bft) NO 34 0 min 0,000 mm 0,0 UV-I 7 W/m 12,9 C 11,0 C 19,3 km/h (3 Bft) 97,87 %
07.09.2016 06:58 13,4 C 97 % 1022,6 hPa 0,0 l/m 12,2 km/h (2 Bft) O-NO 68 0 min 0,000 mm 0,0 UV-I 9 W/m 12,9 C 10,3 C 20,9 km/h (4 Bft) 100,00 %
07.09.2016 07:00 13,4 C 97 % 1022,6 hPa 0,0 l/m 11,7 km/h (2 Bft) NO 38 0 min 0,000 mm 0,0 UV-I 8 W/m 12,9 C 10,6 C 19,3 km/h (3 Bft) 97,87 %
07.09.2016 07:02 13,4 C 97 % 1022,7 hPa 0,0 l/m 14,9 km/h (3 Bft) NO 53 0 min 0,000 mm 0,0 UV-I 9 W/m 12,9 C 9,3 C 19,3 km/h (3 Bft) 95,74 %
07.09.2016 07:04 13,4 C 97 % 1022,6 hPa 0,0 l/m 11,0 km/h (2 Bft) NO 53 0 min 0,000 mm 0,0 UV-I 10 W/m 12,9 C 10,9 C 19,3 km/h (3 Bft) 98,00 %
07.09.2016 07:06 13,4 C 97 % 1022,7 hPa 0,0 l/m 10,4 km/h (2 Bft) O-NO 67 0 min 0,000 mm 0,0 UV-I 12 W/m 12,9 C 11,2 C 16,1 km/h (3 Bft) 100,00 %
07.09.2016 07:08 13,4 C 97 % 1022,7 hPa 0,0 l/m 12,1 km/h (2 Bft) O-NO 66 0 min 0,000 mm 0,0 UV-I 15 W/m 12,9 C 10,4 C 19,3 km/h (3 Bft) 100,00 %
07.09.2016 07:10 13,4 C 97 % 1022,7 hPa 0,0 l/m 15,8 km/h (3 Bft) NO 46 0 min 0,000 mm 0,0 UV-I 18 W/m 12,9 C 9,0 C 20,9 km/h (4 Bft) 100,00 %
07.09.2016 07:12 13,4 C 97 % 1022,7 hPa 0,0 l/m 11,8 km/h (2 Bft) N-NO 30 0 min 0,000 mm 0,0 UV-I 18 W/m 12,9 C 10,5 C 17,7 km/h (3 Bft) 100,00 %
07.09.2016 07:14 13,4 C 97 % 1022,7 hPa 0,0 l/m 15,5 km/h (3 Bft) NO 55 0 min 0,000 mm 0,0 UV-I 20 W/m 12,9 C 9,1 C 20,9 km/h (4 Bft) 97,87 %
07.09.2016 07:16 13,4 C 97 % 1022,7 hPa 0,0 l/m 14,4 km/h (3 Bft) NO 49 0 min 0,000 mm 0,0 UV-I 22 W/m 12,9 C 9,5 C 19,3 km/h (3 Bft) 97,87 %
07.09.2016 07:18 13,5 C 97 % 1022,7 hPa 0,0 l/m 15,1 km/h (3 Bft) O 84 0 min 0,000 mm 0,0 UV-I 24 W/m 13,0 C 9,3 C 19,3 km/h (3 Bft) 97,87 %
07.09.2016 07:20 13,5 C 97 % 1022,6 hPa 0,0 l/m 12,8 km/h (3 Bft) O-NO 76 0 min 0,000 mm 0,0 UV-I 24 W/m 13,0 C 10,2 C 19,3 km/h (3 Bft) 97,87 %
07.09.2016 07:22 13,5 C 97 % 1022,6 hPa 0,0 l/m 13,4 km/h (3 Bft) NO 53 0 min 0,000 mm 0,0 UV-I 26 W/m 13,0 C 10,0 C 19,3 km/h (3 Bft) 97,22 %
07.09.2016 07:24 13,5 C 97 % 1022,6 hPa 0,0 l/m 12,8 km/h (3 Bft) O-NO 63 0 min 0,000 mm 0,0 UV-I 27 W/m 13,0 C 10,2 C 22,5 km/h (4 Bft) 100,00 %
07.09.2016 07:26 13,5 C 97 % 1022,7 hPa 0,0 l/m 15,7 km/h (3 Bft) O-NO 69 0 min 0,000 mm 0,0 UV-I 29 W/m 13,0 C 9,1 C 20,9 km/h (4 Bft) 100,00 %
07.09.2016 07:28 13,5 C 97 % 1022,7 hPa 0,0 l/m 12,3 km/h (3 Bft) NO 47 0 min 0,000 mm 0,0 UV-I 26 W/m 13,0 C 10,4 C 20,9 km/h (4 Bft) 100,00 %
07.09.2016 07:30 13,5 C 97 % 1022,7 hPa 0,0 l/m 15,4 km/h (3 Bft) NO 52 0 min 0,000 mm 0,0 UV-I 25 W/m 13,0 C 9,2 C 24,1 km/h (4 Bft) 97,87 %
07.09.2016 07:32 13,5 C 97 % 1022,6 hPa 0,0 l/m 12,7 km/h (3 Bft) O 81 0 min 0,000 mm 0,0 UV-I 24 W/m 13,0 C 10,3 C 17,7 km/h (3 Bft) 100,00 %
07.09.2016 07:34 13,6 C 97 % 1022,6 hPa 0,0 l/m 15,2 km/h (3 Bft) O-NO 74 0 min 0,000 mm 0,0 UV-I 28 W/m 13,1 C 9,4 C 19,3 km/h (3 Bft) 100,00 %
07.09.2016 07:36 13,6 C 97 % 1022,6 hPa 0,0 l/m 17,7 km/h (3 Bft) N-NO 31 0 min 0,000 mm 0,0 UV-I 32 W/m 13,1 C 8,6 C 24,1 km/h (4 Bft) 100,00 %
07.09.2016 07:38 13,6 C 97 % 1022,5 hPa 0,0 l/m 15,1 km/h (3 Bft) O-NO 63 0 min 0,000 mm 0,0 UV-I 32 W/m 13,1 C 9,5 C 22,5 km/h (4 Bft) 100,00 %
07.09.2016 07:40 13,6 C 97 % 1022,5 hPa 0,0 l/m 14,0 km/h (3 Bft) O-NO 57 0 min 0,000 mm 0,0 UV-I 34 W/m 13,1 C 9,9 C 22,5 km/h (4 Bft) 97,87 %
07.09.2016 07:42 13,6 C 97 % 1022,5 hPa 0,0 l/m 17,1 km/h (3 Bft) NO 43 0 min 0,000 mm 0,0 UV-I 39 W/m 13,1 C 8,8 C 24,1 km/h (4 Bft) 100,00 %
07.09.2016 07:44 13,6 C 97 % 1022,6 hPa 0,0 l/m 18,0 km/h (3 Bft) O-NO 64 0 min 0,000 mm 0,0 UV-I 42 W/m 13,1 C 8,5 C 24,1 km/h (4 Bft) 100,00 %
07.09.2016 07:46 13,6 C 97 % 1022,5 hPa 0,0 l/m 17,9 km/h (3 Bft) O 82 0 min 0,000 mm 0,0 UV-I 39 W/m 13,1 C 8,5 C 24,1 km/h (4 Bft) 97,87 %
07.09.2016 07:48 13,6 C 97 % 1022,5 hPa 0,0 l/m 17,2 km/h (3 Bft) O-NO 57 0 min 0,000 mm 0,0 UV-I 41 W/m 13,1 C 8,8 C 22,5 km/h (4 Bft) 100,00 %
07.09.2016 07:50 13,6 C 97 % 1022,5 hPa 0,0 l/m 11,3 km/h (2 Bft) O-NO 73 0 min 0,000 mm 0,0 UV-I 52 W/m 13,1 C 11,0 C 17,7 km/h (3 Bft) 100,00 %
07.09.2016 07:52 13,6 C 98 % 1022,5 hPa 0,0 l/m 13,8 km/h (3 Bft) NO 48 0 min 0,000 mm 0,0 UV-I 48 W/m 13,3 C 9,9 C 22,5 km/h (4 Bft) 100,00 %
07.09.2016 07:54 13,6 C 97 % 1022,4 hPa 0,0 l/m 16,1 km/h (3 Bft) O 82 0 min 0,000 mm 0,0 UV-I 49 W/m 13,1 C 9,1 C 22,5 km/h (4 Bft) 97,92 %
07.09.2016 07:56 13,6 C 97 % 1022,4 hPa 0,0 l/m 13,8 km/h (3 Bft) O-NO 69 0 min 0,000 mm 0,0 UV-I 49 W/m 13,1 C 9,9 C 20,9 km/h (4 Bft) 100,00 %
07.09.2016 07:58 13,7 C 97 % 1022,4 hPa 0,0 l/m 12,5 km/h (3 Bft) O-NO 77 0 min 0,000 mm 0,0 UV-I 52 W/m 13,2 C 10,6 C 25,7 km/h (4 Bft) 100,00 %
07.09.2016 08:00 13,6 C 97 % 1022,3 hPa 0,0 l/m 19,0 km/h (3 Bft) O-NO 63 0 min 0,025 mm 0,0 UV-I 61 W/m 13,1 C 8,2 C 27,4 km/h (4 Bft) 100,00 %
07.09.2016 08:02 13,7 C 97 % 1022,3 hPa 0,0 l/m 14,7 km/h (3 Bft) O-NO 61 0 min 0,000 mm 0,0 UV-I 62 W/m 13,2 C 9,7 C 20,9 km/h (4 Bft) 97,87 %
07.09.2016 08:04 13,7 C 97 % 1022,2 hPa 0,0 l/m 16,1 km/h (3 Bft) O-NO 72 0 min 0,000 mm 0,0 UV-I 66 W/m 13,2 C 9,2 C 22,5 km/h (4 Bft) 93,62 %
07.09.2016 08:06 13,7 C 97 % 1022,2 hPa 0,0 l/m 13,6 km/h (3 Bft) O-NO 67 0 min 0,000 mm 0,0 UV-I 62 W/m 13,2 C 10,1 C 22,5 km/h (4 Bft) 95,74 %
07.09.2016 08:08 13,7 C 97 % 1022,2 hPa 0,0 l/m 13,1 km/h (3 Bft) O-NO 59 0 min 0,000 mm 0,0 UV-I 70 W/m 13,2 C 10,3 C 20,9 km/h (4 Bft) 97,87 %
07.09.2016 08:10 13,7 C 97 % 1022,2 hPa 0,0 l/m 19,3 km/h (3 Bft) O-NO 60 0 min 0,000 mm 0,0 UV-I 66 W/m 13,2 C 8,3 C 24,1 km/h (4 Bft) 97,87 %
07.09.2016 08:12 13,7 C 97 % 1022,2 hPa 0,0 l/m 17,8 km/h (3 Bft) O-NO 78 0 min 0,000 mm 0,0 UV-I 68 W/m 13,2 C 8,7 C 29,0 km/h (5 Bft) 97,87 %
07.09.2016 08:14 13,8 C 97 % 1022,2 hPa 0,0 l/m 13,9 km/h (3 Bft) NO 54 0 min 0,000 mm 0,0 UV-I 82 W/m 13,3 C 10,1 C 22,5 km/h (4 Bft) 97,87 %
07.09.2016 08:16 13,8 C 97 % 1022,2 hPa 0,0 l/m 17,0 km/h (3 Bft) O-NO 78 0 min 0,000 mm 0,0 UV-I 85 W/m 13,3 C 9,1 C 25,7 km/h (4 Bft) 98,00 %
07.09.2016 08:18 13,8 C 97 % 1022,2 hPa 0,0 l/m 15,6 km/h (3 Bft) O-NO 69 0 min 0,000 mm 0,0 UV-I 79 W/m 13,3 C 9,5 C 24,1 km/h (4 Bft) 97,37 %
07.09.2016 08:20 13,8 C 97 % 1022,2 hPa 0,0 l/m 18,4 km/h (3 Bft) O-SO 107 0 min 0,000 mm 0,0 UV-I 91 W/m 13,3 C 8,6 C 27,4 km/h (4 Bft) 95,74 %
07.09.2016 08:22 13,8 C 97 % 1022,2 hPa 0,0 l/m 12,0 km/h (2 Bft) O 84 0 min 0,000 mm 0,0 UV-I 101 W/m 13,3 C 10,9 C 20,9 km/h (4 Bft) 98,00 %
07.09.2016 08:24 13,8 C 97 % 1022,2 hPa 0,0 l/m 15,8 km/h (3 Bft) O-NO 62 0 min 0,000 mm 0,0 UV-I 103 W/m 13,3 C 9,5 C 24,1 km/h (4 Bft) 97,87 %
07.09.2016 08:26 13,9 C 97 % 1022,2 hPa 0,0 l/m 12,3 km/h (3 Bft) O 84 0 min 0,000 mm 0,0 UV-I 97 W/m 13,4 C 10,9 C 20,9 km/h (4 Bft) 97,87 %
07.09.2016 08:28 13,9 C 97 % 1022,2 hPa 0,0 l/m 13,9 km/h (3 Bft) NO 51 0 min 0,000 mm 0,0 UV-I 100 W/m 13,4 C 10,3 C 20,9 km/h (4 Bft) 97,87 %
07.09.2016 08:30 14,0 C 97 % 1022,1 hPa 0,0 l/m 16,9 km/h (3 Bft) O-NO 61 0 min 0,000 mm 0,0 UV-I 100 W/m 13,5 C 9,4 C 24,1 km/h (4 Bft) 97,87 %
07.09.2016 08:32 14,0 C 96 % 1022,2 hPa 0,0 l/m 13,4 km/h (3 Bft) O-NO 65 0 min 0,000 mm 0,0 UV-I 108 W/m 13,4 C 10,6 C 19,3 km/h (3 Bft) 97,87 %
07.09.2016 08:34 14,1 C 96 % 1022,1 hPa 0,0 l/m 14,8 km/h (3 Bft) O-NO 65 0 min 0,000 mm 0,0 UV-I 123 W/m 13,5 C 10,2 C 24,1 km/h (4 Bft) 95,74 %
07.09.2016 08:36 14,2 C 96 % 1022,2 hPa 0,0 l/m 18,0 km/h (3 Bft) O-SO 123 0 min 0,000 mm 0,2 UV-I 144 W/m 13,6 C 9,3 C 25,7 km/h (4 Bft) 100,00 %
07.09.2016 08:38 14,2 C 96 % 1022,1 hPa 0,0 l/m 18,0 km/h (3 Bft) O 93 0 min 0,000 mm 0,2 UV-I 128 W/m 13,6 C 9,3 C 25,7 km/h (4 Bft) 97,92 %
07.09.2016 08:40 14,2 C 96 % 1022,2 hPa 0,0 l/m 15,9 km/h (3 Bft) NO 45 0 min 0,000 mm 0,0 UV-I 126 W/m 13,6 C 9,9 C 24,1 km/h (4 Bft) 100,00 %
07.09.2016 08:42 14,2 C 96 % 1022,2 hPa 0,0 l/m 17,2 km/h (3 Bft) O-NO 77 0 min 0,000 mm 0,0 UV-I 127 W/m 13,6 C 9,5 C 27,4 km/h (4 Bft) 100,00 %
07.09.2016 08:44 14,2 C 96 % 1022,2 hPa 0,0 l/m 17,3 km/h (3 Bft) O-NO 76 0 min 0,000 mm 0,0 UV-I 120 W/m 13,6 C 9,5 C 29,0 km/h (5 Bft) 97,87 %
07.09.2016 08:46 14,3 C 96 % 1022,2 hPa 0,0 l/m 15,0 km/h (3 Bft) O-NO 70 0 min 0,000 mm 0,5 UV-I 123 W/m 13,7 C 10,3 C 22,5 km/h (4 Bft) 100,00 %
07.09.2016 08:48 14,3 C 95 % 1022,1 hPa 0,0 l/m 15,6 km/h (3 Bft) NO 42 0 min 0,000 mm 0,5 UV-I 133 W/m 13,5 C 10,1 C 24,1 km/h (4 Bft) 100,00 %
07.09.2016 08:50 14,3 C 96 % 1022,1 hPa 0,0 l/m 17,9 km/h (3 Bft) O-NO 63 0 min 0,000 mm 0,5 UV-I 132 W/m 13,7 C 9,4 C 27,4 km/h (4 Bft) 100,00 %
07.09.2016 08:52 14,4 C 95 % 1022,1 hPa 0,0 l/m 19,3 km/h (3 Bft) O-NO 59 0 min 0,000 mm 0,5 UV-I 126 W/m 13,6 C 9,2 C 24,1 km/h (4 Bft) 100,00 %
07.09.2016 08:54 14,4 C 95 % 1022,1 hPa 0,0 l/m 14,8 km/h (3 Bft) O-NO 59 0 min 0,000 mm 0,5 UV-I 126 W/m 13,6 C 10,5 C 20,9 km/h (4 Bft) 100,00 %
07.09.2016 08:56 14,4 C 95 % 1022,2 hPa 0,0 l/m 15,5 km/h (3 Bft) O 87 0 min 0,000 mm 0,5 UV-I 136 W/m 13,6 C 10,3 C 22,5 km/h (4 Bft) 100,00 %
07.09.2016 08:58 14,4 C 95 % 1022,2 hPa 0,0 l/m 18,6 km/h (3 Bft) O 98 0 min 0,000 mm 0,5 UV-I 144 W/m 13,6 C 9,4 C 24,1 km/h (4 Bft) 100,00 %
07.09.2016 09:00 14,5 C 95 % 1022,2 hPa 0,0 l/m 14,7 km/h (3 Bft) NO 51 0 min 0,000 mm 0,5 UV-I 138 W/m 13,7 C 10,7 C 22,5 km/h (4 Bft) 100,00 %
07.09.2016 09:02 14,6 C 95 % 1022,2 hPa 0,0 l/m 16,3 km/h (3 Bft) O-NO 61 0 min 0,051 mm 0,5 UV-I 140 W/m 13,8 C 10,3 C 30,6 km/h (5 Bft) 100,00 %
07.09.2016 09:04 14,6 C 95 % 1022,2 hPa 0,0 l/m 15,9 km/h (3 Bft) O-NO 75 0 min 0,000 mm 0,5 UV-I 138 W/m 13,8 C 10,4 C 20,9 km/h (4 Bft) 100,00 %
07.09.2016 09:06 14,6 C 95 % 1022,2 hPa 0,0 l/m 20,8 km/h (4 Bft) O-NO 64 0 min 0,000 mm 0,6 UV-I 144 W/m 13,8 C 9,0 C 29,0 km/h (5 Bft) 100,00 %
07.09.2016 09:08 14,7 C 94 % 1022,1 hPa 0,0 l/m 16,4 km/h (3 Bft) NO 53 0 min 0,000 mm 0,6 UV-I 140 W/m 13,7 C 10,4 C 24,1 km/h (4 Bft) 97,87 %
07.09.2016 09:10 14,7 C 94 % 1022,1 hPa 0,0 l/m 13,1 km/h (3 Bft) NO 54 0 min 0,000 mm 0,6 UV-I 143 W/m 13,7 C 11,5 C 20,9 km/h (4 Bft) 100,00 %
07.09.2016 09:12 14,7 C 94 % 1022,1 hPa 0,0 l/m 17,0 km/h (3 Bft) O 94 0 min 0,000 mm 0,7 UV-I 165 W/m 13,7 C 10,2 C 24,1 km/h (4 Bft) 100,00 %
07.09.2016 09:14 14,8 C 94 % 1022,1 hPa 0,0 l/m 17,8 km/h (3 Bft) O-NO 68 0 min 0,000 mm 0,7 UV-I 164 W/m 13,8 C 10,1 C 25,7 km/h (4 Bft) 100,00 %
07.09.2016 09:16 14,8 C 94 % 1022,1 hPa 0,0 l/m 17,3 km/h (3 Bft) NO 56 0 min 0,000 mm 0,6 UV-I 146 W/m 13,8 C 10,2 C 27,4 km/h (4 Bft) 100,00 %
07.09.2016 09:18 14,8 C 94 % 1022,1 hPa 0,0 l/m 19,4 km/h (3 Bft) NO 53 0 min 0,000 mm 0,7 UV-I 166 W/m 13,8 C 9,6 C 29,0 km/h (5 Bft) 100,00 %
07.09.2016 09:20 14,9 C 94 % 1022,1 hPa 0,0 l/m 20,6 km/h (4 Bft) O-NO 65 0 min 0,000 mm 0,7 UV-I 156 W/m 13,9 C 9,5 C 30,6 km/h (5 Bft) 100,00 %
07.09.2016 09:22 14,9 C 93 % 1022,1 hPa 0,0 l/m 17,9 km/h (3 Bft) O-NO 71 0 min 0,000 mm 0,8 UV-I 197 W/m 13,8 C 10,2 C 27,4 km/h (4 Bft) 100,00 %
07.09.2016 09:24 14,9 C 93 % 1022,2 hPa 0,0 l/m 19,3 km/h (3 Bft) O-NO 75 0 min 0,000 mm 0,8 UV-I 194 W/m 13,8 C 9,8 C 29,0 km/h (5 Bft) 97,87 %
07.09.2016 09:26 15,1 C 93 % 1022,1 hPa 0,0 l/m 12,7 km/h (3 Bft) O 93 0 min 0,000 mm 0,8 UV-I 204 W/m 14,0 C 12,1 C 19,3 km/h (3 Bft) 97,30 %
07.09.2016 09:28 15,2 C 94 % 1022,1 hPa 0,0 l/m 12,0 km/h (2 Bft) NO 51 0 min 0,000 mm 0,9 UV-I 195 W/m 14,2 C 12,5 C 17,7 km/h (3 Bft) 100,00 %
07.09.2016 09:30 15,2 C 93 % 1022,1 hPa 0,0 l/m 14,4 km/h (3 Bft) NO 53 0 min 0,000 mm 0,9 UV-I 195 W/m 14,1 C 11,6 C 20,9 km/h (4 Bft) 100,00 %
07.09.2016 09:32 15,3 C 93 % 1022,1 hPa 0,0 l/m 13,5 km/h (3 Bft) O-NO 71 0 min 0,000 mm 1,0 UV-I 235 W/m 14,2 C 12,1 C 22,5 km/h (4 Bft) 100,00 %
07.09.2016 09:34 15,3 C 93 % 1022,2 hPa 0,0 l/m 18,2 km/h (3 Bft) O 99 0 min 0,000 mm 0,9 UV-I 206 W/m 14,2 C 10,6 C 25,7 km/h (4 Bft) 98,00 %
07.09.2016 09:36 15,4 C 93 % 1022,1 hPa 0,0 l/m 15,5 km/h (3 Bft) NO 52 0 min 0,000 mm 1,0 UV-I 255 W/m 14,3 C 11,5 C 20,9 km/h (4 Bft) 98,00 %
07.09.2016 09:38 15,4 C 93 % 1022,1 hPa 0,0 l/m 18,2 km/h (3 Bft) O-NO 71 0 min 0,000 mm 1,2 UV-I 259 W/m 14,3 C 10,7 C 32,2 km/h (5 Bft) 100,00 %
07.09.2016 09:40 15,6 C 93 % 1022,0 hPa 0,0 l/m 14,1 km/h (3 Bft) NO 51 0 min 0,000 mm 1,2 UV-I 254 W/m 14,5 C 12,2 C 22,5 km/h (4 Bft) 100,00 %
07.09.2016 09:42 15,7 C 92 % 1022,0 hPa 0,0 l/m 12,7 km/h (3 Bft) O 99 2 min 0,000 mm 1,3 UV-I 388 W/m 14,4 C 12,8 C 19,3 km/h (3 Bft) 100,00 %
07.09.2016 09:44 15,8 C 92 % 1022,0 hPa 0,0 l/m 10,5 km/h (2 Bft) O-NO 67 0 min 0,000 mm 1,1 UV-I 234 W/m 14,5 C 13,8 C 20,9 km/h (4 Bft) 100,00 %
07.09.2016 09:46 15,8 C 92 % 1022,0 hPa 0,0 l/m 17,6 km/h (3 Bft) NO 46 0 min 0,000 mm 1,1 UV-I 228 W/m 14,5 C 11,4 C 24,1 km/h (4 Bft) 94,44 %
07.09.2016 09:48 15,8 C 91 % 1022,0 hPa 0,0 l/m 18,8 km/h (3 Bft) NO 48 0 min 0,000 mm 1,2 UV-I 252 W/m 14,3 C 11,1 C 25,7 km/h (4 Bft) 100,00 %
07.09.2016 09:50 15,8 C 91 % 1022,0 hPa 0,0 l/m 18,8 km/h (3 Bft) NO 43 0 min 0,000 mm 1,1 UV-I 213 W/m 14,3 C 11,1 C 25,7 km/h (4 Bft) 100,00 %
07.09.2016 09:52 15,8 C 91 % 1021,9 hPa 0,0 l/m 19,4 km/h (3 Bft) N-NO 14 0 min 0,000 mm 1,1 UV-I 220 W/m 14,3 C 10,9 C 27,4 km/h (4 Bft) 100,00 %
07.09.2016 09:54 15,8 C 91 % 1022,0 hPa 0,0 l/m 16,5 km/h (3 Bft) NO 49 0 min 0,000 mm 1,1 UV-I 213 W/m 14,3 C 11,7 C 25,7 km/h (4 Bft) 100,00 %
07.09.2016 09:56 15,8 C 91 % 1022,0 hPa 0,0 l/m 16,3 km/h (3 Bft) O-NO 77 0 min 0,000 mm 1,2 UV-I 244 W/m 14,3 C 11,8 C 22,5 km/h (4 Bft) 100,00 %
07.09.2016 09:58 15,9 C 91 % 1022,0 hPa 0,0 l/m 17,9 km/h (3 Bft) NO 53 0 min 0,000 mm 1,2 UV-I 216 W/m 14,4 C 11,4 C 24,1 km/h (4 Bft) 93,62 %
07.09.2016 10:00 15,9 C 91 % 1021,9 hPa 0,0 l/m 23,4 km/h (4 Bft) O-NO 70 0 min 0,000 mm 1,3 UV-I 233 W/m 14,4 C 10,1 C 29,0 km/h (5 Bft) 98,00 %
07.09.2016 10:02 15,9 C 91 % 1021,9 hPa 0,0 l/m 17,8 km/h (3 Bft) O-NO 72 0 min 0,127 mm 1,3 UV-I 227 W/m 14,4 C 11,5 C 25,7 km/h (4 Bft) 96,00 %
07.09.2016 10:04 16,0 C 91 % 1021,9 hPa 0,0 l/m 23,0 km/h (4 Bft) O 79 0 min 0,000 mm 1,3 UV-I 271 W/m 14,5 C 10,4 C 33,8 km/h (5 Bft) 92,68 %
07.09.2016 10:06 16,1 C 91 % 1022,0 hPa 0,0 l/m 20,4 km/h (4 Bft) O 85 0 min 0,000 mm 1,3 UV-I 268 W/m 14,6 C 11,1 C 33,8 km/h (5 Bft) 95,74 %
07.09.2016 10:08 16,2 C 91 % 1021,9 hPa 0,0 l/m 19,3 km/h (3 Bft) O-NO 76 2 min 0,000 mm 1,6 UV-I 401 W/m 14,7 C 11,5 C 29,0 km/h (5 Bft) 97,87 %
07.09.2016 10:10 16,3 C 90 % 1021,9 hPa 0,0 l/m 20,3 km/h (4 Bft) O-NO 65 2 min 0,000 mm 1,8 UV-I 457 W/m 14,7 C 11,4 C 27,4 km/h (4 Bft) 95,74 %
07.09.2016 10:12 16,5 C 91 % 1021,9 hPa 0,0 l/m 17,7 km/h (3 Bft) NO 50 2 min 0,000 mm 1,9 UV-I 432 W/m 15,0 C 12,3 C 24,1 km/h (4 Bft) 97,87 %
07.09.2016 10:14 16,4 C 89 % 1021,9 hPa 0,0 l/m 23,0 km/h (4 Bft) O-NO 73 2 min 0,000 mm 1,5 UV-I 386 W/m 14,6 C 10,9 C 32,2 km/h (5 Bft) 95,74 %
07.09.2016 10:16 16,6 C 91 % 1021,8 hPa 0,0 l/m 18,6 km/h (3 Bft) O 86 2 min 0,000 mm 1,9 UV-I 361 W/m 15,1 C 12,1 C 25,7 km/h (4 Bft) 96,00 %
07.09.2016 10:18 16,7 C 90 % 1021,8 hPa 0,0 l/m 19,7 km/h (3 Bft) O-NO 61 2 min 0,000 mm 2,1 UV-I 366 W/m 15,0 C 12,0 C 29,0 km/h (5 Bft) 97,87 %
07.09.2016 10:20 16,8 C 89 % 1021,8 hPa 0,0 l/m 24,7 km/h (4 Bft) O-NO 71 2 min 0,000 mm 2,2 UV-I 468 W/m 15,0 C 11,1 C 32,2 km/h (5 Bft) 95,74 %
07.09.2016 10:22 16,9 C 89 % 1021,8 hPa 0,0 l/m 17,6 km/h (3 Bft) O-NO 63 2 min 0,000 mm 2,4 UV-I 624 W/m 15,1 C 12,8 C 29,0 km/h (5 Bft) 95,74 %
07.09.2016 10:24 17,1 C 89 % 1021,8 hPa 0,0 l/m 19,2 km/h (3 Bft) O 82 2 min 0,000 mm 2,2 UV-I 650 W/m 15,3 C 12,6 C 29,0 km/h (5 Bft) 97,87 %
07.09.2016 10:26 17,1 C 88 % 1021,8 hPa 0,0 l/m 23,3 km/h (4 Bft) O-NO 65 2 min 0,000 mm 2,3 UV-I 650 W/m 15,1 C 11,8 C 30,6 km/h (5 Bft) 95,74 %
07.09.2016 10:28 17,1 C 87 % 1021,8 hPa 0,0 l/m 22,9 km/h (4 Bft) O-NO 71 2 min 0,000 mm 1,8 UV-I 629 W/m 14,9 C 11,8 C 30,6 km/h (5 Bft) 97,87 %
07.09.2016 10:30 16,9 C 87 % 1021,8 hPa 0,0 l/m 23,3 km/h (4 Bft) O-NO 67 0 min 0,000 mm 1,9 UV-I 315 W/m 14,7 C 11,5 C 32,2 km/h (5 Bft) 95,74 %
07.09.2016 10:32 16,9 C 88 % 1021,7 hPa 0,0 l/m 23,5 km/h (4 Bft) O-NO 72 0 min 0,000 mm 2,0 UV-I 315 W/m 14,9 C 11,5 C 35,4 km/h (5 Bft) 97,96 %
07.09.2016 10:34 16,9 C 88 % 1021,8 hPa 0,0 l/m 19,4 km/h (3 Bft) O-NO 68 2 min 0,000 mm 2,2 UV-I 359 W/m 14,9 C 12,3 C 27,4 km/h (4 Bft) 100,00 %
07.09.2016 10:36 16,9 C 89 % 1021,8 hPa 0,0 l/m 20,0 km/h (4 Bft) NO 44 2 min 0,000 mm 2,3 UV-I 379 W/m 15,1 C 12,2 C 30,6 km/h (5 Bft) 100,00 %
07.09.2016 10:38 17,0 C 89 % 1021,7 hPa 0,0 l/m 17,1 km/h (3 Bft) O 87 2 min 0,000 mm 2,4 UV-I 375 W/m 15,2 C 13,0 C 22,5 km/h (4 Bft) 97,22 %
07.09.2016 10:40 17,1 C 89 % 1021,7 hPa 0,0 l/m 16,2 km/h (3 Bft) NO 55 2 min 0,000 mm 2,2 UV-I 398 W/m 15,3 C 13,4 C 20,9 km/h (4 Bft) 100,00 %
07.09.2016 10:42 17,2 C 88 % 1021,6 hPa 0,0 l/m 21,6 km/h (4 Bft) O-NO 69 2 min 0,000 mm 2,4 UV-I 677 W/m 15,2 C 12,2 C 33,8 km/h (5 Bft) 100,00 %
07.09.2016 10:44 17,3 C 88 % 1021,6 hPa 0,0 l/m 21,9 km/h (4 Bft) O-NO 71 2 min 0,000 mm 2,7 UV-I 625 W/m 15,3 C 12,3 C 30,6 km/h (5 Bft) 100,00 %
07.09.2016 10:46 17,3 C 87 % 1021,6 hPa 0,0 l/m 21,5 km/h (4 Bft) O-NO 66 2 min 0,000 mm 2,5 UV-I 610 W/m 15,1 C 12,4 C 33,8 km/h (5 Bft) 100,00 %
07.09.2016 10:48 17,4 C 88 % 1021,6 hPa 0,0 l/m 22,7 km/h (4 Bft) NO 49 2 min 0,000 mm 2,8 UV-I 607 W/m 15,4 C 12,3 C 30,6 km/h (5 Bft) 100,00 %
07.09.2016 10:50 17,4 C 88 % 1021,6 hPa 0,0 l/m 17,4 km/h (3 Bft) O 86 2 min 0,000 mm 2,8 UV-I 647 W/m 15,4 C 13,5 C 27,4 km/h (4 Bft) 97,87 %
07.09.2016 10:52 17,6 C 88 % 1021,6 hPa 0,0 l/m 19,6 km/h (3 Bft) O-SO 107 2 min 0,000 mm 2,8 UV-I 673 W/m 15,6 C 13,2 C 25,7 km/h (4 Bft) 97,87 %
07.09.2016 10:54 17,7 C 87 % 1021,6 hPa 0,0 l/m 19,9 km/h (4 Bft) NO 48 2 min 0,000 mm 2,6 UV-I 522 W/m 15,5 C 13,3 C 27,4 km/h (4 Bft) 100,00 %
07.09.2016 10:56 17,7 C 88 % 1021,6 hPa 0,0 l/m 16,3 km/h (3 Bft) O-NO 73 2 min 0,000 mm 2,5 UV-I 443 W/m 15,7 C 14,1 C 22,5 km/h (4 Bft) 100,00 %
07.09.2016 10:58 17,8 C 87 % 1021,6 hPa 0,0 l/m 21,5 km/h (4 Bft) O-NO 76 2 min 0,000 mm 2,9 UV-I 453 W/m 15,6 C 13,1 C 27,4 km/h (4 Bft) 95,74 %
07.09.2016 11:00 17,8 C 87 % 1021,6 hPa 0,0 l/m 19,6 km/h (3 Bft) O-NO 57 2 min 0,280 mm 2,6 UV-I 448 W/m 15,6 C 13,5 C 27,4 km/h (4 Bft) 100,00 %
07.09.2016 11:02 17,8 C 87 % 1021,6 hPa 0,0 l/m 17,6 km/h (3 Bft) O 81 0 min 0,000 mm 2,5 UV-I 297 W/m 15,6 C 13,9 C 24,1 km/h (4 Bft) 100,00 %
07.09.2016 11:04 17,8 C 87 % 1021,6 hPa 0,0 l/m 13,7 km/h (3 Bft) O 99 0 min 0,000 mm 2,9 UV-I 314 W/m 15,6 C 15,0 C 20,9 km/h (4 Bft) 100,00 %
07.09.2016 11:06 18,0 C 87 % 1021,6 hPa 0,0 l/m 20,5 km/h (4 Bft) O-NO 63 2 min 0,000 mm 3,1 UV-I 631 W/m 15,8 C 13,5 C 27,4 km/h (4 Bft) 97,87 %
07.09.2016 11:08 18,1 C 86 % 1021,6 hPa 0,0 l/m 22,3 km/h (4 Bft) NO 55 2 min 0,000 mm 2,9 UV-I 571 W/m 15,7 C 13,3 C 29,0 km/h (5 Bft) 100,00 %
07.09.2016 11:10 18,1 C 86 % 1021,6 hPa 0,0 l/m 19,6 km/h (3 Bft) O-NO 63 2 min 0,000 mm 3,1 UV-I 598 W/m 15,7 C 13,8 C 30,6 km/h (5 Bft) 100,00 %
07.09.2016 11:12 18,2 C 86 % 1021,5 hPa 0,0 l/m 18,1 km/h (3 Bft) NO 56 2 min 0,000 mm 3,1 UV-I 652 W/m 15,8 C 14,3 C 32,2 km/h (5 Bft) 100,00 %
07.09.2016 11:14 18,3 C 85 % 1021,5 hPa 0,0 l/m 19,3 km/h (3 Bft) O-NO 76 2 min 0,000 mm 3,2 UV-I 653 W/m 15,7 C 14,2 C 27,4 km/h (4 Bft) 98,08 %
07.09.2016 11:16 18,3 C 86 % 1021,5 hPa 0,0 l/m 17,5 km/h (3 Bft) NO 51 2 min 0,000 mm 3,2 UV-I 620 W/m 15,9 C 14,6 C 27,4 km/h (4 Bft) 100,00 %
07.09.2016 11:18 18,4 C 85 % 1021,4 hPa 0,0 l/m 25,3 km/h (4 Bft) NO 51 2 min 0,000 mm 3,3 UV-I 653 W/m 15,8 C 13,2 C 33,8 km/h (5 Bft) 95,83 %
07.09.2016 11:20 18,4 C 85 % 1021,4 hPa 0,0 l/m 23,8 km/h (4 Bft) O-NO 66 2 min 0,000 mm 3,3 UV-I 641 W/m 15,8 C 13,4 C 29,0 km/h (5 Bft) 100,00 %
07.09.2016 11:22 18,5 C 84 % 1021,4 hPa 0,0 l/m 23,5 km/h (4 Bft) O-NO 59 2 min 0,000 mm 3,4 UV-I 640 W/m 15,7 C 13,6 C 30,6 km/h (5 Bft) 100,00 %
07.09.2016 11:24 18,6 C 84 % 1021,3 hPa 0,0 l/m 21,4 km/h (4 Bft) O-NO 62 2 min 0,000 mm 3,4 UV-I 545 W/m 15,8 C 14,1 C 30,6 km/h (5 Bft) 100,00 %
07.09.2016 11:26 18,6 C 86 % 1021,4 hPa 0,0 l/m 20,1 km/h (4 Bft) O-NO 76 2 min 0,000 mm 3,4 UV-I 632 W/m 16,2 C 14,4 C 29,0 km/h (5 Bft) 97,87 %
07.09.2016 11:28 18,7 C 85 % 1021,3 hPa 0,0 l/m 20,9 km/h (4 Bft) NO 44 2 min 0,000 mm 3,5 UV-I 642 W/m 16,1 C 14,3 C 29,0 km/h (5 Bft) 97,87 %
07.09.2016 11:30 18,7 C 85 % 1021,3 hPa 0,0 l/m 21,6 km/h (4 Bft) O-NO 65 2 min 0,000 mm 3,5 UV-I 636 W/m 16,1 C 14,2 C 29,0 km/h (5 Bft) 100,00 %
07.09.2016 11:32 18,8 C 85 % 1021,3 hPa 0,0 l/m 20,2 km/h (4 Bft) O-NO 69 2 min 0,000 mm 3,5 UV-I 641 W/m 16,2 C 14,6 C 32,2 km/h (5 Bft) 100,00 %
07.09.2016 11:34 18,8 C 84 % 1021,3 hPa 0,0 l/m 25,9 km/h (4 Bft) O-NO 76 2 min 0,000 mm 3,5 UV-I 644 W/m 16,0 C 13,6 C 33,8 km/h (5 Bft) 100,00 %
07.09.2016 11:36 18,8 C 85 % 1021,3 hPa 0,0 l/m 20,2 km/h (4 Bft) O-NO 65 2 min 0,000 mm 3,6 UV-I 646 W/m 16,2 C 14,6 C 27,4 km/h (4 Bft) 100,00 %
07.09.2016 11:38 19,0 C 85 % 1021,3 hPa 0,0 l/m 17,7 km/h (3 Bft) O-NO 65 2 min 0,000 mm 3,6 UV-I 648 W/m 16,4 C 15,4 C 25,7 km/h (4 Bft) 100,00 %
07.09.2016 11:40 19,1 C 84 % 1021,3 hPa 0,0 l/m 23,5 km/h (4 Bft) O 82 2 min 0,000 mm 3,7 UV-I 666 W/m 16,3 C 14,4 C 30,6 km/h (5 Bft) 100,00 %
07.09.2016 11:42 19,1 C 83 % 1021,2 hPa 0,0 l/m 26,3 km/h (4 Bft) O-NO 68 2 min 0,000 mm 3,7 UV-I 662 W/m 16,1 C 14,0 C 35,4 km/h (5 Bft) 100,00 %
07.09.2016 11:44 19,1 C 83 % 1021,3 hPa 0,0 l/m 22,7 km/h (4 Bft) O-NO 72 2 min 0,000 mm 3,7 UV-I 630 W/m 16,1 C 14,5 C 32,2 km/h (5 Bft) 95,83 %
07.09.2016 11:46 19,0 C 83 % 1021,2 hPa 0,0 l/m 23,9 km/h (4 Bft) O-NO 60 2 min 0,000 mm 3,7 UV-I 656 W/m 16,0 C 14,2 C 32,2 km/h (5 Bft) 100,00 %
07.09.2016 11:48 18,9 C 83 % 1021,2 hPa 0,0 l/m 21,7 km/h (4 Bft) NO 49 2 min 0,000 mm 3,7 UV-I 656 W/m 15,9 C 14,5 C 32,2 km/h (5 Bft) 100,00 %
07.09.2016 11:50 18,9 C 84 % 1021,2 hPa 0,0 l/m 21,2 km/h (4 Bft) O-NO 70 2 min 0,000 mm 3,8 UV-I 647 W/m 16,1 C 14,6 C 25,7 km/h (4 Bft) 97,92 %
07.09.2016 11:52 19,0 C 84 % 1021,1 hPa 0,0 l/m 20,6 km/h (4 Bft) O-NO 76 2 min 0,000 mm 3,8 UV-I 661 W/m 16,2 C 14,8 C 27,4 km/h (4 Bft) 97,87 %
07.09.2016 11:54 19,2 C 84 % 1021,2 hPa 0,0 l/m 19,4 km/h (3 Bft) O-NO 69 2 min 0,000 mm 3,8 UV-I 660 W/m 16,4 C 15,3 C 25,7 km/h (4 Bft) 97,87 %
07.09.2016 11:56 19,2 C 83 % 1021,2 hPa 0,0 l/m 19,3 km/h (3 Bft) O-NO 67 2 min 0,000 mm 3,9 UV-I 671 W/m 16,2 C 15,3 C 29,0 km/h (5 Bft) 95,74 %
07.09.2016 11:58 19,3 C 84 % 1021,2 hPa 0,0 l/m 21,1 km/h (4 Bft) O-NO 68 2 min 0,000 mm 3,9 UV-I 663 W/m 16,5 C 15,1 C 29,0 km/h (5 Bft) 97,87 %
07.09.2016 12:00 19,3 C 82 % 1021,2 hPa 0,0 l/m 21,7 km/h (4 Bft) NO 46 2 min 0,381 mm 3,9 UV-I 667 W/m 16,1 C 15,0 C 30,6 km/h (5 Bft) 95,74 %
07.09.2016 12:02 19,3 C 83 % 1021,1 hPa 0,0 l/m 23,2 km/h (4 Bft) O-NO 75 2 min 0,000 mm 3,9 UV-I 673 W/m 16,3 C 14,7 C 30,6 km/h (5 Bft) 97,87 %
07.09.2016 12:04 19,4 C 83 % 1021,0 hPa 0,0 l/m 24,8 km/h (4 Bft) O-NO 72 2 min 0,000 mm 4,0 UV-I 674 W/m 16,4 C 14,6 C 35,4 km/h (5 Bft) 93,62 %
07.09.2016 12:06 19,4 C 82 % 1020,9 hPa 0,0 l/m 24,6 km/h (4 Bft) O-NO 60 2 min 0,000 mm 4,0 UV-I 675 W/m 16,2 C 14,6 C 32,2 km/h (5 Bft) 95,74 %
07.09.2016 12:08 19,4 C 81 % 1021,0 hPa 0,0 l/m 25,4 km/h (4 Bft) NO 52 2 min 0,000 mm 4,0 UV-I 675 W/m 16,1 C 14,5 C 35,4 km/h (5 Bft) 97,87 %
07.09.2016 12:10 19,3 C 83 % 1021,0 hPa 0,0 l/m 23,6 km/h (4 Bft) O-NO 59 2 min 0,000 mm 4,0 UV-I 677 W/m 16,3 C 14,7 C 33,8 km/h (5 Bft) 97,87 %
07.09.2016 12:12 19,4 C 83 % 1021,0 hPa 0,0 l/m 26,5 km/h (4 Bft) NO 55 2 min 0,000 mm 4,0 UV-I 673 W/m 16,4 C 14,3 C 32,2 km/h (5 Bft) 97,87 %
07.09.2016 12:14 19,4 C 82 % 1020,9 hPa 0,0 l/m 23,9 km/h (4 Bft) NO 53 2 min 0,000 mm 4,0 UV-I 675 W/m 16,2 C 14,7 C 30,6 km/h (5 Bft) 97,87 %
07.09.2016 12:16 19,4 C 82 % 1020,9 hPa 0,0 l/m 21,8 km/h (4 Bft) O-NO 66 2 min 0,000 mm 4,0 UV-I 681 W/m 16,2 C 15,1 C 27,4 km/h (4 Bft) 95,74 %
07.09.2016 12:18 19,5 C 82 % 1020,9 hPa 0,0 l/m 22,8 km/h (4 Bft) NO 52 2 min 0,000 mm 4,1 UV-I 670 W/m 16,3 C 15,1 C 30,6 km/h (5 Bft) 97,87 %
07.09.2016 12:20 19,6 C 82 % 1020,9 hPa 0,0 l/m 22,2 km/h (4 Bft) NO 48 2 min 0,000 mm 4,1 UV-I 676 W/m 16,4 C 15,3 C 30,6 km/h (5 Bft) 97,37 %
07.09.2016 12:22 19,7 C 82 % 1020,8 hPa 0,0 l/m 23,6 km/h (4 Bft) O-NO 72 2 min 0,000 mm 4,1 UV-I 681 W/m 16,5 C 15,2 C 35,4 km/h (5 Bft) 100,00 %
07.09.2016 12:24 19,7 C 81 % 1020,8 hPa 0,0 l/m 26,1 km/h (4 Bft) O 84 2 min 0,000 mm 4,1 UV-I 672 W/m 16,3 C 14,8 C 35,4 km/h (5 Bft) 97,87 %
07.09.2016 12:26 19,7 C 82 % 1020,8 hPa 0,0 l/m 27,5 km/h (4 Bft) O-NO 74 2 min 0,000 mm 4,2 UV-I 685 W/m 16,5 C 14,6 C 35,4 km/h (5 Bft) 100,00 %
07.09.2016 12:28 19,8 C 81 % 1020,8 hPa 0,0 l/m 21,2 km/h (4 Bft) O-NO 64 2 min 0,000 mm 4,2 UV-I 686 W/m 16,4 C 15,7 C 35,4 km/h (5 Bft) 100,00 %
07.09.2016 12:30 19,9 C 81 % 1020,8 hPa 0,0 l/m 22,2 km/h (4 Bft) O-NO 77 2 min 0,000 mm 4,2 UV-I 688 W/m 16,5 C 15,7 C 30,6 km/h (5 Bft) 96,00 %
07.09.2016 12:32 20,0 C 81 % 1020,8 hPa 0,0 l/m 19,6 km/h (3 Bft) O-NO 57 2 min 0,000 mm 4,2 UV-I 688 W/m 16,6 C 16,3 C 30,6 km/h (5 Bft) 100,00 %
07.09.2016 12:34 20,1 C 81 % 1020,7 hPa 0,0 l/m 22,6 km/h (4 Bft) O 80 2 min 0,000 mm 4,3 UV-I 687 W/m 16,7 C 15,9 C 30,6 km/h (5 Bft) 100,00 %
07.09.2016 12:36 20,1 C 80 % 1020,7 hPa 0,0 l/m 23,5 km/h (4 Bft) N-NO 27 2 min 0,000 mm 4,3 UV-I 688 W/m 16,5 C 15,7 C 35,4 km/h (5 Bft) 100,00 %
07.09.2016 12:38 20,1 C 81 % 1020,7 hPa 0,0 l/m 25,9 km/h (4 Bft) O-NO 71 2 min 0,000 mm 4,3 UV-I 687 W/m 16,7 C 15,4 C 37,0 km/h (5 Bft) 100,00 %
07.09.2016 12:40 20,2 C 80 % 1020,6 hPa 0,0 l/m 26,2 km/h (4 Bft) O 80 2 min 0,000 mm 4,3 UV-I 691 W/m 16,6 C 15,5 C 35,4 km/h (5 Bft) 100,00 %
07.09.2016 12:42 20,2 C 80 % 1020,5 hPa 0,0 l/m 27,4 km/h (4 Bft) O-NO 63 2 min 0,000 mm 4,3 UV-I 694 W/m 16,6 C 15,3 C 37,0 km/h (5 Bft) 100,00 %
07.09.2016 12:44 20,3 C 81 % 1020,5 hPa 0,0 l/m 26,6 km/h (4 Bft) O-NO 74 2 min 0,000 mm 4,4 UV-I 694 W/m 16,9 C 15,6 C 35,4 km/h (5 Bft) 97,87 %
07.09.2016 12:46 20,3 C 80 % 1020,5 hPa 0,0 l/m 27,0 km/h (4 Bft) O-NO 78 2 min 0,000 mm 4,4 UV-I 695 W/m 16,7 C 15,5 C 37,0 km/h (5 Bft) 100,00 %
07.09.2016 12:48 20,4 C 80 % 1020,5 hPa 0,0 l/m 23,1 km/h (4 Bft) O-NO 71 2 min 0,000 mm 4,4 UV-I 693 W/m 16,8 C 16,2 C 32,2 km/h (5 Bft) 100,00 %
07.09.2016 12:50 20,5 C 80 % 1020,5 hPa 0,0 l/m 21,0 km/h (4 Bft) O-NO 77 2 min 0,000 mm 4,4 UV-I 693 W/m 16,9 C 16,7 C 32,2 km/h (5 Bft) 97,87 %
07.09.2016 12:52 20,6 C 80 % 1020,5 hPa 0,0 l/m 24,9 km/h (4 Bft) O-NO 74 2 min 0,000 mm 4,4 UV-I 695 W/m 17,0 C 16,2 C 30,6 km/h (5 Bft) 100,00 %
07.09.2016 12:54 20,7 C 80 % 1020,5 hPa 0,0 l/m 22,4 km/h (4 Bft) NO 40 2 min 0,000 mm 4,4 UV-I 691 W/m 17,1 C 16,7 C 30,6 km/h (5 Bft) 95,74 %
07.09.2016 12:56 20,7 C 80 % 1020,5 hPa 0,0 l/m 22,1 km/h (4 Bft) O-NO 71 2 min 0,000 mm 4,4 UV-I 689 W/m 17,1 C 16,8 C 30,6 km/h (5 Bft) 97,87 %
07.09.2016 12:58 20,7 C 79 % 1020,5 hPa 0,0 l/m 23,1 km/h (4 Bft) O-NO 67 2 min 0,000 mm 4,4 UV-I 689 W/m 16,9 C 16,6 C 30,6 km/h (5 Bft) 98,00 %
07.09.2016 13:00 20,7 C 80 % 1020,5 hPa 0,0 l/m 20,9 km/h (4 Bft) NO 53 2 min 0,457 mm 4,4 UV-I 690 W/m 17,1 C 17,0 C 29,0 km/h (5 Bft) 100,00 %
07.09.2016 13:02 20,7 C 79 % 1020,5 hPa 0,0 l/m 21,0 km/h (4 Bft) N-NO 30 2 min 0,000 mm 4,4 UV-I 690 W/m 16,9 C 16,9 C 30,6 km/h (5 Bft) 100,00 %
07.09.2016 13:04 20,8 C 80 % 1020,5 hPa 0,0 l/m 16,5 km/h (3 Bft) NO 44 2 min 0,000 mm 4,4 UV-I 688 W/m 17,2 C 17,9 C 24,1 km/h (4 Bft) 97,87 %
07.09.2016 13:06 20,8 C 80 % 1020,5 hPa 0,0 l/m 22,0 km/h (4 Bft) O-NO 59 2 min 0,000 mm 4,4 UV-I 693 W/m 17,2 C 16,9 C 29,0 km/h (5 Bft) 100,00 %
07.09.2016 13:08 20,8 C 80 % 1020,5 hPa 0,0 l/m 22,7 km/h (4 Bft) NO 43 2 min 0,000 mm 4,4 UV-I 692 W/m 17,2 C 16,8 C 32,2 km/h (5 Bft) 100,00 %
07.09.2016 13:10 20,9 C 80 % 1020,5 hPa 0,0 l/m 20,4 km/h (4 Bft) N-NO 28 2 min 0,000 mm 4,3 UV-I 685 W/m 17,3 C 17,3 C 27,4 km/h (4 Bft) 100,00 %
07.09.2016 13:12 21,0 C 80 % 1020,5 hPa 0,0 l/m 22,3 km/h (4 Bft) NO 54 2 min 0,000 mm 4,3 UV-I 688 W/m 17,4 C 17,1 C 30,6 km/h (5 Bft) 98,00 %
07.09.2016 13:14 20,9 C 78 % 1020,4 hPa 0,0 l/m 28,3 km/h (4 Bft) O-NO 59 2 min 0,000 mm 4,3 UV-I 688 W/m 16,9 C 16,2 C 37,0 km/h (5 Bft) 100,00 %
07.09.2016 13:16 20,8 C 79 % 1020,4 hPa 0,0 l/m 25,7 km/h (4 Bft) O-NO 60 2 min 0,000 mm 4,3 UV-I 692 W/m 17,0 C 16,4 C 35,4 km/h (5 Bft) 100,00 %
07.09.2016 13:18 20,7 C 79 % 1020,4 hPa 0,0 l/m 23,5 km/h (4 Bft) NO 52 2 min 0,000 mm 4,4 UV-I 695 W/m 16,9 C 16,5 C 37,0 km/h (5 Bft) 100,00 %
07.09.2016 13:20 20,8 C 80 % 1020,4 hPa 0,0 l/m 17,6 km/h (3 Bft) N-NO 26 2 min 0,000 mm 4,3 UV-I 692 W/m 17,2 C 17,7 C 33,8 km/h (5 Bft) 98,00 %
07.09.2016 13:22 20,9 C 78 % 1020,4 hPa 0,0 l/m 23,0 km/h (4 Bft) NO 42 2 min 0,000 mm 4,3 UV-I 694 W/m 16,9 C 16,9 C 32,2 km/h (5 Bft) 100,00 %
07.09.2016 13:24 20,9 C 78 % 1020,3 hPa 0,0 l/m 23,4 km/h (4 Bft) O 82 2 min 0,000 mm 4,3 UV-I 692 W/m 16,9 C 16,8 C 30,6 km/h (5 Bft) 100,00 %
07.09.2016 13:26 20,9 C 79 % 1020,3 hPa 0,0 l/m 23,3 km/h (4 Bft) O-NO 57 2 min 0,000 mm 4,3 UV-I 691 W/m 17,1 C 16,8 C 30,6 km/h (5 Bft) 97,37 %
07.09.2016 13:28 21,0 C 77 % 1020,3 hPa 0,0 l/m 23,7 km/h (4 Bft) O 84 2 min 0,000 mm 4,3 UV-I 694 W/m 16,8 C 16,9 C 37,0 km/h (5 Bft) 100,00 %
07.09.2016 13:30 21,1 C 78 % 1020,3 hPa 0,0 l/m 20,7 km/h (4 Bft) O 80 2 min 0,000 mm 4,3 UV-I 694 W/m 17,1 C 17,5 C 32,2 km/h (5 Bft) 97,87 %
07.09.2016 13:32 21,2 C 78 % 1020,3 hPa 0,0 l/m 20,2 km/h (4 Bft) O-NO 57 2 min 0,000 mm 4,3 UV-I 692 W/m 17,2 C 17,7 C 25,7 km/h (4 Bft) 97,87 %
07.09.2016 13:34 21,2 C 79 % 1020,3 hPa 0,0 l/m 18,0 km/h (3 Bft) O-NO 70 2 min 0,000 mm 4,3 UV-I 690 W/m 17,4 C 18,1 C 25,7 km/h (4 Bft) 97,87 %
07.09.2016 13:36 21,4 C 80 % 1020,3 hPa 0,0 l/m 14,0 km/h (3 Bft) NO 53 2 min 0,000 mm 4,3 UV-I 688 W/m 17,8 C 19,2 C 25,7 km/h (4 Bft) 100,00 %
07.09.2016 13:38 21,6 C 78 % 1020,3 hPa 0,0 l/m 20,7 km/h (4 Bft) O-NO 71 2 min 0,000 mm 4,3 UV-I 686 W/m 17,6 C 18,2 C 27,4 km/h (4 Bft) 97,96 %
07.09.2016 13:40 21,5 C 76 % 1020,3 hPa 0,0 l/m 21,4 km/h (4 Bft) O-NO 60 2 min 0,000 mm 4,2 UV-I 686 W/m 17,1 C 17,9 C 29,0 km/h (5 Bft) 98,00 %
07.09.2016 13:42 21,4 C 78 % 1020,3 hPa 0,0 l/m 17,8 km/h (3 Bft) NO 51 2 min 0,000 mm 4,2 UV-I 683 W/m 17,4 C 18,4 C 25,7 km/h (4 Bft) 97,87 %
07.09.2016 13:44 21,5 C 77 % 1020,2 hPa 0,0 l/m 23,3 km/h (4 Bft) O-NO 59 2 min 0,000 mm 4,2 UV-I 684 W/m 17,3 C 17,6 C 30,6 km/h (5 Bft) 96,00 %
07.09.2016 13:46 21,5 C 77 % 1020,1 hPa 0,0 l/m 21,3 km/h (4 Bft) O 86 2 min 0,000 mm 4,2 UV-I 684 W/m 17,3 C 17,9 C 29,0 km/h (5 Bft) 95,74 %
07.09.2016 13:48 21,5 C 77 % 1020,0 hPa 0,0 l/m 18,6 km/h (3 Bft) NO 41 2 min 0,000 mm 4,2 UV-I 683 W/m 17,3 C 18,4 C 27,4 km/h (4 Bft) 100,00 %
07.09.2016 13:50 21,6 C 78 % 1020,1 hPa 0,0 l/m 20,8 km/h (4 Bft) O-NO 59 2 min 0,000 mm 4,2 UV-I 676 W/m 17,6 C 18,1 C 27,4 km/h (4 Bft) 95,74 %
07.09.2016 13:52 21,6 C 78 % 1020,1 hPa 0,0 l/m 19,8 km/h (3 Bft) O-NO 76 2 min 0,000 mm 4,1 UV-I 676 W/m 17,6 C 18,3 C 25,7 km/h (4 Bft) 97,87 %
07.09.2016 13:54 21,6 C 78 % 1020,0 hPa 0,0 l/m 22,4 km/h (4 Bft) O-NO 60 2 min 0,000 mm 4,1 UV-I 669 W/m 17,6 C 17,9 C 33,8 km/h (5 Bft) 95,74 %
07.09.2016 13:56 21,6 C 78 % 1020,0 hPa 0,0 l/m 22,2 km/h (4 Bft) NO 40 2 min 0,000 mm 4,1 UV-I 671 W/m 17,6 C 17,9 C 32,2 km/h (5 Bft) 98,00 %
07.09.2016 13:58 21,6 C 78 % 1020,0 hPa 0,0 l/m 22,0 km/h (4 Bft) NO 51 2 min 0,000 mm 4,0 UV-I 670 W/m 17,6 C 18,0 C 30,6 km/h (5 Bft) 95,74 %
07.09.2016 14:00 21,6 C 78 % 1020,0 hPa 0,0 l/m 20,8 km/h (4 Bft) O-NO 73 2 min 0,457 mm 4,0 UV-I 669 W/m 17,6 C 18,1 C 32,2 km/h (5 Bft) 97,87 %
07.09.2016 14:02 21,6 C 78 % 1020,0 hPa 0,0 l/m 21,0 km/h (4 Bft) NO 39 2 min 0,000 mm 4,0 UV-I 670 W/m 17,6 C 18,1 C 29,0 km/h (5 Bft) 95,74 %
07.09.2016 14:04 21,7 C 79 % 1020,0 hPa 0,0 l/m 18,9 km/h (3 Bft) NO 41 2 min 0,000 mm 4,0 UV-I 669 W/m 17,9 C 18,6 C 30,6 km/h (5 Bft) 95,74 %
07.09.2016 14:06 21,8 C 78 % 1020,0 hPa 0,0 l/m 19,5 km/h (3 Bft) N-NO 32 2 min 0,000 mm 4,0 UV-I 668 W/m 17,8 C 18,6 C 30,6 km/h (5 Bft) 91,49 %
07.09.2016 14:08 21,8 C 77 % 1019,9 hPa 0,0 l/m 22,7 km/h (4 Bft) O-NO 66 2 min 0,000 mm 4,0 UV-I 670 W/m 17,6 C 18,1 C 30,6 km/h (5 Bft) 97,87 %
07.09.2016 14:10 21,8 C 78 % 1019,9 hPa 0,0 l/m 20,2 km/h (4 Bft) NO 36 2 min 0,000 mm 4,0 UV-I 666 W/m 17,8 C 18,5 C 30,6 km/h (5 Bft) 95,74 %
07.09.2016 14:12 21,8 C 77 % 1019,8 hPa 0,0 l/m 22,9 km/h (4 Bft) NO 53 2 min 0,000 mm 3,9 UV-I 665 W/m 17,6 C 18,1 C 33,8 km/h (5 Bft) 100,00 %
07.09.2016 14:14 21,8 C 77 % 1019,8 hPa 0,0 l/m 26,3 km/h (4 Bft) O-NO 61 2 min 0,000 mm 3,9 UV-I 663 W/m 17,6 C 17,7 C 33,8 km/h (5 Bft) 97,87 %
07.09.2016 14:16 21,8 C 77 % 1019,8 hPa 0,0 l/m 20,3 km/h (4 Bft) O-NO 64 2 min 0,000 mm 3,9 UV-I 663 W/m 17,6 C 18,5 C 30,6 km/h (5 Bft) 95,74 %
07.09.2016 14:18 21,8 C 77 % 1019,7 hPa 0,0 l/m 25,0 km/h (4 Bft) O-NO 59 2 min 0,000 mm 3,9 UV-I 662 W/m 17,6 C 17,8 C 35,4 km/h (5 Bft) 97,87 %
07.09.2016 14:20 21,8 C 77 % 1019,7 hPa 0,0 l/m 23,0 km/h (4 Bft) O 80 2 min 0,000 mm 3,8 UV-I 659 W/m 17,6 C 18,1 C 30,6 km/h (5 Bft) 100,00 %
07.09.2016 14:22 21,9 C 77 % 1019,7 hPa 0,0 l/m 25,9 km/h (4 Bft) O-NO 61 2 min 0,000 mm 3,8 UV-I 655 W/m 17,7 C 17,8 C 37,0 km/h (5 Bft) 100,00 %
07.09.2016 14:24 21,9 C 77 % 1019,8 hPa 0,0 l/m 24,6 km/h (4 Bft) NO 56 2 min 0,000 mm 3,8 UV-I 654 W/m 17,7 C 18,0 C 33,8 km/h (5 Bft) 97,87 %
07.09.2016 14:26 21,9 C 77 % 1019,7 hPa 0,0 l/m 24,4 km/h (4 Bft) O-NO 57 2 min 0,000 mm 3,7 UV-I 650 W/m 17,7 C 18,0 C 32,2 km/h (5 Bft) 100,00 %
07.09.2016 14:28 21,9 C 77 % 1019,6 hPa 0,0 l/m 23,0 km/h (4 Bft) NO 44 2 min 0,000 mm 3,7 UV-I 650 W/m 17,7 C 18,2 C 32,2 km/h (5 Bft) 100,00 %
07.09.2016 14:30 21,9 C 77 % 1019,6 hPa 0,0 l/m 22,3 km/h (4 Bft) N-NO 25 2 min 0,000 mm 3,7 UV-I 646 W/m 17,7 C 18,3 C 32,2 km/h (5 Bft) 100,00 %
07.09.2016 14:32 22,1 C 78 % 1019,6 hPa 0,0 l/m 20,5 km/h (4 Bft) NO 45 2 min 0,000 mm 3,6 UV-I 642 W/m 18,1 C 18,8 C 29,0 km/h (5 Bft) 100,00 %
07.09.2016 14:34 22,2 C 77 % 1019,6 hPa 0,0 l/m 22,6 km/h (4 Bft) O-NO 63 2 min 0,000 mm 3,6 UV-I 642 W/m 18,0 C 18,7 C 32,2 km/h (5 Bft) 100,00 %
07.09.2016 14:36 22,2 C 76 % 1019,6 hPa 0,0 l/m 26,5 km/h (4 Bft) O-NO 65 2 min 0,000 mm 3,6 UV-I 638 W/m 17,8 C 18,2 C 37,0 km/h (5 Bft) 100,00 %
07.09.2016 14:38 22,1 C 76 % 1019,5 hPa 0,0 l/m 22,4 km/h (4 Bft) O 80 2 min 0,000 mm 3,6 UV-I 633 W/m 17,7 C 18,6 C 32,2 km/h (5 Bft) 100,00 %
07.09.2016 14:40 22,2 C 76 % 1019,5 hPa 0,0 l/m 23,5 km/h (4 Bft) O-NO 67 2 min 0,000 mm 3,5 UV-I 629 W/m 17,8 C 18,6 C 33,8 km/h (5 Bft) 100,00 %
07.09.2016 14:42 22,1 C 75 % 1019,5 hPa 0,0 l/m 27,4 km/h (4 Bft) NO 43 2 min 0,000 mm 3,5 UV-I 630 W/m 17,5 C 17,9 C 38,6 km/h (5 Bft) 96,00 %
07.09.2016 14:44 22,2 C 77 % 1019,5 hPa 0,0 l/m 25,5 km/h (4 Bft) O-NO 67 2 min 0,000 mm 3,5 UV-I 630 W/m 18,0 C 18,3 C 35,4 km/h (5 Bft) 100,00 %
07.09.2016 14:46 22,2 C 76 % 1019,4 hPa 0,0 l/m 27,6 km/h (4 Bft) O-NO 68 2 min 0,000 mm 3,4 UV-I 626 W/m 17,8 C 18,1 C 37,0 km/h (5 Bft) 100,00 %
07.09.2016 14:48 22,2 C 76 % 1019,4 hPa 0,0 l/m 24,0 km/h (4 Bft) NO 51 2 min 0,000 mm 3,4 UV-I 621 W/m 17,8 C 18,5 C 33,8 km/h (5 Bft) 97,87 %
07.09.2016 14:50 22,3 C 76 % 1019,4 hPa 0,0 l/m 26,1 km/h (4 Bft) O-NO 58 2 min 0,000 mm 3,3 UV-I 620 W/m 17,9 C 18,4 C 40,2 km/h (6 Bft) 97,87 %
07.09.2016 14:52 22,3 C 75 % 1019,4 hPa 0,0 l/m 24,8 km/h (4 Bft) O 97 2 min 0,000 mm 3,3 UV-I 618 W/m 17,6 C 18,5 C 32,2 km/h (5 Bft) 100,00 %
07.09.2016 14:54 22,3 C 77 % 1019,3 hPa 0,0 l/m 21,5 km/h (4 Bft) O-NO 69 2 min 0,000 mm 3,3 UV-I 614 W/m 18,1 C 19,0 C 29,0 km/h (5 Bft) 100,00 %
07.09.2016 14:56 22,4 C 76 % 1019,4 hPa 0,0 l/m 25,1 km/h (4 Bft) O-NO 59 2 min 0,000 mm 3,3 UV-I 612 W/m 18,0 C 18,6 C 33,8 km/h (5 Bft) 97,87 %
07.09.2016 14:58 22,5 C 76 % 1019,4 hPa 0,0 l/m 22,1 km/h (4 Bft) O-NO 57 2 min 0,000 mm 3,2 UV-I 606 W/m 18,0 C 19,1 C 37,0 km/h (5 Bft) 97,87 %
07.09.2016 15:00 22,5 C 76 % 1019,4 hPa 0,0 l/m 22,7 km/h (4 Bft) NO 38 2 min 0,000 mm 3,2 UV-I 602 W/m 18,0 C 19,1 C 29,0 km/h (5 Bft) 100,00 %
07.09.2016 15:02 22,6 C 75 % 1019,4 hPa 0,0 l/m 25,5 km/h (4 Bft) NO 49 2 min 0,457 mm 3,1 UV-I 601 W/m 17,9 C 18,8 C 33,8 km/h (5 Bft) 97,87 %
07.09.2016 15:04 22,5 C 75 % 1019,4 hPa 0,0 l/m 25,6 km/h (4 Bft) O-NO 68 2 min 0,000 mm 3,1 UV-I 596 W/m 17,8 C 18,7 C 33,8 km/h (5 Bft) 100,00 %
07.09.2016 15:06 22,5 C 75 % 1019,4 hPa 0,0 l/m 26,3 km/h (4 Bft) O-NO 76 2 min 0,000 mm 3,1 UV-I 588 W/m 17,8 C 18,6 C 38,6 km/h (5 Bft) 100,00 %
07.09.2016 15:08 22,5 C 75 % 1019,4 hPa 0,0 l/m 23,2 km/h (4 Bft) NO 40 2 min 0,000 mm 3,0 UV-I 572 W/m 17,8 C 19,0 C 32,2 km/h (5 Bft) 100,00 %
07.09.2016 15:10 22,5 C 76 % 1019,4 hPa 0,0 l/m 22,3 km/h (4 Bft) O-NO 76 2 min 0,000 mm 3,0 UV-I 586 W/m 18,0 C 19,1 C 37,0 km/h (5 Bft) 97,87 %
07.09.2016 15:12 22,6 C 76 % 1019,4 hPa 0,0 l/m 24,8 km/h (4 Bft) O-NO 64 2 min 0,000 mm 3,0 UV-I 582 W/m 18,1 C 18,9 C 33,8 km/h (5 Bft) 97,87 %
07.09.2016 15:14 22,7 C 75 % 1019,4 hPa 0,0 l/m 24,2 km/h (4 Bft) O-NO 65 2 min 0,000 mm 2,9 UV-I 579 W/m 18,0 C 19,1 C 32,2 km/h (5 Bft) 100,00 %
07.09.2016 15:16 22,6 C 75 % 1019,3 hPa 0,0 l/m 26,7 km/h (4 Bft) O-NO 63 2 min 0,000 mm 2,9 UV-I 576 W/m 17,9 C 18,7 C 38,6 km/h (5 Bft) 100,00 %
07.09.2016 15:18 22,6 C 75 % 1019,3 hPa 0,0 l/m 23,3 km/h (4 Bft) O-NO 60 2 min 0,000 mm 2,9 UV-I 572 W/m 17,9 C 19,1 C 32,2 km/h (5 Bft) 97,87 %
07.09.2016 15:20 22,6 C 75 % 1019,3 hPa 0,0 l/m 22,9 km/h (4 Bft) O-NO 60 2 min 0,000 mm 2,8 UV-I 568 W/m 17,9 C 19,2 C 30,6 km/h (5 Bft) 100,00 %
07.09.2016 15:22 22,7 C 75 % 1019,3 hPa 0,0 l/m 24,4 km/h (4 Bft) NO 46 2 min 0,000 mm 2,8 UV-I 563 W/m 18,0 C 19,1 C 35,4 km/h (5 Bft) 100,00 %
07.09.2016 15:24 22,7 C 74 % 1019,3 hPa 0,0 l/m 28,4 km/h (4 Bft) NO 54 2 min 0,000 mm 2,7 UV-I 560 W/m 17,8 C 18,7 C 38,6 km/h (5 Bft) 100,00 %
07.09.2016 15:26 22,8 C 74 % 1019,3 hPa 0,0 l/m 27,0 km/h (4 Bft) O-NO 62 2 min 0,000 mm 2,7 UV-I 558 W/m 17,9 C 19,0 C 35,4 km/h (5 Bft) 100,00 %
07.09.2016 15:28 22,8 C 74 % 1019,2 hPa 0,0 l/m 28,5 km/h (4 Bft) O-NO 58 2 min 0,000 mm 2,7 UV-I 553 W/m 17,9 C 18,8 C 37,0 km/h (5 Bft) 100,00 %
07.09.2016 15:30 22,8 C 74 % 1019,2 hPa 0,0 l/m 27,8 km/h (4 Bft) NO 53 2 min 0,000 mm 2,6 UV-I 548 W/m 17,9 C 18,9 C 40,2 km/h (6 Bft) 97,87 %
07.09.2016 15:32 22,8 C 74 % 1019,1 hPa 0,0 l/m 23,3 km/h (4 Bft) O-NO 59 2 min 0,000 mm 2,6 UV-I 546 W/m 17,9 C 19,4 C 33,8 km/h (5 Bft) 100,00 %
07.09.2016 15:34 22,8 C 74 % 1019,1 hPa 0,0 l/m 22,5 km/h (4 Bft) NO 55 2 min 0,000 mm 2,6 UV-I 543 W/m 17,9 C 19,5 C 32,2 km/h (5 Bft) 95,74 %
07.09.2016 15:36 22,8 C 73 % 1019,1 hPa 0,0 l/m 26,3 km/h (4 Bft) O-NO 77 2 min 0,000 mm 2,5 UV-I 537 W/m 17,7 C 19,0 C 38,6 km/h (5 Bft) 95,74 %
07.09.2016 15:38 22,8 C 74 % 1019,0 hPa 0,0 l/m 27,1 km/h (4 Bft) O-NO 76 2 min 0,000 mm 2,5 UV-I 534 W/m 17,9 C 18,9 C 35,4 km/h (5 Bft) 96,00 %
07.09.2016 15:40 22,8 C 73 % 1019,0 hPa 0,0 l/m 25,7 km/h (4 Bft) O-NO 72 2 min 0,000 mm 2,4 UV-I 529 W/m 17,7 C 19,1 C 38,6 km/h (5 Bft) 95,74 %
07.09.2016 15:42 22,8 C 73 % 1019,0 hPa 0,0 l/m 23,7 km/h (4 Bft) O-NO 60 2 min 0,000 mm 2,4 UV-I 527 W/m 17,7 C 19,3 C 35,4 km/h (5 Bft) 97,87 %
07.09.2016 15:44 22,8 C 75 % 1018,9 hPa 0,0 l/m 24,6 km/h (4 Bft) NO 54 2 min 0,000 mm 2,4 UV-I 523 W/m 18,1 C 19,2 C 32,2 km/h (5 Bft) 96,00 %
07.09.2016 15:46 22,8 C 75 % 1018,9 hPa 0,0 l/m 22,2 km/h (4 Bft) O-NO 61 2 min 0,000 mm 2,3 UV-I 519 W/m 18,1 C 19,5 C 30,6 km/h (5 Bft) 97,87 %
07.09.2016 15:48 22,9 C 74 % 1018,9 hPa 0,0 l/m 23,1 km/h (4 Bft) O-NO 57 2 min 0,000 mm 2,3 UV-I 516 W/m 18,0 C 19,5 C 29,0 km/h (5 Bft) 95,83 %
07.09.2016 15:50 22,9 C 75 % 1018,9 hPa 0,0 l/m 18,1 km/h (3 Bft) NO 43 2 min 0,000 mm 2,3 UV-I 513 W/m 18,2 C 20,2 C 27,4 km/h (4 Bft) 97,87 %
07.09.2016 15:52 23,0 C 75 % 1018,9 hPa 0,0 l/m 18,7 km/h (3 Bft) O-NO 66 2 min 0,000 mm 2,2 UV-I 507 W/m 18,3 C 20,3 C 27,4 km/h (4 Bft) 97,37 %
07.09.2016 15:54 23,1 C 76 % 1018,8 hPa 0,0 l/m 12,3 km/h (3 Bft) O-NO 75 2 min 0,000 mm 2,2 UV-I 502 W/m 18,6 C 21,5 C 19,3 km/h (3 Bft) 98,00 %
07.09.2016 15:56 23,2 C 76 % 1018,8 hPa 0,0 l/m 16,3 km/h (3 Bft) O-NO 75 2 min 0,000 mm 2,2 UV-I 498 W/m 18,7 C 20,9 C 25,7 km/h (4 Bft) 97,87 %
07.09.2016 15:58 23,3 C 75 % 1018,7 hPa 0,0 l/m 21,2 km/h (4 Bft) NO 53 2 min 0,000 mm 2,1 UV-I 492 W/m 18,6 C 20,3 C 30,6 km/h (5 Bft) 97,87 %
07.09.2016 16:00 23,2 C 75 % 1018,7 hPa 0,0 l/m 19,7 km/h (3 Bft) O-NO 57 2 min 0,000 mm 2,1 UV-I 490 W/m 18,5 C 20,4 C 29,0 km/h (5 Bft) 97,87 %
07.09.2016 16:02 23,2 C 75 % 1018,7 hPa 0,0 l/m 18,4 km/h (3 Bft) O-NO 69 2 min 0,407 mm 2,1 UV-I 489 W/m 18,5 C 20,6 C 27,4 km/h (4 Bft) 93,62 %
07.09.2016 16:04 23,2 C 75 % 1018,7 hPa 0,0 l/m 18,5 km/h (3 Bft) O-NO 69 2 min 0,000 mm 2,0 UV-I 484 W/m 18,5 C 20,6 C 27,4 km/h (4 Bft) 97,87 %
07.09.2016 16:06 23,2 C 74 % 1018,7 hPa 0,0 l/m 26,4 km/h (4 Bft) O-SO 103 2 min 0,000 mm 2,0 UV-I 478 W/m 18,3 C 19,6 C 33,8 km/h (5 Bft) 93,62 %
07.09.2016 16:08 23,2 C 74 % 1018,6 hPa 0,0 l/m 24,3 km/h (4 Bft) O-NO 68 2 min 0,000 mm 1,9 UV-I 476 W/m 18,3 C 19,8 C 32,2 km/h (5 Bft) 97,87 %
07.09.2016 16:10 23,2 C 74 % 1018,6 hPa 0,0 l/m 23,2 km/h (4 Bft) NO 43 2 min 0,000 mm 1,9 UV-I 470 W/m 18,3 C 19,9 C 30,6 km/h (5 Bft) 100,00 %
07.09.2016 16:12 23,2 C 75 % 1018,7 hPa 0,0 l/m 21,4 km/h (4 Bft) O-NO 71 2 min 0,000 mm 1,9 UV-I 465 W/m 18,5 C 20,2 C 29,0 km/h (5 Bft) 97,87 %
07.09.2016 16:14 23,2 C 74 % 1018,6 hPa 0,0 l/m 24,3 km/h (4 Bft) NO 56 2 min 0,000 mm 1,8 UV-I 459 W/m 18,3 C 19,8 C 32,2 km/h (5 Bft) 100,00 %
07.09.2016 16:16 23,2 C 75 % 1018,5 hPa 0,0 l/m 20,5 km/h (4 Bft) O-NO 76 2 min 0,000 mm 1,8 UV-I 452 W/m 18,5 C 20,3 C 29,0 km/h (5 Bft) 100,00 %
07.09.2016 16:18 23,2 C 75 % 1018,5 hPa 0,0 l/m 21,6 km/h (4 Bft) O-NO 69 2 min 0,000 mm 1,7 UV-I 447 W/m 18,5 C 20,1 C 30,6 km/h (5 Bft) 97,87 %
07.09.2016 16:20 23,2 C 75 % 1018,5 hPa 0,0 l/m 19,9 km/h (4 Bft) O-NO 61 2 min 0,000 mm 1,7 UV-I 444 W/m 18,5 C 20,4 C 27,4 km/h (4 Bft) 97,87 %
07.09.2016 16:22 23,2 C 75 % 1018,5 hPa 0,0 l/m 20,2 km/h (4 Bft) O-NO 57 2 min 0,000 mm 1,7 UV-I 440 W/m 18,5 C 20,3 C 29,0 km/h (5 Bft) 100,00 %
07.09.2016 16:24 23,2 C 75 % 1018,5 hPa 0,0 l/m 19,1 km/h (3 Bft) O-NO 61 2 min 0,000 mm 1,6 UV-I 436 W/m 18,5 C 20,5 C 27,4 km/h (4 Bft) 100,00 %
07.09.2016 16:26 23,3 C 75 % 1018,5 hPa 0,0 l/m 17,9 km/h (3 Bft) O-NO 65 2 min 0,000 mm 1,6 UV-I 433 W/m 18,6 C 20,8 C 25,7 km/h (4 Bft) 100,00 %
07.09.2016 16:28 23,3 C 74 % 1018,5 hPa 0,0 l/m 19,7 km/h (3 Bft) O-NO 74 2 min 0,000 mm 1,6 UV-I 428 W/m 18,4 C 20,5 C 27,4 km/h (4 Bft) 100,00 %
07.09.2016 16:30 23,3 C 75 % 1018,4 hPa 0,0 l/m 21,4 km/h (4 Bft) O-NO 58 2 min 0,000 mm 1,5 UV-I 422 W/m 18,6 C 20,3 C 27,4 km/h (4 Bft) 100,00 %
07.09.2016 16:32 23,3 C 76 % 1018,4 hPa 0,0 l/m 18,7 km/h (3 Bft) O-NO 71 2 min 0,000 mm 1,5 UV-I 416 W/m 18,8 C 20,7 C 27,4 km/h (4 Bft) 100,00 %
07.09.2016 16:34 23,3 C 76 % 1018,4 hPa 0,0 l/m 17,3 km/h (3 Bft) NO 47 2 min 0,000 mm 1,5 UV-I 409 W/m 18,8 C 20,9 C 22,5 km/h (4 Bft) 100,00 %
07.09.2016 16:36 23,3 C 76 % 1018,4 hPa 0,0 l/m 20,1 km/h (4 Bft) NO 35 2 min 0,000 mm 1,4 UV-I 406 W/m 18,8 C 20,5 C 27,4 km/h (4 Bft) 100,00 %
07.09.2016 16:38 23,3 C 76 % 1018,4 hPa 0,0 l/m 17,1 km/h (3 Bft) O-NO 60 2 min 0,000 mm 1,4 UV-I 396 W/m 18,8 C 20,9 C 22,5 km/h (4 Bft) 100,00 %
07.09.2016 16:40 23,3 C 75 % 1018,4 hPa 0,0 l/m 21,0 km/h (4 Bft) NO 39 2 min 0,000 mm 1,4 UV-I 394 W/m 18,6 C 20,3 C 27,4 km/h (4 Bft) 100,00 %
07.09.2016 16:42 23,3 C 76 % 1018,4 hPa 0,0 l/m 16,7 km/h (3 Bft) O-NO 76 2 min 0,000 mm 1,3 UV-I 388 W/m 18,8 C 21,0 C 24,1 km/h (4 Bft) 100,00 %
07.09.2016 16:44 23,3 C 77 % 1018,3 hPa 0,0 l/m 15,0 km/h (3 Bft) O-NO 71 2 min 0,000 mm 1,3 UV-I 382 W/m 19,0 C 21,2 C 25,7 km/h (4 Bft) 100,00 %
07.09.2016 16:46 23,3 C 76 % 1018,4 hPa 0,0 l/m 18,6 km/h (3 Bft) NO 44 2 min 0,000 mm 1,3 UV-I 377 W/m 18,8 C 20,7 C 27,4 km/h (4 Bft) 97,87 %
07.09.2016 16:48 23,3 C 74 % 1018,4 hPa 0,0 l/m 24,3 km/h (4 Bft) O-NO 65 2 min 0,000 mm 1,2 UV-I 374 W/m 18,4 C 19,9 C 33,8 km/h (5 Bft) 100,00 %
07.09.2016 16:50 23,3 C 74 % 1018,3 hPa 0,0 l/m 22,5 km/h (4 Bft) O-NO 74 2 min 0,000 mm 1,2 UV-I 368 W/m 18,4 C 20,1 C 30,6 km/h (5 Bft) 100,00 %
07.09.2016 16:52 23,3 C 75 % 1018,3 hPa 0,0 l/m 23,6 km/h (4 Bft) O-NO 76 2 min 0,000 mm 1,2 UV-I 363 W/m 18,6 C 20,0 C 32,2 km/h (5 Bft) 100,00 %
07.09.2016 16:54 23,3 C 76 % 1018,3 hPa 0,0 l/m 21,9 km/h (4 Bft) O-NO 58 2 min 0,000 mm 1,2 UV-I 359 W/m 18,8 C 20,2 C 32,2 km/h (5 Bft) 100,00 %
07.09.2016 16:56 23,3 C 76 % 1018,3 hPa 0,0 l/m 19,3 km/h (3 Bft) NO 55 2 min 0,000 mm 1,1 UV-I 353 W/m 18,8 C 20,6 C 25,7 km/h (4 Bft) 100,00 %
07.09.2016 16:58 23,3 C 76 % 1018,3 hPa 0,0 l/m 21,1 km/h (4 Bft) O-NO 59 2 min 0,000 mm 1,1 UV-I 347 W/m 18,8 C 20,3 C 27,4 km/h (4 Bft) 97,87 %
07.09.2016 17:00 23,3 C 76 % 1018,4 hPa 0,0 l/m 17,3 km/h (3 Bft) NO 55 2 min 0,330 mm 1,1 UV-I 342 W/m 18,8 C 20,9 C 25,7 km/h (4 Bft) 100,00 %
07.09.2016 17:02 23,3 C 75 % 1018,4 hPa 0,0 l/m 18,7 km/h (3 Bft) O-NO 66 2 min 0,000 mm 1,0 UV-I 335 W/m 18,6 C 20,7 C 27,4 km/h (4 Bft) 98,00 %
07.09.2016 17:04 23,3 C 75 % 1018,4 hPa 0,0 l/m 20,1 km/h (4 Bft) O-NO 58 2 min 0,000 mm 1,0 UV-I 329 W/m 18,6 C 20,5 C 32,2 km/h (5 Bft) 97,87 %
07.09.2016 17:06 23,3 C 75 % 1018,3 hPa 0,0 l/m 23,3 km/h (4 Bft) O-NO 73 2 min 0,000 mm 1,0 UV-I 325 W/m 18,6 C 20,0 C 30,6 km/h (5 Bft) 100,00 %
07.09.2016 17:08 23,2 C 75 % 1018,3 hPa 0,0 l/m 23,9 km/h (4 Bft) O 80 2 min 0,000 mm 0,9 UV-I 318 W/m 18,5 C 19,8 C 35,4 km/h (5 Bft) 100,00 %
07.09.2016 17:10 23,2 C 75 % 1018,3 hPa 0,0 l/m 21,5 km/h (4 Bft) O-NO 65 2 min 0,000 mm 0,9 UV-I 314 W/m 18,5 C 20,1 C 29,0 km/h (5 Bft) 100,00 %
07.09.2016 17:12 23,2 C 76 % 1018,3 hPa 0,0 l/m 23,2 km/h (4 Bft) O-NO 60 2 min 0,000 mm 0,9 UV-I 310 W/m 18,7 C 19,9 C 33,8 km/h (5 Bft) 100,00 %
07.09.2016 17:14 23,1 C 76 % 1018,2 hPa 0,0 l/m 19,5 km/h (3 Bft) NO 56 2 min 0,000 mm 0,9 UV-I 304 W/m 18,6 C 20,3 C 32,2 km/h (5 Bft) 100,00 %
07.09.2016 17:16 23,1 C 77 % 1018,2 hPa 0,0 l/m 18,5 km/h (3 Bft) NO 56 2 min 0,000 mm 0,8 UV-I 299 W/m 18,8 C 20,4 C 27,4 km/h (4 Bft) 97,87 %
07.09.2016 17:18 23,2 C 77 % 1018,2 hPa 0,0 l/m 15,4 km/h (3 Bft) O-NO 71 2 min 0,000 mm 0,8 UV-I 293 W/m 18,9 C 21,1 C 22,5 km/h (4 Bft) 100,00 %
07.09.2016 17:20 23,2 C 77 % 1018,2 hPa 0,0 l/m 19,0 km/h (3 Bft) O-NO 72 2 min 0,000 mm 0,8 UV-I 287 W/m 18,9 C 20,5 C 30,6 km/h (5 Bft) 97,37 %
07.09.2016 17:22 23,1 C 76 % 1018,1 hPa 0,0 l/m 23,2 km/h (4 Bft) O-NO 74 2 min 0,000 mm 0,8 UV-I 281 W/m 18,6 C 19,8 C 33,8 km/h (5 Bft) 100,00 %
07.09.2016 17:24 23,1 C 76 % 1018,0 hPa 0,0 l/m 19,0 km/h (3 Bft) O-NO 70 2 min 0,000 mm 0,7 UV-I 278 W/m 18,6 C 20,4 C 30,6 km/h (5 Bft) 100,00 %
07.09.2016 17:26 23,1 C 76 % 1018,0 hPa 0,0 l/m 19,9 km/h (4 Bft) O-NO 62 2 min 0,000 mm 0,7 UV-I 271 W/m 18,6 C 20,2 C 27,4 km/h (4 Bft) 97,87 %
07.09.2016 17:28 23,1 C 75 % 1018,0 hPa 0,0 l/m 20,8 km/h (4 Bft) O-NO 61 2 min 0,000 mm 0,7 UV-I 265 W/m 18,4 C 20,1 C 27,4 km/h (4 Bft) 97,87 %
07.09.2016 17:30 23,1 C 75 % 1017,9 hPa 0,0 l/m 24,1 km/h (4 Bft) NO 53 2 min 0,000 mm 0,7 UV-I 262 W/m 18,4 C 19,7 C 30,6 km/h (5 Bft) 97,37 %
07.09.2016 17:32 23,1 C 76 % 1018,0 hPa 0,0 l/m 23,1 km/h (4 Bft) NO 48 2 min 0,000 mm 0,6 UV-I 257 W/m 18,6 C 19,8 C 30,6 km/h (5 Bft) 95,74 %
07.09.2016 17:34 23,1 C 76 % 1018,0 hPa 0,0 l/m 23,4 km/h (4 Bft) O 84 2 min 0,000 mm 0,6 UV-I 251 W/m 18,6 C 19,8 C 29,0 km/h (5 Bft) 96,00 %
07.09.2016 17:36 23,0 C 75 % 1018,0 hPa 0,0 l/m 22,5 km/h (4 Bft) O-NO 78 2 min 0,000 mm 0,6 UV-I 245 W/m 18,3 C 19,7 C 33,8 km/h (5 Bft) 95,74 %
07.09.2016 17:38 23,0 C 76 % 1018,0 hPa 0,0 l/m 19,1 km/h (3 Bft) O-NO 74 2 min 0,000 mm 0,6 UV-I 240 W/m 18,5 C 20,2 C 25,7 km/h (4 Bft) 95,74 %
07.09.2016 17:40 22,9 C 77 % 1018,0 hPa 0,0 l/m 18,1 km/h (3 Bft) O-NO 58 2 min 0,000 mm 0,5 UV-I 235 W/m 18,6 C 20,2 C 22,5 km/h (4 Bft) 97,87 %
07.09.2016 17:42 22,9 C 76 % 1017,9 hPa 0,0 l/m 23,8 km/h (4 Bft) O-NO 66 2 min 0,000 mm 0,5 UV-I 229 W/m 18,4 C 19,5 C 30,6 km/h (5 Bft) 95,74 %
07.09.2016 17:44 22,9 C 76 % 1017,9 hPa 0,0 l/m 25,4 km/h (4 Bft) NO 55 2 min 0,000 mm 0,5 UV-I 223 W/m 18,4 C 19,3 C 33,8 km/h (5 Bft) 97,92 %
07.09.2016 17:46 22,9 C 76 % 1017,9 hPa 0,0 l/m 22,9 km/h (4 Bft) NO 54 2 min 0,000 mm 0,5 UV-I 218 W/m 18,4 C 19,6 C 32,2 km/h (5 Bft) 95,74 %
07.09.2016 17:48 22,9 C 76 % 1017,9 hPa 0,0 l/m 20,1 km/h (4 Bft) O-NO 59 2 min 0,000 mm 0,5 UV-I 211 W/m 18,4 C 19,9 C 33,8 km/h (5 Bft) 97,87 %
07.09.2016 17:50 22,8 C 76 % 1017,8 hPa 0,0 l/m 25,8 km/h (4 Bft) NO 55 2 min 0,000 mm 0,2 UV-I 205 W/m 18,3 C 19,1 C 33,8 km/h (5 Bft) 95,74 %
07.09.2016 17:52 22,8 C 75 % 1017,8 hPa 0,0 l/m 26,4 km/h (4 Bft) O-NO 67 2 min 0,000 mm 0,0 UV-I 199 W/m 18,1 C 19,0 C 33,8 km/h (5 Bft) 98,04 %
07.09.2016 17:54 22,8 C 76 % 1017,8 hPa 0,0 l/m 20,5 km/h (4 Bft) O-NO 67 2 min 0,000 mm 0,0 UV-I 193 W/m 18,3 C 19,8 C 30,6 km/h (5 Bft) 97,87 %
07.09.2016 17:56 22,8 C 76 % 1017,7 hPa 0,0 l/m 23,5 km/h (4 Bft) NO 54 2 min 0,000 mm 0,0 UV-I 186 W/m 18,3 C 19,4 C 32,2 km/h (5 Bft) 97,37 %
07.09.2016 17:58 22,7 C 76 % 1017,7 hPa 0,0 l/m 22,9 km/h (4 Bft) NO 51 2 min 0,000 mm 0,0 UV-I 181 W/m 18,2 C 19,3 C 35,4 km/h (5 Bft) 95,74 %
07.09.2016 18:00 22,7 C 76 % 1017,7 hPa 0,0 l/m 24,4 km/h (4 Bft) NO 56 2 min 0,000 mm 0,0 UV-I 176 W/m 18,2 C 19,1 C 33,8 km/h (5 Bft) 97,87 %
07.09.2016 18:02 22,7 C 77 % 1017,7 hPa 0,0 l/m 17,3 km/h (3 Bft) O-NO 60 2 min 0,228 mm 0,0 UV-I 171 W/m 18,5 C 20,1 C 25,7 km/h (4 Bft) 98,00 %
07.09.2016 18:04 22,7 C 76 % 1017,6 hPa 0,0 l/m 20,5 km/h (4 Bft) O-NO 66 2 min 0,000 mm 0,0 UV-I 165 W/m 18,2 C 19,6 C 30,6 km/h (5 Bft) 100,00 %
07.09.2016 18:06 22,6 C 76 % 1017,6 hPa 0,0 l/m 21,6 km/h (4 Bft) O-NO 58 2 min 0,000 mm 0,0 UV-I 159 W/m 18,1 C 19,3 C 29,0 km/h (5 Bft) 97,87 %
07.09.2016 18:08 22,6 C 77 % 1017,6 hPa 0,0 l/m 19,9 km/h (4 Bft) O-NO 59 2 min 0,000 mm 0,0 UV-I 152 W/m 18,4 C 19,6 C 27,4 km/h (4 Bft) 95,74 %
07.09.2016 18:10 22,6 C 77 % 1017,6 hPa 0,0 l/m 19,8 km/h (3 Bft) NO 55 2 min 0,000 mm 0,0 UV-I 146 W/m 18,4 C 19,6 C 27,4 km/h (4 Bft) 100,00 %
07.09.2016 18:12 22,6 C 77 % 1017,6 hPa 0,0 l/m 17,6 km/h (3 Bft) O-NO 60 2 min 0,000 mm 0,0 UV-I 139 W/m 18,4 C 19,9 C 24,1 km/h (4 Bft) 97,87 %
07.09.2016 18:14 22,5 C 77 % 1017,6 hPa 0,0 l/m 15,2 km/h (3 Bft) O-NO 60 2 min 0,000 mm 0,0 UV-I 133 W/m 18,3 C 20,2 C 22,5 km/h (4 Bft) 100,00 %
07.09.2016 18:16 22,4 C 77 % 1017,5 hPa 0,0 l/m 23,3 km/h (4 Bft) O-NO 72 2 min 0,000 mm 0,0 UV-I 127 W/m 18,2 C 18,8 C 29,0 km/h (5 Bft) 97,37 %
07.09.2016 18:18 22,4 C 77 % 1017,5 hPa 0,0 l/m 21,1 km/h (4 Bft) O-NO 70 2 min 0,000 mm 0,0 UV-I 122 W/m 18,2 C 19,1 C 30,6 km/h (5 Bft) 95,74 %
07.09.2016 18:20 22,3 C 77 % 1017,5 hPa 0,0 l/m 19,3 km/h (3 Bft) NO 52 2 min 0,000 mm 0,0 UV-I 117 W/m 18,1 C 19,3 C 27,4 km/h (4 Bft) 96,15 %
07.09.2016 18:22 22,3 C 77 % 1017,5 hPa 0,0 l/m 14,5 km/h (3 Bft) O-NO 58 2 min 0,000 mm 0,0 UV-I 111 W/m 18,1 C 20,1 C 19,3 km/h (3 Bft) 100,00 %
07.09.2016 18:24 22,3 C 78 % 1017,5 hPa 0,0 l/m 16,5 km/h (3 Bft) O-NO 73 2 min 0,000 mm 0,0 UV-I 106 W/m 18,3 C 19,8 C 22,5 km/h (4 Bft) 95,83 %
07.09.2016 18:26 22,2 C 78 % 1017,5 hPa 0,0 l/m 19,2 km/h (3 Bft) O-NO 68 2 min 0,000 mm 0,0 UV-I 100 W/m 18,2 C 19,2 C 25,7 km/h (4 Bft) 97,87 %
07.09.2016 18:28 22,2 C 78 % 1017,5 hPa 0,0 l/m 12,9 km/h (3 Bft) O-NO 58 2 min 0,000 mm 0,0 UV-I 96 W/m 18,2 C 20,4 C 20,9 km/h (4 Bft) 100,00 %
07.09.2016 18:30 22,2 C 78 % 1017,4 hPa 0,0 l/m 19,2 km/h (3 Bft) O-NO 65 2 min 0,000 mm 0,0 UV-I 91 W/m 18,2 C 19,2 C 27,4 km/h (4 Bft) 100,00 %
07.09.2016 18:32 22,1 C 78 % 1017,4 hPa 0,0 l/m 22,3 km/h (4 Bft) O-NO 72 0 min 0,000 mm 0,0 UV-I 86 W/m 18,1 C 18,6 C 29,0 km/h (5 Bft) 100,00 %
07.09.2016 18:34 22,1 C 78 % 1017,4 hPa 0,0 l/m 21,1 km/h (4 Bft) O 88 0 min 0,000 mm 0,0 UV-I 80 W/m 18,1 C 18,8 C 27,4 km/h (4 Bft) 100,00 %
07.09.2016 18:36 22,1 C 78 % 1017,4 hPa 0,0 l/m 22,5 km/h (4 Bft) O-NO 71 0 min 0,000 mm 0,0 UV-I 76 W/m 18,1 C 18,6 C 30,6 km/h (5 Bft) 100,00 %
07.09.2016 18:38 22,1 C 78 % 1017,3 hPa 0,0 l/m 26,8 km/h (4 Bft) O-NO 72 0 min 0,000 mm 0,0 UV-I 72 W/m 18,1 C 18,0 C 37,0 km/h (5 Bft) 97,87 %
07.09.2016 18:40 22,1 C 78 % 1017,3 hPa 0,0 l/m 20,4 km/h (4 Bft) O-NO 57 0 min 0,000 mm 0,0 UV-I 68 W/m 18,1 C 18,9 C 32,2 km/h (5 Bft) 100,00 %
07.09.2016 18:42 22,0 C 78 % 1017,3 hPa 0,0 l/m 22,3 km/h (4 Bft) O-NO 57 0 min 0,000 mm 0,0 UV-I 64 W/m 18,0 C 18,5 C 32,2 km/h (5 Bft) 100,00 %
07.09.2016 18:44 21,9 C 79 % 1017,3 hPa 0,0 l/m 19,5 km/h (3 Bft) O-NO 76 0 min 0,000 mm 0,0 UV-I 60 W/m 18,1 C 18,7 C 33,8 km/h (5 Bft) 100,00 %
07.09.2016 18:46 21,9 C 79 % 1017,3 hPa 0,0 l/m 20,3 km/h (4 Bft) O-NO 62 0 min 0,000 mm 0,0 UV-I 55 W/m 18,1 C 18,6 C 32,2 km/h (5 Bft) 97,87 %
07.09.2016 18:48 21,8 C 79 % 1017,3 hPa 0,0 l/m 17,5 km/h (3 Bft) O-NO 57 0 min 0,000 mm 0,0 UV-I 52 W/m 18,0 C 19,0 C 22,5 km/h (4 Bft) 95,74 %
07.09.2016 18:50 21,8 C 79 % 1017,2 hPa 0,0 l/m 19,9 km/h (4 Bft) O 81 0 min 0,000 mm 0,0 UV-I 49 W/m 18,0 C 18,5 C 30,6 km/h (5 Bft) 100,00 %
07.09.2016 18:52 21,7 C 80 % 1017,3 hPa 0,0 l/m 18,2 km/h (3 Bft) O 90 0 min 0,000 mm 0,0 UV-I 39 W/m 18,1 C 18,7 C 29,0 km/h (5 Bft) 100,00 %
07.09.2016 18:54 21,7 C 80 % 1017,3 hPa 0,0 l/m 16,7 km/h (3 Bft) O-NO 63 0 min 0,000 mm 0,0 UV-I 32 W/m 18,1 C 19,0 C 27,4 km/h (4 Bft) 100,00 %
07.09.2016 18:56 21,6 C 80 % 1017,3 hPa 0,0 l/m 18,2 km/h (3 Bft) O-NO 75 0 min 0,000 mm 0,0 UV-I 30 W/m 18,0 C 18,6 C 25,7 km/h (4 Bft) 100,00 %
07.09.2016 18:58 21,6 C 80 % 1017,3 hPa 0,0 l/m 20,4 km/h (4 Bft) O-NO 65 0 min 0,000 mm 0,0 UV-I 28 W/m 18,0 C 18,2 C 29,0 km/h (5 Bft) 100,00 %
07.09.2016 19:00 21,5 C 81 % 1017,4 hPa 0,0 l/m 16,5 km/h (3 Bft) O-NO 63 0 min 0,127 mm 0,0 UV-I 27 W/m 18,1 C 18,8 C 24,1 km/h (4 Bft) 95,83 %
07.09.2016 19:02 21,4 C 81 % 1017,3 hPa 0,0 l/m 16,7 km/h (3 Bft) O 84 0 min 0,000 mm 0,0 UV-I 26 W/m 18,0 C 18,6 C 24,1 km/h (4 Bft) 95,74 %
07.09.2016 19:04 21,4 C 81 % 1017,4 hPa 0,0 l/m 15,8 km/h (3 Bft) O 88 0 min 0,000 mm 0,0 UV-I 25 W/m 18,0 C 18,8 C 27,4 km/h (4 Bft) 97,87 %
07.09.2016 19:06 21,4 C 81 % 1017,4 hPa 0,0 l/m 18,8 km/h (3 Bft) NO 51 0 min 0,000 mm 0,0 UV-I 24 W/m 18,0 C 18,2 C 27,4 km/h (4 Bft) 100,00 %
07.09.2016 19:08 21,3 C 81 % 1017,3 hPa 0,0 l/m 18,6 km/h (3 Bft) O-NO 74 0 min 0,000 mm 0,0 UV-I 21 W/m 17,9 C 18,1 C 25,7 km/h (4 Bft) 100,00 %
07.09.2016 19:10 21,3 C 81 % 1017,3 hPa 0,0 l/m 18,5 km/h (3 Bft) O-NO 64 0 min 0,000 mm 0,0 UV-I 20 W/m 17,9 C 18,1 C 25,7 km/h (4 Bft) 100,00 %
07.09.2016 19:12 21,3 C 81 % 1017,3 hPa 0,0 l/m 20,9 km/h (4 Bft) O 83 0 min 0,000 mm 0,0 UV-I 19 W/m 17,9 C 17,7 C 30,6 km/h (5 Bft) 98,00 %
07.09.2016 19:14 21,3 C 81 % 1017,3 hPa 0,0 l/m 20,9 km/h (4 Bft) O-NO 69 0 min 0,000 mm 0,0 UV-I 18 W/m 17,9 C 17,7 C 25,7 km/h (4 Bft) 100,00 %
07.09.2016 19:16 21,2 C 81 % 1017,3 hPa 0,0 l/m 17,0 km/h (3 Bft) O-NO 63 0 min 0,000 mm 0,0 UV-I 16 W/m 17,8 C 18,3 C 27,4 km/h (4 Bft) 94,74 %
07.09.2016 19:18 21,2 C 81 % 1017,3 hPa 0,0 l/m 20,8 km/h (4 Bft) O-NO 59 2 min 0,000 mm 0,0 UV-I 15 W/m 17,8 C 17,6 C 35,4 km/h (5 Bft) 100,00 %
07.09.2016 19:20 21,2 C 81 % 1017,3 hPa 0,0 l/m 18,9 km/h (3 Bft) O-NO 77 2 min 0,000 mm 0,0 UV-I 13 W/m 17,8 C 17,9 C 27,4 km/h (4 Bft) 100,00 %
07.09.2016 19:22 21,1 C 81 % 1017,3 hPa 0,0 l/m 19,7 km/h (3 Bft) O-NO 66 0 min 0,000 mm 0,0 UV-I 12 W/m 17,7 C 17,7 C 25,7 km/h (4 Bft) 100,00 %
07.09.2016 19:24 21,1 C 82 % 1017,3 hPa 0,0 l/m 16,6 km/h (3 Bft) O-NO 65 0 min 0,000 mm 0,0 UV-I 11 W/m 17,9 C 18,2 C 24,1 km/h (4 Bft) 100,00 %
07.09.2016 19:26 21,0 C 82 % 1017,2 hPa 0,0 l/m 20,1 km/h (4 Bft) O 94 0 min 0,000 mm 0,0 UV-I 10 W/m 17,8 C 17,5 C 29,0 km/h (5 Bft) 97,87 %
07.09.2016 19:28 20,9 C 82 % 1017,3 hPa 0,0 l/m 21,3 km/h (4 Bft) O-NO 78 0 min 0,000 mm 0,0 UV-I 9 W/m 17,7 C 17,2 C 30,6 km/h (5 Bft) 97,87 %
07.09.2016 19:30 20,9 C 82 % 1017,3 hPa 0,0 l/m 18,9 km/h (3 Bft) NO 55 0 min 0,000 mm 0,0 UV-I 7 W/m 17,7 C 17,6 C 29,0 km/h (5 Bft) 98,00 %
07.09.2016 19:32 20,9 C 82 % 1017,3 hPa 0,0 l/m 17,5 km/h (3 Bft) O-NO 58 0 min 0,000 mm 0,0 UV-I 6 W/m 17,7 C 17,8 C 25,7 km/h (4 Bft) 97,87 %
07.09.2016 19:34 20,8 C 82 % 1017,3 hPa 0,0 l/m 17,3 km/h (3 Bft) NO 53 0 min 0,000 mm 0,0 UV-I 5 W/m 17,6 C 17,7 C 30,6 km/h (5 Bft) 97,37 %
07.09.2016 19:36 20,8 C 82 % 1017,3 hPa 0,0 l/m 20,1 km/h (4 Bft) O-NO 60 0 min 0,000 mm 0,0 UV-I 5 W/m 17,6 C 17,2 C 27,4 km/h (4 Bft) 95,83 %
07.09.2016 19:38 20,8 C 82 % 1017,3 hPa 0,0 l/m 18,6 km/h (3 Bft) O-NO 74 0 min 0,000 mm 0,0 UV-I 1 W/m 17,6 C 17,5 C 30,6 km/h (5 Bft) 97,87 %
07.09.2016 19:40 20,7 C 82 % 1017,3 hPa 0,0 l/m 21,2 km/h (4 Bft) O-NO 77 0 min 0,000 mm 0,0 UV-I 0 W/m 17,5 C 16,9 C 30,6 km/h (5 Bft) 97,87 %
07.09.2016 19:42 20,7 C 82 % 1017,3 hPa 0,0 l/m 19,1 km/h (3 Bft) O 80 0 min 0,000 mm 0,0 UV-I 0 W/m 17,5 C 17,3 C 27,4 km/h (4 Bft) 96,00 %
07.09.2016 19:44 20,7 C 82 % 1017,4 hPa 0,0 l/m 18,5 km/h (3 Bft) O-SO 108 0 min 0,000 mm 0,0 UV-I 0 W/m 17,5 C 17,4 C 30,6 km/h (5 Bft) 95,74 %
07.09.2016 19:46 20,7 C 83 % 1017,3 hPa 0,0 l/m 19,1 km/h (3 Bft) O 80 0 min 0,000 mm 0,0 UV-I 0 W/m 17,7 C 17,3 C 25,7 km/h (4 Bft) 98,00 %
07.09.2016 19:48 20,6 C 83 % 1017,4 hPa 0,0 l/m 19,9 km/h (4 Bft) O-NO 65 0 min 0,000 mm 0,0 UV-I 0 W/m 17,6 C 17,0 C 29,0 km/h (5 Bft) 96,00 %
07.09.2016 19:50 20,6 C 83 % 1017,4 hPa 0,0 l/m 19,0 km/h (3 Bft) O-NO 65 0 min 0,000 mm 0,0 UV-I 0 W/m 17,6 C 17,2 C 29,0 km/h (5 Bft) 95,74 %
07.09.2016 19:52 20,6 C 83 % 1017,4 hPa 0,0 l/m 22,4 km/h (4 Bft) O-NO 63 0 min 0,000 mm 0,0 UV-I 0 W/m 17,6 C 16,6 C 33,8 km/h (5 Bft) 93,62 %
07.09.2016 19:54 20,6 C 83 % 1017,3 hPa 0,0 l/m 20,3 km/h (4 Bft) O-NO 65 0 min 0,000 mm 0,0 UV-I 0 W/m 17,6 C 16,9 C 32,2 km/h (5 Bft) 95,74 %
07.09.2016 19:56 20,6 C 83 % 1017,4 hPa 0,0 l/m 19,9 km/h (4 Bft) O 89 0 min 0,000 mm 0,0 UV-I 0 W/m 17,6 C 17,0 C 29,0 km/h (5 Bft) 91,89 %
07.09.2016 19:58 20,5 C 83 % 1017,3 hPa 0,0 l/m 22,4 km/h (4 Bft) O-NO 64 0 min 0,000 mm 0,0 UV-I 0 W/m 17,5 C 16,5 C 30,6 km/h (5 Bft) 95,74 %
07.09.2016 20:00 20,5 C 83 % 1017,3 hPa 0,0 l/m 20,7 km/h (4 Bft) O 81 0 min 0,000 mm 0,0 UV-I 0 W/m 17,5 C 16,7 C 29,0 km/h (5 Bft) 100,00 %
07.09.2016 20:02 20,5 C 83 % 1017,2 hPa 0,0 l/m 18,9 km/h (3 Bft) NO 44 0 min 0,051 mm 0,0 UV-I 0 W/m 17,5 C 17,1 C 30,6 km/h (5 Bft) 97,87 %
07.09.2016 20:04 20,4 C 83 % 1017,3 hPa 0,0 l/m 17,1 km/h (3 Bft) O-NO 77 0 min 0,000 mm 0,0 UV-I 0 W/m 17,4 C 17,3 C 24,1 km/h (4 Bft) 100,00 %
07.09.2016 20:06 20,4 C 83 % 1017,2 hPa 0,0 l/m 20,1 km/h (4 Bft) NO 47 0 min 0,000 mm 0,0 UV-I 0 W/m 17,4 C 16,7 C 30,6 km/h (5 Bft) 97,87 %
07.09.2016 20:08 20,4 C 83 % 1017,3 hPa 0,0 l/m 25,2 km/h (4 Bft) NO 53 0 min 0,000 mm 0,0 UV-I 0 W/m 17,4 C 15,9 C 35,4 km/h (5 Bft) 97,87 %
07.09.2016 20:10 20,4 C 83 % 1017,3 hPa 0,0 l/m 25,5 km/h (4 Bft) O 80 0 min 0,000 mm 0,0 UV-I 0 W/m 17,4 C 15,9 C 33,8 km/h (5 Bft) 100,00 %
07.09.2016 20:12 20,4 C 83 % 1017,3 hPa 0,0 l/m 20,2 km/h (4 Bft) O-NO 63 0 min 0,000 mm 0,0 UV-I 0 W/m 17,4 C 16,7 C 27,4 km/h (4 Bft) 100,00 %
07.09.2016 20:14 20,4 C 83 % 1017,4 hPa 0,0 l/m 17,6 km/h (3 Bft) O-NO 76 0 min 0,000 mm 0,0 UV-I 0 W/m 17,4 C 17,2 C 29,0 km/h (5 Bft) 100,00 %
07.09.2016 20:16 20,4 C 83 % 1017,4 hPa 0,0 l/m 18,6 km/h (3 Bft) O 96 0 min 0,000 mm 0,0 UV-I 0 W/m 17,4 C 17,0 C 29,0 km/h (5 Bft) 100,00 %
07.09.2016 20:18 20,3 C 83 % 1017,4 hPa 0,0 l/m 21,2 km/h (4 Bft) O 89 0 min 0,000 mm 0,0 UV-I 0 W/m 17,3 C 16,4 C 27,4 km/h (4 Bft) 100,00 %
07.09.2016 20:20 20,3 C 83 % 1017,4 hPa 0,0 l/m 20,1 km/h (4 Bft) O-NO 68 0 min 0,000 mm 0,0 UV-I 0 W/m 17,3 C 16,6 C 29,0 km/h (5 Bft) 97,87 %
07.09.2016 20:22 20,3 C 83 % 1017,4 hPa 0,0 l/m 17,9 km/h (3 Bft) O 98 0 min 0,000 mm 0,0 UV-I 0 W/m 17,3 C 17,0 C 27,4 km/h (4 Bft) 100,00 %
07.09.2016 20:24 20,3 C 83 % 1017,4 hPa 0,0 l/m 18,7 km/h (3 Bft) O-NO 69 0 min 0,000 mm 0,0 UV-I 0 W/m 17,3 C 16,8 C 27,4 km/h (4 Bft) 100,00 %
07.09.2016 20:26 20,2 C 84 % 1017,4 hPa 0,0 l/m 16,3 km/h (3 Bft) O-NO 74 0 min 0,000 mm 0,0 UV-I 0 W/m 17,4 C 17,2 C 24,1 km/h (4 Bft) 100,00 %
07.09.2016 20:28 20,2 C 84 % 1017,4 hPa 0,0 l/m 22,0 km/h (4 Bft) O-NO 60 0 min 0,000 mm 0,0 UV-I 0 W/m 17,4 C 16,1 C 32,2 km/h (5 Bft) 93,62 %
07.09.2016 20:30 20,2 C 84 % 1017,5 hPa 0,0 l/m 15,4 km/h (3 Bft) O-NO 63 0 min 0,000 mm 0,0 UV-I 0 W/m 17,4 C 17,4 C 25,7 km/h (4 Bft) 97,87 %
07.09.2016 20:32 20,2 C 84 % 1017,5 hPa 0,0 l/m 19,8 km/h (3 Bft) O-NO 65 0 min 0,000 mm 0,0 UV-I 0 W/m 17,4 C 16,5 C 27,4 km/h (4 Bft) 100,00 %
07.09.2016 20:34 20,2 C 84 % 1017,5 hPa 0,0 l/m 19,8 km/h (3 Bft) NO 55 0 min 0,000 mm 0,0 UV-I 0 W/m 17,4 C 16,5 C 27,4 km/h (4 Bft) 97,87 %
07.09.2016 20:36 20,1 C 84 % 1017,6 hPa 0,0 l/m 20,5 km/h (4 Bft) O-NO 62 0 min 0,000 mm 0,0 UV-I 0 W/m 17,3 C 16,2 C 27,4 km/h (4 Bft) 100,00 %
07.09.2016 20:38 20,1 C 84 % 1017,6 hPa 0,0 l/m 12,1 km/h (2 Bft) NO 48 0 min 0,000 mm 0,0 UV-I 0 W/m 17,3 C 18,1 C 24,1 km/h (4 Bft) 97,87 %
07.09.2016 20:40 20,1 C 84 % 1017,5 hPa 0,0 l/m 17,9 km/h (3 Bft) O 94 0 min 0,000 mm 0,0 UV-I 0 W/m 17,3 C 16,7 C 27,4 km/h (4 Bft) 100,00 %
07.09.2016 20:42 20,1 C 84 % 1017,5 hPa 0,0 l/m 14,2 km/h (3 Bft) O-NO 65 0 min 0,000 mm 0,0 UV-I 0 W/m 17,3 C 17,6 C 20,9 km/h (4 Bft) 100,00 %
07.09.2016 20:44 20,0 C 84 % 1017,5 hPa 0,0 l/m 18,5 km/h (3 Bft) O-SO 105 0 min 0,000 mm 0,0 UV-I 0 W/m 17,2 C 16,5 C 29,0 km/h (5 Bft) 100,00 %
07.09.2016 20:46 20,0 C 84 % 1017,5 hPa 0,0 l/m 19,1 km/h (3 Bft) O-NO 76 0 min 0,000 mm 0,0 UV-I 0 W/m 17,2 C 16,4 C 29,0 km/h (5 Bft) 100,00 %
07.09.2016 20:48 20,0 C 84 % 1017,5 hPa 0,0 l/m 21,5 km/h (4 Bft) NO 49 0 min 0,000 mm 0,0 UV-I 0 W/m 17,2 C 15,9 C 30,6 km/h (5 Bft) 100,00 %
07.09.2016 20:50 19,9 C 85 % 1017,5 hPa 0,0 l/m 17,8 km/h (3 Bft) O-NO 57 0 min 0,000 mm 0,0 UV-I 0 W/m 17,3 C 16,5 C 25,7 km/h (4 Bft) 100,00 %
07.09.2016 20:52 19,9 C 85 % 1017,4 hPa 0,0 l/m 16,8 km/h (3 Bft) O-NO 71 0 min 0,000 mm 0,0 UV-I 0 W/m 17,3 C 16,7 C 20,9 km/h (4 Bft) 97,87 %
07.09.2016 20:54 19,9 C 85 % 1017,4 hPa 0,0 l/m 20,4 km/h (4 Bft) O 88 0 min 0,000 mm 0,0 UV-I 0 W/m 17,3 C 16,0 C 29,0 km/h (5 Bft) 100,00 %
07.09.2016 20:56 19,9 C 85 % 1017,4 hPa 0,0 l/m 18,4 km/h (3 Bft) O-NO 61 0 min 0,000 mm 0,0 UV-I 0 W/m 17,3 C 16,4 C 24,1 km/h (4 Bft) 100,00 %
07.09.2016 20:58 19,8 C 85 % 1017,4 hPa 0,0 l/m 20,1 km/h (4 Bft) O-NO 66 0 min 0,000 mm 0,0 UV-I 0 W/m 17,2 C 15,9 C 27,4 km/h (4 Bft) 100,00 %
07.09.2016 21:00 19,8 C 85 % 1017,4 hPa 0,0 l/m 21,3 km/h (4 Bft) O 82 0 min 0,000 mm 0,0 UV-I 0 W/m 17,2 C 15,7 C 33,8 km/h (5 Bft) 100,00 %
07.09.2016 21:02 19,8 C 85 % 1017,3 hPa 0,0 l/m 19,9 km/h (4 Bft) NO 50 0 min 0,051 mm 0,0 UV-I 0 W/m 17,2 C 16,0 C 27,4 km/h (4 Bft) 94,87 %
07.09.2016 21:04 19,8 C 85 % 1017,3 hPa 0,0 l/m 18,0 km/h (3 Bft) O-NO 64 0 min 0,000 mm 0,0 UV-I 0 W/m 17,2 C 16,3 C 25,7 km/h (4 Bft) 97,87 %
07.09.2016 21:06 19,8 C 85 % 1017,2 hPa 0,0 l/m 18,7 km/h (3 Bft) NO 56 0 min 0,000 mm 0,0 UV-I 0 W/m 17,2 C 16,2 C 29,0 km/h (5 Bft) 100,00 %
07.09.2016 21:08 19,8 C 85 % 1017,2 hPa 0,0 l/m 22,4 km/h (4 Bft) O-NO 59 0 min 0,000 mm 0,0 UV-I 0 W/m 17,2 C 15,5 C 35,4 km/h (5 Bft) 100,00 %
07.09.2016 21:10 19,8 C 85 % 1017,2 hPa 0,0 l/m 20,8 km/h (4 Bft) NO 44 0 min 0,000 mm 0,0 UV-I 0 W/m 17,2 C 15,8 C 32,2 km/h (5 Bft) 97,87 %
07.09.2016 21:12 19,7 C 85 % 1017,2 hPa 0,0 l/m 21,7 km/h (4 Bft) O-NO 61 0 min 0,000 mm 0,0 UV-I 0 W/m 17,1 C 15,5 C 33,8 km/h (5 Bft) 100,00 %
07.09.2016 21:14 19,7 C 85 % 1017,2 hPa 0,0 l/m 22,6 km/h (4 Bft) O-NO 70 0 min 0,000 mm 0,0 UV-I 0 W/m 17,1 C 15,4 C 32,2 km/h (5 Bft) 97,87 %
07.09.2016 21:16 19,7 C 85 % 1017,2 hPa 0,0 l/m 18,5 km/h (3 Bft) O-NO 77 0 min 0,000 mm 0,0 UV-I 0 W/m 17,1 C 16,1 C 24,1 km/h (4 Bft) 97,87 %
07.09.2016 21:18 19,6 C 85 % 1017,2 hPa 0,0 l/m 19,5 km/h (3 Bft) O-NO 57 0 min 0,000 mm 0,0 UV-I 0 W/m 17,0 C 15,8 C 29,0 km/h (5 Bft) 100,00 %
07.09.2016 21:20 19,6 C 85 % 1017,3 hPa 0,0 l/m 15,0 km/h (3 Bft) NO 56 0 min 0,000 mm 0,0 UV-I 0 W/m 17,0 C 16,8 C 20,9 km/h (4 Bft) 100,00 %
07.09.2016 21:22 19,6 C 86 % 1017,3 hPa 0,0 l/m 16,1 km/h (3 Bft) O-NO 71 0 min 0,000 mm 0,0 UV-I 0 W/m 17,2 C 16,5 C 22,5 km/h (4 Bft) 100,00 %
07.09.2016 21:24 19,5 C 86 % 1017,3 hPa 0,0 l/m 15,6 km/h (3 Bft) O-NO 63 0 min 0,000 mm 0,0 UV-I 0 W/m 17,1 C 16,5 C 20,9 km/h (4 Bft) 97,87 %
07.09.2016 21:26 19,5 C 86 % 1017,3 hPa 0,0 l/m 15,1 km/h (3 Bft) O-NO 62 0 min 0,000 mm 0,0 UV-I 0 W/m 17,1 C 16,6 C 19,3 km/h (3 Bft) 95,92 %
07.09.2016 21:28 19,4 C 86 % 1017,3 hPa 0,0 l/m 14,5 km/h (3 Bft) O-NO 68 0 min 0,000 mm 0,0 UV-I 0 W/m 17,0 C 16,6 C 20,9 km/h (4 Bft) 97,87 %
07.09.2016 21:30 19,4 C 86 % 1017,3 hPa 0,0 l/m 15,6 km/h (3 Bft) O-NO 76 0 min 0,000 mm 0,0 UV-I 0 W/m 17,0 C 16,4 C 24,1 km/h (4 Bft) 97,87 %
07.09.2016 21:32 19,4 C 86 % 1017,3 hPa 0,0 l/m 14,3 km/h (3 Bft) O-NO 60 0 min 0,000 mm 0,0 UV-I 0 W/m 17,0 C 16,7 C 19,3 km/h (3 Bft) 95,83 %
07.09.2016 21:34 19,3 C 86 % 1017,2 hPa 0,0 l/m 16,9 km/h (3 Bft) O 81 0 min 0,000 mm 0,0 UV-I 0 W/m 16,9 C 15,9 C 22,5 km/h (4 Bft) 98,51 %
07.09.2016 21:36 19,3 C 86 % 1017,2 hPa 0,0 l/m 12,8 km/h (3 Bft) NO 47 0 min 0,000 mm 0,0 UV-I 0 W/m 16,9 C 17,0 C 20,9 km/h (4 Bft) 96,00 %
07.09.2016 21:38 19,3 C 86 % 1017,2 hPa 0,0 l/m 12,7 km/h (3 Bft) O-NO 71 0 min 0,000 mm 0,0 UV-I 0 W/m 16,9 C 17,0 C 19,3 km/h (3 Bft) 97,62 %
07.09.2016 21:40 19,2 C 87 % 1017,2 hPa 0,0 l/m 12,0 km/h (2 Bft) O-NO 65 0 min 0,000 mm 0,0 UV-I 0 W/m 17,0 C 17,1 C 16,1 km/h (3 Bft) 95,74 %
07.09.2016 21:42 19,2 C 87 % 1017,1 hPa 0,0 l/m 14,9 km/h (3 Bft) O-NO 60 0 min 0,000 mm 0,0 UV-I 0 W/m 17,0 C 16,3 C 20,9 km/h (4 Bft) 95,74 %
07.09.2016 21:44 19,2 C 87 % 1017,1 hPa 0,0 l/m 16,5 km/h (3 Bft) O 84 0 min 0,000 mm 0,0 UV-I 0 W/m 17,0 C 15,9 C 24,1 km/h (4 Bft) 98,00 %
07.09.2016 21:46 19,2 C 87 % 1017,1 hPa 0,0 l/m 15,1 km/h (3 Bft) O-NO 59 0 min 0,000 mm 0,0 UV-I 0 W/m 17,0 C 16,3 C 20,9 km/h (4 Bft) 97,30 %
07.09.2016 21:48 19,2 C 87 % 1017,2 hPa 0,0 l/m 14,9 km/h (3 Bft) O-NO 70 0 min 0,000 mm 0,0 UV-I 0 W/m 17,0 C 16,3 C 20,9 km/h (4 Bft) 98,00 %
07.09.2016 21:50 19,1 C 87 % 1017,2 hPa 0,0 l/m 14,8 km/h (3 Bft) O-NO 73 0 min 0,000 mm 0,0 UV-I 0 W/m 16,9 C 16,2 C 22,5 km/h (4 Bft) 97,87 %
07.09.2016 21:52 19,1 C 87 % 1017,2 hPa 0,0 l/m 10,6 km/h (2 Bft) O-NO 74 0 min 0,000 mm 0,0 UV-I 0 W/m 16,9 C 17,4 C 16,1 km/h (3 Bft) 97,87 %
07.09.2016 21:54 19,1 C 87 % 1017,1 hPa 0,0 l/m 12,9 km/h (3 Bft) O-NO 65 0 min 0,000 mm 0,0 UV-I 0 W/m 16,9 C 16,7 C 19,3 km/h (3 Bft) 93,62 %
07.09.2016 21:56 19,0 C 87 % 1017,1 hPa 0,0 l/m 13,5 km/h (3 Bft) O-NO 60 0 min 0,000 mm 0,0 UV-I 0 W/m 16,8 C 16,4 C 19,3 km/h (3 Bft) 95,74 %
07.09.2016 21:58 18,9 C 87 % 1017,1 hPa 0,0 l/m 11,2 km/h (2 Bft) O 85 0 min 0,000 mm 0,0 UV-I 0 W/m 16,7 C 17,0 C 16,1 km/h (3 Bft) 100,00 %
07.09.2016 22:00 18,9 C 87 % 1017,1 hPa 0,0 l/m 12,2 km/h (2 Bft) NO 38 0 min 0,025 mm 0,0 UV-I 0 W/m 16,7 C 16,7 C 19,3 km/h (3 Bft) 100,00 %
07.09.2016 22:02 18,9 C 88 % 1017,1 hPa 0,0 l/m 12,3 km/h (3 Bft) NO 43 0 min 0,000 mm 0,0 UV-I 0 W/m 16,9 C 16,7 C 19,3 km/h (3 Bft) 97,87 %
07.09.2016 22:04 18,9 C 88 % 1017,1 hPa 0,0 l/m 13,5 km/h (3 Bft) NO 38 0 min 0,000 mm 0,0 UV-I 0 W/m 16,9 C 16,3 C 19,3 km/h (3 Bft) 100,00 %
07.09.2016 22:06 18,9 C 88 % 1017,0 hPa 0,0 l/m 14,3 km/h (3 Bft) O 79 0 min 0,000 mm 0,0 UV-I 0 W/m 16,9 C 16,1 C 20,9 km/h (4 Bft) 97,87 %
07.09.2016 22:08 18,8 C 88 % 1017,0 hPa 0,0 l/m 13,3 km/h (3 Bft) NO 54 0 min 0,000 mm 0,0 UV-I 0 W/m 16,8 C 16,3 C 20,9 km/h (4 Bft) 100,00 %
07.09.2016 22:10 18,8 C 88 % 1017,0 hPa 0,0 l/m 14,9 km/h (3 Bft) O-NO 70 0 min 0,000 mm 0,0 UV-I 0 W/m 16,8 C 15,8 C 20,9 km/h (4 Bft) 97,87 %
07.09.2016 22:12 18,8 C 88 % 1017,0 hPa 0,0 l/m 15,8 km/h (3 Bft) NO 55 0 min 0,000 mm 0,0 UV-I 0 W/m 16,8 C 15,6 C 24,1 km/h (4 Bft) 100,00 %
07.09.2016 22:14 18,8 C 88 % 1017,0 hPa 0,0 l/m 13,8 km/h (3 Bft) NO 52 0 min 0,000 mm 0,0 UV-I 0 W/m 16,8 C 16,1 C 20,9 km/h (4 Bft) 100,00 %
07.09.2016 22:16 18,7 C 88 % 1017,0 hPa 0,0 l/m 13,4 km/h (3 Bft) O-NO 63 0 min 0,000 mm 0,0 UV-I 0 W/m 16,7 C 16,1 C 20,9 km/h (4 Bft) 100,00 %
07.09.2016 22:18 18,7 C 88 % 1017,0 hPa 0,0 l/m 13,2 km/h (3 Bft) O-NO 59 0 min 0,000 mm 0,0 UV-I 0 W/m 16,7 C 16,2 C 19,3 km/h (3 Bft) 100,00 %
07.09.2016 22:20 18,6 C 88 % 1017,0 hPa 0,0 l/m 12,0 km/h (2 Bft) O-NO 60 0 min 0,000 mm 0,0 UV-I 0 W/m 16,6 C 16,4 C 19,3 km/h (3 Bft) 97,87 %
07.09.2016 22:22 18,6 C 88 % 1017,0 hPa 0,0 l/m 15,9 km/h (3 Bft) NO 48 0 min 0,000 mm 0,0 UV-I 0 W/m 16,6 C 15,3 C 22,5 km/h (4 Bft) 100,00 %
07.09.2016 22:24 18,6 C 88 % 1016,9 hPa 0,0 l/m 15,6 km/h (3 Bft) O-NO 63 0 min 0,000 mm 0,0 UV-I 0 W/m 16,6 C 15,4 C 22,5 km/h (4 Bft) 100,00 %
07.09.2016 22:26 18,5 C 88 % 1016,9 hPa 0,0 l/m 17,8 km/h (3 Bft) NO 44 0 min 0,000 mm 0,0 UV-I 0 W/m 16,5 C 14,7 C 22,5 km/h (4 Bft) 100,00 %
07.09.2016 22:28 18,5 C 88 % 1016,8 hPa 0,0 l/m 14,0 km/h (3 Bft) O-NO 58 0 min 0,000 mm 0,0 UV-I 0 W/m 16,5 C 15,7 C 20,9 km/h (4 Bft) 100,00 %
07.09.2016 22:30 18,4 C 88 % 1016,9 hPa 0,0 l/m 13,1 km/h (3 Bft) O-NO 70 0 min 0,000 mm 0,0 UV-I 0 W/m 16,4 C 15,8 C 17,7 km/h (3 Bft) 100,00 %
07.09.2016 22:32 18,4 C 89 % 1016,9 hPa 0,0 l/m 13,9 km/h (3 Bft) O 80 0 min 0,000 mm 0,0 UV-I 0 W/m 16,6 C 15,6 C 20,9 km/h (4 Bft) 100,00 %
07.09.2016 22:34 18,4 C 88 % 1016,8 hPa 0,0 l/m 14,7 km/h (3 Bft) O-NO 57 0 min 0,000 mm 0,0 UV-I 0 W/m 16,4 C 15,4 C 20,9 km/h (4 Bft) 100,00 %
07.09.2016 22:36 18,3 C 88 % 1016,8 hPa 0,0 l/m 12,0 km/h (2 Bft) O-NO 76 0 min 0,000 mm 0,0 UV-I 0 W/m 16,3 C 16,1 C 20,9 km/h (4 Bft) 97,87 %
07.09.2016 22:38 18,3 C 89 % 1016,8 hPa 0,0 l/m 14,2 km/h (3 Bft) O-NO 59 0 min 0,000 mm 0,0 UV-I 0 W/m 16,5 C 15,4 C 20,9 km/h (4 Bft) 95,74 %
07.09.2016 22:40 18,3 C 89 % 1016,8 hPa 0,0 l/m 12,8 km/h (3 Bft) O-NO 60 0 min 0,000 mm 0,0 UV-I 0 W/m 16,5 C 15,8 C 19,3 km/h (3 Bft) 97,87 %
07.09.2016 22:42 18,3 C 89 % 1016,7 hPa 0,0 l/m 14,6 km/h (3 Bft) O-NO 78 0 min 0,000 mm 0,0 UV-I 0 W/m 16,5 C 15,3 C 20,9 km/h (4 Bft) 97,37 %
07.09.2016 22:44 18,3 C 89 % 1016,7 hPa 0,0 l/m 12,1 km/h (2 Bft) O-NO 66 0 min 0,000 mm 0,0 UV-I 0 W/m 16,5 C 16,0 C 17,7 km/h (3 Bft) 100,00 %
07.09.2016 22:46 18,2 C 89 % 1016,7 hPa 0,0 l/m 10,9 km/h (2 Bft) O-NO 65 0 min 0,000 mm 0,0 UV-I 0 W/m 16,4 C 16,3 C 16,1 km/h (3 Bft) 100,00 %
07.09.2016 22:48 18,2 C 89 % 1016,7 hPa 0,0 l/m 12,3 km/h (3 Bft) O-NO 74 0 min 0,000 mm 0,0 UV-I 0 W/m 16,4 C 15,9 C 19,3 km/h (3 Bft) 97,87 %
07.09.2016 22:50 18,2 C 89 % 1016,7 hPa 0,0 l/m 10,2 km/h (2 Bft) O 79 0 min 0,000 mm 0,0 UV-I 0 W/m 16,4 C 16,6 C 14,5 km/h (3 Bft) 97,87 %
07.09.2016 22:52 18,1 C 89 % 1016,6 hPa 0,0 l/m 11,6 km/h (2 Bft) O 82 0 min 0,000 mm 0,0 UV-I 0 W/m 16,3 C 16,0 C 16,1 km/h (3 Bft) 100,00 %
07.09.2016 22:54 18,1 C 89 % 1016,7 hPa 0,0 l/m 11,4 km/h (2 Bft) O-NO 76 0 min 0,000 mm 0,0 UV-I 0 W/m 16,3 C 16,0 C 16,1 km/h (3 Bft) 98,00 %
07.09.2016 22:56 18,1 C 89 % 1016,7 hPa 0,0 l/m 14,0 km/h (3 Bft) O-NO 71 0 min 0,000 mm 0,0 UV-I 0 W/m 16,3 C 15,2 C 19,3 km/h (3 Bft) 100,00 %
07.09.2016 22:58 18,1 C 89 % 1016,7 hPa 0,0 l/m 11,2 km/h (2 Bft) O-NO 69 0 min 0,000 mm 0,0 UV-I 0 W/m 16,3 C 16,1 C 16,1 km/h (3 Bft) 100,00 %
07.09.2016 23:00 18,0 C 89 % 1016,7 hPa 0,0 l/m 12,8 km/h (3 Bft) NO 46 0 min 0,000 mm 0,0 UV-I 0 W/m 16,2 C 15,5 C 17,7 km/h (3 Bft) 97,92 %
07.09.2016 23:02 18,0 C 90 % 1016,7 hPa 0,0 l/m 11,5 km/h (2 Bft) O-NO 67 0 min 0,026 mm 0,0 UV-I 0 W/m 16,3 C 15,9 C 16,1 km/h (3 Bft) 100,00 %
07.09.2016 23:04 17,9 C 90 % 1016,7 hPa 0,0 l/m 11,0 km/h (2 Bft) O-NO 74 0 min 0,000 mm 0,0 UV-I 0 W/m 16,2 C 16,0 C 16,1 km/h (3 Bft) 100,00 %
07.09.2016 23:06 17,9 C 90 % 1016,7 hPa 0,0 l/m 13,0 km/h (3 Bft) O-NO 73 0 min 0,000 mm 0,0 UV-I 0 W/m 16,2 C 15,3 C 19,3 km/h (3 Bft) 100,00 %
07.09.2016 23:08 17,9 C 90 % 1016,7 hPa 0,0 l/m 12,8 km/h (3 Bft) O-NO 64 0 min 0,000 mm 0,0 UV-I 0 W/m 16,2 C 15,4 C 17,7 km/h (3 Bft) 100,00 %
07.09.2016 23:10 17,9 C 90 % 1016,6 hPa 0,0 l/m 11,1 km/h (2 Bft) O-NO 61 0 min 0,000 mm 0,0 UV-I 0 W/m 16,2 C 15,9 C 16,1 km/h (3 Bft) 97,87 %
07.09.2016 23:12 17,9 C 90 % 1016,6 hPa 0,0 l/m 12,9 km/h (3 Bft) O-NO 76 0 min 0,000 mm 0,0 UV-I 0 W/m 16,2 C 15,3 C 17,7 km/h (3 Bft) 100,00 %
07.09.2016 23:14 17,8 C 90 % 1016,6 hPa 0,0 l/m 12,8 km/h (3 Bft) O-NO 66 0 min 0,000 mm 0,0 UV-I 0 W/m 16,1 C 15,2 C 17,7 km/h (3 Bft) 100,00 %
07.09.2016 23:16 17,8 C 90 % 1016,5 hPa 0,0 l/m 11,2 km/h (2 Bft) NO 44 0 min 0,000 mm 0,0 UV-I 0 W/m 16,1 C 15,8 C 14,5 km/h (3 Bft) 100,00 %
07.09.2016 23:18 17,8 C 90 % 1016,5 hPa 0,0 l/m 10,6 km/h (2 Bft) O-NO 61 0 min 0,000 mm 0,0 UV-I 0 W/m 16,1 C 16,0 C 16,1 km/h (3 Bft) 98,00 %
07.09.2016 23:20 17,8 C 90 % 1016,5 hPa 0,0 l/m 11,4 km/h (2 Bft) O-NO 74 0 min 0,000 mm 0,0 UV-I 0 W/m 16,1 C 15,7 C 16,1 km/h (3 Bft) 100,00 %
07.09.2016 23:22 17,8 C 90 % 1016,4 hPa 0,0 l/m 11,5 km/h (2 Bft) NO 38 0 min 0,000 mm 0,0 UV-I 0 W/m 16,1 C 15,7 C 17,7 km/h (3 Bft) 97,87 %
07.09.2016 23:24 17,7 C 90 % 1016,4 hPa 0,0 l/m 12,6 km/h (3 Bft) NO 56 0 min 0,000 mm 0,0 UV-I 0 W/m 16,0 C 15,2 C 19,3 km/h (3 Bft) 98,00 %
07.09.2016 23:26 17,7 C 90 % 1016,4 hPa 0,0 l/m 12,6 km/h (3 Bft) NO 49 0 min 0,000 mm 0,0 UV-I 0 W/m 16,0 C 15,2 C 17,7 km/h (3 Bft) 97,87 %
07.09.2016 23:28 17,7 C 90 % 1016,4 hPa 0,0 l/m 14,5 km/h (3 Bft) O-NO 78 0 min 0,000 mm 0,0 UV-I 0 W/m 16,0 C 14,6 C 20,9 km/h (4 Bft) 97,87 %
07.09.2016 23:30 17,7 C 90 % 1016,4 hPa 0,0 l/m 14,0 km/h (3 Bft) O-NO 69 0 min 0,000 mm 0,0 UV-I 0 W/m 16,0 C 14,8 C 19,3 km/h (3 Bft) 97,22 %
07.09.2016 23:32 17,7 C 90 % 1016,4 hPa 0,0 l/m 14,6 km/h (3 Bft) NO 53 0 min 0,000 mm 0,0 UV-I 0 W/m 16,0 C 14,6 C 19,3 km/h (3 Bft) 96,00 %
07.09.2016 23:34 17,7 C 90 % 1016,4 hPa 0,0 l/m 13,3 km/h (3 Bft) O-NO 63 0 min 0,000 mm 0,0 UV-I 0 W/m 16,0 C 15,0 C 17,7 km/h (3 Bft) 97,87 %
07.09.2016 23:36 17,7 C 90 % 1016,3 hPa 0,0 l/m 14,7 km/h (3 Bft) O 82 0 min 0,000 mm 0,0 UV-I 0 W/m 16,0 C 14,5 C 22,5 km/h (4 Bft) 93,62 %
07.09.2016 23:38 17,6 C 91 % 1016,3 hPa 0,0 l/m 15,1 km/h (3 Bft) O-NO 74 0 min 0,000 mm 0,0 UV-I 0 W/m 16,1 C 14,3 C 20,9 km/h (4 Bft) 95,74 %
07.09.2016 23:40 17,6 C 91 % 1016,4 hPa 0,0 l/m 15,1 km/h (3 Bft) O-NO 65 0 min 0,000 mm 0,0 UV-I 0 W/m 16,1 C 14,3 C 19,3 km/h (3 Bft) 95,74 %
07.09.2016 23:42 17,6 C 91 % 1016,4 hPa 0,0 l/m 15,0 km/h (3 Bft) O 88 0 min 0,000 mm 0,0 UV-I 0 W/m 16,1 C 14,3 C 20,9 km/h (4 Bft) 98,00 %
07.09.2016 23:44 17,6 C 91 % 1016,3 hPa 0,0 l/m 15,3 km/h (3 Bft) O-NO 68 0 min 0,000 mm 0,0 UV-I 0 W/m 16,1 C 14,3 C 19,3 km/h (3 Bft) 97,87 %
07.09.2016 23:46 17,6 C 91 % 1016,3 hPa 0,0 l/m 16,6 km/h (3 Bft) O 80 0 min 0,000 mm 0,0 UV-I 0 W/m 16,1 C 13,9 C 22,5 km/h (4 Bft) 95,74 %
07.09.2016 23:48 17,5 C 91 % 1016,3 hPa 0,0 l/m 15,4 km/h (3 Bft) O-NO 62 0 min 0,000 mm 0,0 UV-I 0 W/m 16,0 C 14,1 C 20,9 km/h (4 Bft) 95,74 %
07.09.2016 23:50 17,5 C 91 % 1016,3 hPa 0,0 l/m 14,0 km/h (3 Bft) NO 39 0 min 0,000 mm 0,0 UV-I 0 W/m 16,0 C 14,5 C 17,7 km/h (3 Bft) 95,74 %
07.09.2016 23:52 17,5 C 91 % 1016,3 hPa 0,0 l/m 15,7 km/h (3 Bft) NO 53 0 min 0,000 mm 0,0 UV-I 0 W/m 16,0 C 14,0 C 20,9 km/h (4 Bft) 97,87 %
07.09.2016 23:54 17,5 C 91 % 1016,2 hPa 0,0 l/m 13,8 km/h (3 Bft) O-NO 65 0 min 0,000 mm 0,0 UV-I 0 W/m 16,0 C 14,6 C 20,9 km/h (4 Bft) 95,74 %
07.09.2016 23:56 17,5 C 91 % 1016,3 hPa 0,0 l/m 13,9 km/h (3 Bft) NO 55 0 min 0,000 mm 0,0 UV-I 0 W/m 16,0 C 14,5 C 19,3 km/h (3 Bft) 97,87 %
07.09.2016 23:58 17,4 C 91 % 1016,2 hPa 0,0 l/m 12,3 km/h (3 Bft) O-NO 60 0 min 0,000 mm 0,0 UV-I 0 W/m 15,9 C 14,9 C 20,9 km/h (4 Bft) 100,00 %
_ Min-Zeit 00:00 15:36 23:54 - 02:36 - - - - - - 00:00 08:00 02:36 02:14
Minimum _ 13,2 C 73 % 1016,2 hPa - 0,0 km/h (0 Bft) - - - - - - 12,6 C 8,2 C 0,0 km/h (0 Bft) 89,36 %
_ Max-Zeit 15:58 07:52 00:00 00:14 15:28 - - 09:42 13:00 12:44 12:46 16:44 15:54 14:50 00:00
Maximum _ 23,3 C 98 % 1025,8 hPa 0,2 l/m 28,5 km/h
O-NO (4 Bft)
- - 2 min 0,457 mm 4,4 UV-I 695 W/m 19,0 C 21,5 C 40,2 km/h
NO (6 Bft)
100,00 %
Durchschnitt _ 17,6 C 88 % 1020,9 hPa #0,2 l/m 14,8 km/h (3 Bft) O-NO - #8:22 h #3,480 mm 2,6 UV-I 370 W/m 15,5 C 15,0 C 21,5 km/h (4 Bft) 98,38 %